Wetterdaten: Montag, 05.09.2022
Datum Zeit Temp. I. Temp. A. Feuchte I. Feuchte A. Luftdruck Regen Wind Richtung Richtung Sonnenschein Solar Taupunkt Windchill Windböen
05.09.2022 00:00 23,8 °C 17,9 °C 52 % 62 % 1022,0 hPa 0,0 l/m² 5,3 km/h (1 Bft) O 79 ° 0 min 0 W/m² 10,5 °C 17,9 °C 8,0 km/h (2 Bft)
05.09.2022 00:02 23,8 °C 17,9 °C 52 % 63 % 1022,1 hPa 0,0 l/m² 5,8 km/h (2 Bft) O 83 ° 0 min 0 W/m² 10,8 °C 17,9 °C 8,0 km/h (2 Bft)
05.09.2022 00:03 23,8 °C 17,9 °C 52 % 63 % 1022,0 hPa 0,0 l/m² 5,2 km/h (1 Bft) O-NO 65 ° 0 min 0 W/m² 10,8 °C 17,9 °C 8,0 km/h (2 Bft)
05.09.2022 00:05 23,7 °C 17,8 °C 52 % 63 % 1022,1 hPa 0,0 l/m² 5,0 km/h (1 Bft) O 85 ° 0 min 0 W/m² 10,7 °C 17,8 °C 9,7 km/h (2 Bft)
05.09.2022 00:07 23,7 °C 17,8 °C 52 % 63 % 1022,1 hPa 0,0 l/m² 5,4 km/h (2 Bft) O 84 ° 0 min 0 W/m² 10,7 °C 17,8 °C 8,0 km/h (2 Bft)
05.09.2022 00:09 23,7 °C 17,8 °C 52 % 63 % 1022,1 hPa 0,0 l/m² 5,0 km/h (1 Bft) O 82 ° 0 min 0 W/m² 10,7 °C 17,8 °C 6,4 km/h (2 Bft)
05.09.2022 00:10 23,7 °C 17,8 °C 52 % 63 % 1022,1 hPa 0,0 l/m² 5,8 km/h (2 Bft) O 82 ° 0 min 0 W/m² 10,7 °C 17,8 °C 8,0 km/h (2 Bft)
05.09.2022 00:12 23,7 °C 17,7 °C 52 % 63 % 1022,1 hPa 0,0 l/m² 5,9 km/h (2 Bft) O 86 ° 0 min 0 W/m² 10,6 °C 17,7 °C 11,3 km/h (2 Bft)
05.09.2022 00:13 23,7 °C 17,6 °C 52 % 63 % 1022,1 hPa 0,0 l/m² 5,6 km/h (2 Bft) O-NO 77 ° 0 min 0 W/m² 10,5 °C 17,6 °C 6,4 km/h (2 Bft)
05.09.2022 00:15 23,7 °C 17,6 °C 52 % 64 % 1022,1 hPa 0,0 l/m² 4,6 km/h (1 Bft) O 82 ° 0 min 0 W/m² 10,7 °C 17,6 °C 6,4 km/h (2 Bft)
05.09.2022 00:17 23,7 °C 17,5 °C 52 % 64 % 1022,1 hPa 0,0 l/m² 5,2 km/h (1 Bft) O 83 ° 0 min 0 W/m² 10,6 °C 17,5 °C 8,0 km/h (2 Bft)
05.09.2022 00:19 23,7 °C 17,5 °C 52 % 64 % 1022,1 hPa 0,0 l/m² 5,2 km/h (1 Bft) O-NO 77 ° 0 min 0 W/m² 10,6 °C 17,5 °C 6,4 km/h (2 Bft)
05.09.2022 00:21 23,7 °C 17,4 °C 52 % 64 % 1022,1 hPa 0,0 l/m² 5,4 km/h (2 Bft) O 84 ° 0 min 0 W/m² 10,5 °C 17,4 °C 8,0 km/h (2 Bft)
05.09.2022 00:22 23,7 °C 17,4 °C 52 % 64 % 1022,1 hPa 0,0 l/m² 5,5 km/h (2 Bft) O 79 ° 0 min 0 W/m² 10,5 °C 17,4 °C 6,4 km/h (2 Bft)
05.09.2022 00:23 23,7 °C 17,4 °C 52 % 64 % 1022,1 hPa 0,0 l/m² 4,8 km/h (1 Bft) O 81 ° 0 min 0 W/m² 10,5 °C 17,4 °C 6,4 km/h (2 Bft)
05.09.2022 00:25 23,7 °C 17,3 °C 52 % 65 % 1022,0 hPa 0,0 l/m² 5,9 km/h (2 Bft) O-NO 72 ° 0 min 0 W/m² 10,7 °C 17,3 °C 8,0 km/h (2 Bft)
05.09.2022 00:27 23,7 °C 17,3 °C 52 % 65 % 1022,0 hPa 0,0 l/m² 5,1 km/h (1 Bft) O 84 ° 0 min 0 W/m² 10,7 °C 17,3 °C 6,4 km/h (2 Bft)
05.09.2022 00:29 23,7 °C 17,3 °C 52 % 65 % 1022,1 hPa 0,0 l/m² 5,3 km/h (1 Bft) O-NO 76 ° 0 min 0 W/m² 10,7 °C 17,3 °C 6,4 km/h (2 Bft)
05.09.2022 00:31 23,7 °C 17,3 °C 52 % 65 % 1022,0 hPa 0,0 l/m² 5,2 km/h (1 Bft) O 79 ° 0 min 0 W/m² 10,7 °C 17,3 °C 8,0 km/h (2 Bft)
05.09.2022 00:32 23,7 °C 17,2 °C 52 % 65 % 1022,0 hPa 0,0 l/m² 4,1 km/h (1 Bft) O-NO 76 ° 0 min 0 W/m² 10,6 °C 17,2 °C 4,8 km/h (1 Bft)
05.09.2022 00:33 23,7 °C 17,2 °C 52 % 65 % 1022,1 hPa 0,0 l/m² 4,1 km/h (1 Bft) O-NO 69 ° 0 min 0 W/m² 10,6 °C 17,2 °C 6,4 km/h (2 Bft)
05.09.2022 00:35 23,7 °C 17,2 °C 52 % 65 % 1022,0 hPa 0,0 l/m² 4,2 km/h (1 Bft) O-NO 70 ° 0 min 0 W/m² 10,6 °C 17,2 °C 6,4 km/h (2 Bft)
05.09.2022 00:37 23,7 °C 17,2 °C 52 % 65 % 1022,0 hPa 0,0 l/m² 4,5 km/h (1 Bft) O-NO 68 ° 0 min 0 W/m² 10,6 °C 17,2 °C 8,0 km/h (2 Bft)
05.09.2022 00:39 23,7 °C 17,2 °C 52 % 65 % 1022,1 hPa 0,0 l/m² 5,0 km/h (1 Bft) O-NO 76 ° 0 min 0 W/m² 10,6 °C 17,2 °C 8,0 km/h (2 Bft)
05.09.2022 00:41 23,7 °C 17,2 °C 52 % 66 % 1022,1 hPa 0,0 l/m² 4,2 km/h (1 Bft) O-NO 78 ° 0 min 0 W/m² 10,8 °C 17,2 °C 6,4 km/h (2 Bft)
05.09.2022 00:42 23,7 °C 17,2 °C 52 % 66 % 1022,1 hPa 0,0 l/m² 3,8 km/h (1 Bft) O-NO 77 ° 0 min 0 W/m² 10,8 °C 17,2 °C 4,8 km/h (1 Bft)
05.09.2022 00:43 23,7 °C 17,1 °C 52 % 66 % 1022,0 hPa 0,0 l/m² 5,2 km/h (1 Bft) O-NO 74 ° 0 min 0 W/m² 10,7 °C 17,1 °C 8,0 km/h (2 Bft)
05.09.2022 00:45 23,7 °C 17,1 °C 52 % 66 % 1022,2 hPa 0,0 l/m² 4,4 km/h (1 Bft) O-NO 76 ° 0 min 0 W/m² 10,7 °C 17,1 °C 6,4 km/h (2 Bft)
05.09.2022 00:46 23,7 °C 17,1 °C 52 % 66 % 1022,1 hPa 0,0 l/m² 5,2 km/h (1 Bft) O-NO 63 ° 0 min 0 W/m² 10,7 °C 17,1 °C 6,4 km/h (2 Bft)
05.09.2022 00:47 23,7 °C 17,1 °C 52 % 66 % 1022,2 hPa 0,0 l/m² 4,3 km/h (1 Bft) O-NO 68 ° 0 min 0 W/m² 10,7 °C 17,1 °C 6,4 km/h (2 Bft)
05.09.2022 00:48 23,7 °C 17,1 °C 52 % 66 % 1022,2 hPa 0,0 l/m² 3,7 km/h (1 Bft) O 90 ° 0 min 0 W/m² 10,7 °C 17,1 °C 4,8 km/h (1 Bft)
05.09.2022 00:50 23,7 °C 17,1 °C 52 % 66 % 1022,2 hPa 0,0 l/m² 4,6 km/h (1 Bft) O 81 ° 0 min 0 W/m² 10,7 °C 17,1 °C 8,0 km/h (2 Bft)
05.09.2022 00:52 23,7 °C 17,1 °C 52 % 66 % 1022,3 hPa 0,0 l/m² 4,2 km/h (1 Bft) O 84 ° 0 min 0 W/m² 10,7 °C 17,1 °C 4,8 km/h (1 Bft)
05.09.2022 00:53 23,7 °C 17,0 °C 52 % 66 % 1022,2 hPa 0,0 l/m² 3,5 km/h (1 Bft) O 84 ° 0 min 0 W/m² 10,6 °C 17,0 °C 4,8 km/h (1 Bft)
05.09.2022 00:54 23,7 °C 16,9 °C 52 % 66 % 1022,3 hPa 0,0 l/m² 3,7 km/h (1 Bft) O 84 ° 0 min 0 W/m² 10,5 °C 16,9 °C 4,8 km/h (1 Bft)
05.09.2022 00:56 23,7 °C 17,0 °C 52 % 67 % 1022,4 hPa 0,0 l/m² 3,4 km/h (1 Bft) O 84 ° 0 min 0 W/m² 10,8 °C 17,0 °C 4,8 km/h (1 Bft)
05.09.2022 00:58 23,7 °C 16,9 °C 52 % 67 % 1022,4 hPa 0,0 l/m² 3,3 km/h (1 Bft) O 84 ° 0 min 0 W/m² 10,7 °C 16,9 °C 4,8 km/h (1 Bft)
05.09.2022 01:00 23,7 °C 16,9 °C 52 % 67 % 1022,3 hPa 0,0 l/m² 2,8 km/h (1 Bft) O 84 ° 0 min 0 W/m² 10,7 °C 16,9 °C 3,2 km/h (1 Bft)
05.09.2022 01:02 23,7 °C 16,9 °C 52 % 67 % 1022,3 hPa 0,0 l/m² 2,2 km/h (1 Bft) O 81 ° 0 min 0 W/m² 10,7 °C 16,9 °C 4,8 km/h (1 Bft)
05.09.2022 01:03 23,7 °C 16,9 °C 52 % 67 % 1022,3 hPa 0,0 l/m² 2,6 km/h (1 Bft) O 81 ° 0 min 0 W/m² 10,7 °C 16,9 °C 3,2 km/h (1 Bft)
05.09.2022 01:04 23,7 °C 16,9 °C 52 % 67 % 1022,3 hPa 0,0 l/m² 3,2 km/h (1 Bft) O 81 ° 0 min 0 W/m² 10,7 °C 16,9 °C 4,8 km/h (1 Bft)
05.09.2022 01:06 23,7 °C 16,8 °C 52 % 67 % 1022,3 hPa 0,0 l/m² 3,3 km/h (1 Bft) O-NO 76 ° 0 min 0 W/m² 10,6 °C 16,8 °C 4,8 km/h (1 Bft)
05.09.2022 01:08 23,7 °C 16,8 °C 52 % 67 % 1022,3 hPa 0,0 l/m² 3,4 km/h (1 Bft) O-NO 76 ° 0 min 0 W/m² 10,6 °C 16,8 °C 4,8 km/h (1 Bft)
05.09.2022 01:10 23,7 °C 16,8 °C 52 % 67 % 1022,2 hPa 0,0 l/m² 2,3 km/h (1 Bft) O-NO 76 ° 0 min 0 W/m² 10,6 °C 16,8 °C 4,8 km/h (1 Bft)
05.09.2022 01:12 23,7 °C 16,8 °C 52 % 67 % 1022,2 hPa 0,0 l/m² 2,7 km/h (1 Bft) O-NO 72 ° 0 min 0 W/m² 10,6 °C 16,8 °C 4,8 km/h (1 Bft)
05.09.2022 01:13 23,7 °C 16,8 °C 52 % 67 % 1022,2 hPa 0,0 l/m² 2,6 km/h (1 Bft) O-NO 77 ° 0 min 0 W/m² 10,6 °C 16,8 °C 3,2 km/h (1 Bft)
05.09.2022 01:15 23,7 °C 16,7 °C 52 % 68 % 1022,2 hPa 0,0 l/m² 2,8 km/h (1 Bft) O-NO 77 ° 0 min 0 W/m² 10,8 °C 16,7 °C 4,8 km/h (1 Bft)
05.09.2022 01:16 23,7 °C 16,7 °C 52 % 68 % 1022,2 hPa 0,0 l/m² 2,1 km/h (1 Bft) O-NO 77 ° 0 min 0 W/m² 10,8 °C 16,7 °C 3,2 km/h (1 Bft)
05.09.2022 01:18 23,7 °C 16,7 °C 52 % 68 % 1022,2 hPa 0,0 l/m² 2,7 km/h (1 Bft) O-NO 74 ° 0 min 0 W/m² 10,8 °C 16,7 °C 4,8 km/h (1 Bft)
05.09.2022 01:20 23,7 °C 16,7 °C 52 % 68 % 1022,2 hPa 0,0 l/m² 3,2 km/h (1 Bft) O-NO 72 ° 0 min 0 W/m² 10,8 °C 16,7 °C 4,8 km/h (1 Bft)
05.09.2022 01:22 23,7 °C 16,7 °C 52 % 68 % 1022,3 hPa 0,0 l/m² 2,0 km/h (1 Bft) O-NO 72 ° 0 min 0 W/m² 10,8 °C 16,7 °C 3,2 km/h (1 Bft)
05.09.2022 01:23 23,7 °C 16,6 °C 52 % 68 % 1022,3 hPa 0,0 l/m² 2,5 km/h (1 Bft) O-NO 72 ° 0 min 0 W/m² 10,7 °C 16,6 °C 3,2 km/h (1 Bft)
05.09.2022 01:24 23,6 °C 16,7 °C 52 % 68 % 1022,2 hPa 0,0 l/m² 1,3 km/h (1 Bft) O-NO 72 ° 0 min 0 W/m² 10,8 °C 16,7 °C 1,6 km/h (1 Bft)
05.09.2022 01:26 23,7 °C 16,6 °C 52 % 68 % 1022,3 hPa 0,0 l/m² 2,3 km/h (1 Bft) O-NO 76 ° 0 min 0 W/m² 10,7 °C 16,6 °C 3,2 km/h (1 Bft)
05.09.2022 01:28 23,6 °C 16,6 °C 52 % 68 % 1022,2 hPa 0,0 l/m² 1,4 km/h (1 Bft) O-NO 76 ° 0 min 0 W/m² 10,7 °C 16,6 °C 3,2 km/h (1 Bft)
05.09.2022 01:30 23,6 °C 16,6 °C 52 % 68 % 1022,2 hPa 0,0 l/m² 2,1 km/h (1 Bft) O-NO 76 ° 0 min 0 W/m² 10,7 °C 16,6 °C 3,2 km/h (1 Bft)
05.09.2022 01:32 23,6 °C 16,5 °C 52 % 69 % 1022,3 hPa 0,0 l/m² 3,1 km/h (1 Bft) O-NO 76 ° 0 min 0 W/m² 10,8 °C 16,5 °C 4,8 km/h (1 Bft)
05.09.2022 01:33 23,6 °C 16,4 °C 52 % 69 % 1022,3 hPa 0,0 l/m² 2,7 km/h (1 Bft) O-NO 76 ° 0 min 0 W/m² 10,7 °C 16,4 °C 3,2 km/h (1 Bft)
05.09.2022 01:34 23,6 °C 16,5 °C 52 % 69 % 1022,3 hPa 0,0 l/m² 2,9 km/h (1 Bft) O-NO 76 ° 0 min 0 W/m² 10,8 °C 16,5 °C 4,8 km/h (1 Bft)
05.09.2022 01:36 23,6 °C 16,4 °C 52 % 69 % 1022,2 hPa 0,0 l/m² 2,5 km/h (1 Bft) O-NO 76 ° 0 min 0 W/m² 10,7 °C 16,4 °C 3,2 km/h (1 Bft)
05.09.2022 01:38 23,7 °C 16,4 °C 52 % 69 % 1022,2 hPa 0,0 l/m² 2,9 km/h (1 Bft) O-NO 68 ° 0 min 0 W/m² 10,7 °C 16,4 °C 4,8 km/h (1 Bft)
05.09.2022 01:40 23,6 °C 16,4 °C 52 % 70 % 1022,2 hPa 0,0 l/m² 3,3 km/h (1 Bft) O-NO 65 ° 0 min 0 W/m² 10,9 °C 16,4 °C 4,8 km/h (1 Bft)
05.09.2022 01:42 23,6 °C 16,3 °C 52 % 69 % 1022,1 hPa 0,0 l/m² 4,3 km/h (1 Bft) O-NO 59 ° 0 min 0 W/m² 10,6 °C 16,3 °C 6,4 km/h (2 Bft)
05.09.2022 01:43 23,6 °C 16,3 °C 52 % 69 % 1022,1 hPa 0,0 l/m² 2,6 km/h (1 Bft) O-NO 74 ° 0 min 0 W/m² 10,6 °C 16,3 °C 4,8 km/h (1 Bft)
05.09.2022 01:44 23,6 °C 16,3 °C 52 % 70 % 1022,2 hPa 0,0 l/m² 3,8 km/h (1 Bft) O-NO 72 ° 0 min 0 W/m² 10,8 °C 16,3 °C 4,8 km/h (1 Bft)
05.09.2022 01:46 23,6 °C 16,3 °C 52 % 70 % 1022,2 hPa 0,0 l/m² 4,3 km/h (1 Bft) O-NO 70 ° 0 min 0 W/m² 10,8 °C 16,3 °C 6,4 km/h (2 Bft)
05.09.2022 01:48 23,6 °C 16,3 °C 52 % 69 % 1022,1 hPa 0,0 l/m² 4,3 km/h (1 Bft) O-NO 70 ° 0 min 0 W/m² 10,6 °C 16,3 °C 6,4 km/h (2 Bft)
05.09.2022 01:50 23,6 °C 16,2 °C 52 % 70 % 1022,1 hPa 0,0 l/m² 4,5 km/h (1 Bft) O 86 ° 0 min 0 W/m² 10,7 °C 16,2 °C 6,4 km/h (2 Bft)
05.09.2022 01:52 23,6 °C 16,2 °C 52 % 70 % 1022,3 hPa 0,0 l/m² 4,1 km/h (1 Bft) O 80 ° 0 min 0 W/m² 10,7 °C 16,2 °C 6,4 km/h (2 Bft)
05.09.2022 01:53 23,6 °C 16,2 °C 52 % 70 % 1022,3 hPa 0,0 l/m² 3,4 km/h (1 Bft) O 80 ° 0 min 0 W/m² 10,7 °C 16,2 °C 6,4 km/h (2 Bft)
05.09.2022 01:54 23,6 °C 16,1 °C 52 % 70 % 1022,2 hPa 0,0 l/m² 4,8 km/h (1 Bft) O-NO 61 ° 0 min 0 W/m² 10,6 °C 16,1 °C 8,0 km/h (2 Bft)
05.09.2022 01:56 23,6 °C 16,1 °C 52 % 71 % 1022,2 hPa 0,0 l/m² 4,3 km/h (1 Bft) O-NO 76 ° 0 min 0 W/m² 10,8 °C 16,1 °C 6,4 km/h (2 Bft)
05.09.2022 01:58 23,6 °C 16,1 °C 52 % 71 % 1022,2 hPa 0,0 l/m² 4,8 km/h (1 Bft) O-NO 78 ° 0 min 0 W/m² 10,8 °C 16,1 °C 8,0 km/h (2 Bft)
05.09.2022 02:00 23,6 °C 16,0 °C 52 % 71 % 1022,2 hPa 0,0 l/m² 4,4 km/h (1 Bft) O-NO 76 ° 0 min 0 W/m² 10,7 °C 16,0 °C 6,4 km/h (2 Bft)
05.09.2022 02:02 23,6 °C 16,0 °C 52 % 71 % 1022,2 hPa 0,0 l/m² 3,3 km/h (1 Bft) O-NO 76 ° 0 min 0 W/m² 10,7 °C 16,0 °C 4,8 km/h (1 Bft)
05.09.2022 02:03 23,6 °C 16,0 °C 52 % 71 % 1022,2 hPa 0,0 l/m² 3,3 km/h (1 Bft) O-NO 76 ° 0 min 0 W/m² 10,7 °C 16,0 °C 4,8 km/h (1 Bft)
05.09.2022 02:04 23,6 °C 15,9 °C 52 % 72 % 1022,2 hPa 0,0 l/m² 4,0 km/h (1 Bft) O 88 ° 0 min 0 W/m² 10,9 °C 15,9 °C 4,8 km/h (1 Bft)
05.09.2022 02:06 23,6 °C 15,9 °C 52 % 72 % 1022,2 hPa 0,0 l/m² 3,1 km/h (1 Bft) O 87 ° 0 min 0 W/m² 10,9 °C 15,9 °C 4,8 km/h (1 Bft)
05.09.2022 02:08 23,6 °C 15,9 °C 52 % 72 % 1022,2 hPa 0,0 l/m² 2,2 km/h (1 Bft) O 87 ° 0 min 0 W/m² 10,9 °C 15,9 °C 3,2 km/h (1 Bft)
05.09.2022 02:10 23,6 °C 15,9 °C 52 % 72 % 1022,3 hPa 0,0 l/m² 1,5 km/h (1 Bft) O 87 ° 0 min 0 W/m² 10,9 °C 15,9 °C 3,2 km/h (1 Bft)
05.09.2022 02:12 23,6 °C 15,9 °C 52 % 72 % 1022,2 hPa 0,0 l/m² 0,4 km/h (0 Bft) O 87 ° 0 min 0 W/m² 10,9 °C 15,9 °C 1,6 km/h (1 Bft)
05.09.2022 02:13 23,6 °C 15,9 °C 52 % 72 % 1022,2 hPa 0,0 l/m² 0,8 km/h (0 Bft) O 87 ° 0 min 0 W/m² 10,9 °C 15,9 °C 1,6 km/h (1 Bft)
05.09.2022 02:14 23,6 °C 15,9 °C 52 % 72 % 1022,2 hPa 0,0 l/m² 1,3 km/h (1 Bft) O 87 ° 0 min 0 W/m² 10,9 °C 15,9 °C 1,6 km/h (1 Bft)
05.09.2022 02:16 23,6 °C 15,9 °C 52 % 71 % 1022,3 hPa 0,0 l/m² 0,3 km/h (0 Bft) O 87 ° 0 min 0 W/m² 10,6 °C 15,9 °C 1,6 km/h (1 Bft)
05.09.2022 02:18 23,6 °C 15,8 °C 52 % 71 % 1022,2 hPa 0,0 l/m² 0,0 km/h (0 Bft) O 87 ° 0 min 0 W/m² 10,6 °C 15,8 °C 0,0 km/h (0 Bft)
05.09.2022 02:20 23,6 °C 15,8 °C 52 % 71 % 1022,2 hPa 0,0 l/m² 0,0 km/h (0 Bft) O 87 ° 0 min 0 W/m² 10,6 °C 15,8 °C 0,0 km/h (0 Bft)
05.09.2022 02:22 23,6 °C 15,8 °C 52 % 71 % 1022,2 hPa 0,0 l/m² 0,0 km/h (0 Bft) O 87 ° 0 min 0 W/m² 10,6 °C 15,8 °C 0,0 km/h (0 Bft)
05.09.2022 02:23 23,6 °C 15,8 °C 52 % 71 % 1022,2 hPa 0,0 l/m² 0,0 km/h (0 Bft) O 87 ° 0 min 0 W/m² 10,6 °C 15,8 °C 0,0 km/h (0 Bft)
05.09.2022 02:24 23,6 °C 15,8 °C 52 % 71 % 1022,2 hPa 0,0 l/m² 0,0 km/h (0 Bft) O 87 ° 0 min 0 W/m² 10,6 °C 15,8 °C 0,0 km/h (0 Bft)
05.09.2022 02:26 23,6 °C 15,8 °C 52 % 71 % 1022,2 hPa 0,0 l/m² 0,0 km/h (0 Bft) O 87 ° 0 min 0 W/m² 10,6 °C 15,8 °C 0,0 km/h (0 Bft)
05.09.2022 02:28 23,6 °C 15,7 °C 52 % 71 % 1022,2 hPa 0,0 l/m² 0,0 km/h (0 Bft) O 87 ° 0 min 0 W/m² 10,5 °C 15,7 °C 0,0 km/h (0 Bft)
05.09.2022 02:30 23,6 °C 15,7 °C 52 % 71 % 1022,2 hPa 0,0 l/m² 0,0 km/h (0 Bft) O 87 ° 0 min 0 W/m² 10,5 °C 15,7 °C 0,0 km/h (0 Bft)
05.09.2022 02:32 23,6 °C 15,7 °C 52 % 71 % 1022,2 hPa 0,0 l/m² 0,0 km/h (0 Bft) O 87 ° 0 min 0 W/m² 10,5 °C 15,7 °C 0,0 km/h (0 Bft)
05.09.2022 02:33 23,6 °C 15,6 °C 52 % 71 % 1022,2 hPa 0,0 l/m² 0,0 km/h (0 Bft) O 87 ° 0 min 0 W/m² 10,4 °C 15,6 °C 0,0 km/h (0 Bft)
05.09.2022 02:34 23,6 °C 15,6 °C 52 % 71 % 1022,3 hPa 0,0 l/m² 0,0 km/h (0 Bft) O 87 ° 0 min 0 W/m² 10,4 °C 15,6 °C 0,0 km/h (0 Bft)
05.09.2022 02:36 23,6 °C 15,6 °C 52 % 71 % 1022,3 hPa 0,0 l/m² 0,0 km/h (0 Bft) O 87 ° 0 min 0 W/m² 10,4 °C 15,6 °C 0,0 km/h (0 Bft)
05.09.2022 02:38 23,6 °C 15,5 °C 52 % 71 % 1022,2 hPa 0,0 l/m² 0,0 km/h (0 Bft) O 87 ° 0 min 0 W/m² 10,3 °C 15,5 °C 0,0 km/h (0 Bft)
05.09.2022 02:40 23,6 °C 15,5 °C 52 % 71 % 1022,3 hPa 0,0 l/m² 0,0 km/h (0 Bft) O 87 ° 0 min 0 W/m² 10,3 °C 15,5 °C 0,0 km/h (0 Bft)
05.09.2022 02:42 23,6 °C 15,4 °C 52 % 71 % 1022,2 hPa 0,0 l/m² 0,0 km/h (0 Bft) O 87 ° 0 min 0 W/m² 10,2 °C 15,4 °C 0,0 km/h (0 Bft)
05.09.2022 02:43 23,6 °C 15,4 °C 52 % 71 % 1022,2 hPa 0,0 l/m² 0,0 km/h (0 Bft) O 87 ° 0 min 0 W/m² 10,2 °C 15,4 °C 0,0 km/h (0 Bft)
05.09.2022 02:44 23,6 °C 15,4 °C 52 % 71 % 1022,3 hPa 0,0 l/m² 0,0 km/h (0 Bft) O 87 ° 0 min 0 W/m² 10,2 °C 15,4 °C 0,0 km/h (0 Bft)
05.09.2022 02:46 23,6 °C 15,4 °C 52 % 71 % 1022,4 hPa 0,0 l/m² 0,0 km/h (0 Bft) O 87 ° 0 min 0 W/m² 10,2 °C 15,4 °C 0,0 km/h (0 Bft)
05.09.2022 02:48 23,6 °C 15,3 °C 52 % 71 % 1022,2 hPa 0,0 l/m² 0,0 km/h (0 Bft) O 87 ° 0 min 0 W/m² 10,1 °C 15,3 °C 0,0 km/h (0 Bft)
05.09.2022 02:50 23,6 °C 15,3 °C 52 % 71 % 1022,2 hPa 0,0 l/m² 0,0 km/h (0 Bft) O 87 ° 0 min 0 W/m² 10,1 °C 15,3 °C 0,0 km/h (0 Bft)
05.09.2022 02:52 23,5 °C 15,3 °C 52 % 71 % 1022,4 hPa 0,0 l/m² 0,0 km/h (0 Bft) O 87 ° 0 min 0 W/m² 10,1 °C 15,3 °C 0,0 km/h (0 Bft)
05.09.2022 02:53 23,5 °C 15,2 °C 52 % 71 % 1022,4 hPa 0,0 l/m² 0,0 km/h (0 Bft) O 87 ° 0 min 0 W/m² 10,0 °C 15,2 °C 0,0 km/h (0 Bft)
05.09.2022 02:54 23,5 °C 15,2 °C 52 % 71 % 1022,2 hPa 0,0 l/m² 0,0 km/h (0 Bft) O 87 ° 0 min 0 W/m² 10,0 °C 15,2 °C 0,0 km/h (0 Bft)
05.09.2022 02:56 23,6 °C 15,1 °C 52 % 71 % 1022,2 hPa 0,0 l/m² 0,0 km/h (0 Bft) O 87 ° 0 min 0 W/m² 9,9 °C 15,1 °C 0,0 km/h (0 Bft)
05.09.2022 02:58 23,6 °C 15,1 °C 52 % 72 % 1022,4 hPa 0,0 l/m² 0,0 km/h (0 Bft) O 87 ° 0 min 0 W/m² 10,1 °C 15,1 °C 0,0 km/h (0 Bft)
05.09.2022 03:00 23,6 °C 15,1 °C 52 % 72 % 1022,4 hPa 0,0 l/m² 0,0 km/h (0 Bft) O 87 ° 0 min 0 W/m² 10,1 °C 15,1 °C 0,0 km/h (0 Bft)
05.09.2022 03:01 23,6 °C 15,1 °C 52 % 72 % 1022,4 hPa 0,0 l/m² 0,0 km/h (0 Bft) N 0 ° 0 min 0 W/m² 10,1 °C 15,1 °C 0,0 km/h (0 Bft)
05.09.2022 03:06 23,5 °C 14,9 °C 52 % 73 % 1022,4 hPa 0,0 l/m² 0,0 km/h (0 Bft) O 87 ° 0 min 0 W/m² 10,1 °C 14,9 °C 0,0 km/h (0 Bft)
05.09.2022 03:08 23,5 °C 14,8 °C 52 % 73 % 1022,4 hPa 0,0 l/m² 0,0 km/h (0 Bft) O 87 ° 0 min 0 W/m² 10,0 °C 14,8 °C 0,0 km/h (0 Bft)
05.09.2022 03:09 23,5 °C 14,8 °C 52 % 73 % 1022,4 hPa 0,0 l/m² 0,0 km/h (0 Bft) O 87 ° 0 min 0 W/m² 10,0 °C 14,8 °C 0,0 km/h (0 Bft)
05.09.2022 03:11 23,5 °C 14,8 °C 52 % 73 % 1022,4 hPa 0,0 l/m² 0,0 km/h (0 Bft) O 87 ° 0 min 0 W/m² 10,0 °C 14,8 °C 0,0 km/h (0 Bft)
05.09.2022 03:12 23,5 °C 14,8 °C 52 % 73 % 1022,4 hPa 0,0 l/m² 0,0 km/h (0 Bft) O 87 ° 0 min 0 W/m² 10,0 °C 14,8 °C 0,0 km/h (0 Bft)
05.09.2022 03:13 23,5 °C 14,8 °C 52 % 73 % 1022,5 hPa 0,0 l/m² 0,0 km/h (0 Bft) O 87 ° 0 min 0 W/m² 10,0 °C 14,8 °C 0,0 km/h (0 Bft)
05.09.2022 03:15 23,5 °C 14,7 °C 52 % 73 % 1022,4 hPa 0,0 l/m² 0,0 km/h (0 Bft) O 87 ° 0 min 0 W/m² 9,9 °C 14,7 °C 0,0 km/h (0 Bft)
05.09.2022 03:17 23,5 °C 14,7 °C 52 % 73 % 1022,5 hPa 0,0 l/m² 0,0 km/h (0 Bft) O 87 ° 0 min 0 W/m² 9,9 °C 14,7 °C 0,0 km/h (0 Bft)
05.09.2022 03:19 23,5 °C 14,6 °C 52 % 73 % 1022,4 hPa 0,0 l/m² 0,0 km/h (0 Bft) O 87 ° 0 min 0 W/m² 9,8 °C 14,6 °C 0,0 km/h (0 Bft)
05.09.2022 03:20 23,5 °C 14,6 °C 52 % 74 % 1022,4 hPa 0,0 l/m² 0,0 km/h (0 Bft) O 87 ° 0 min 0 W/m² 10,0 °C 14,6 °C 0,0 km/h (0 Bft)
05.09.2022 03:22 23,4 °C 14,6 °C 52 % 74 % 1022,6 hPa 0,0 l/m² 0,0 km/h (0 Bft) O 87 ° 0 min 0 W/m² 10,0 °C 14,6 °C 0,0 km/h (0 Bft)
05.09.2022 03:23 23,5 °C 14,6 °C 52 % 74 % 1022,4 hPa 0,0 l/m² 0,0 km/h (0 Bft) O 87 ° 0 min 0 W/m² 10,0 °C 14,6 °C 0,0 km/h (0 Bft)
05.09.2022 03:25 23,5 °C 14,5 °C 52 % 74 % 1022,5 hPa 0,0 l/m² 0,0 km/h (0 Bft) O 87 ° 0 min 0 W/m² 9,9 °C 14,5 °C 0,0 km/h (0 Bft)
05.09.2022 03:27 23,5 °C 14,4 °C 52 % 74 % 1022,5 hPa 0,0 l/m² 0,0 km/h (0 Bft) O 87 ° 0 min 0 W/m² 9,8 °C 14,4 °C 0,0 km/h (0 Bft)
05.09.2022 03:29 23,5 °C 14,4 °C 52 % 74 % 1022,5 hPa 0,0 l/m² 0,0 km/h (0 Bft) O 87 ° 0 min 0 W/m² 9,8 °C 14,4 °C 0,0 km/h (0 Bft)
05.09.2022 03:30 23,5 °C 14,3 °C 52 % 74 % 1022,5 hPa 0,0 l/m² 0,0 km/h (0 Bft) O 87 ° 0 min 0 W/m² 9,7 °C 14,3 °C 0,0 km/h (0 Bft)
05.09.2022 03:32 23,5 °C 14,3 °C 51 % 72 % 1022,5 hPa 0,0 l/m² 0,0 km/h (0 Bft) O 88 ° 0 min 0 W/m² 9,3 °C 14,3 °C 0,0 km/h (0 Bft)
05.09.2022 03:34 23,5 °C 14,1 °C 51 % 70 % 1022,5 hPa 0,0 l/m² 0,0 km/h (0 Bft) O 88 ° 0 min 0 W/m² 8,7 °C 14,1 °C 0,0 km/h (0 Bft)
05.09.2022 03:36 23,5 °C 14,0 °C 51 % 71 % 1022,5 hPa 0,0 l/m² 0,0 km/h (0 Bft) O-SO 104 ° 0 min 0 W/m² 8,8 °C 14,0 °C 0,0 km/h (0 Bft)
05.09.2022 03:38 23,4 °C 13,9 °C 51 % 72 % 1022,5 hPa 0,0 l/m² 0,0 km/h (0 Bft) O-SO 103 ° 0 min 0 W/m² 8,9 °C 13,9 °C 0,0 km/h (0 Bft)
05.09.2022 03:40 23,5 °C 13,8 °C 51 % 74 % 1022,5 hPa 0,0 l/m² 0,0 km/h (0 Bft) O-SO 104 ° 0 min 0 W/m² 9,2 °C 13,8 °C 0,0 km/h (0 Bft)
05.09.2022 03:41 23,4 °C 13,8 °C 51 % 74 % 1022,6 hPa 0,0 l/m² 0,0 km/h (0 Bft) O-SO 103 ° 0 min 0 W/m² 9,2 °C 13,8 °C 0,0 km/h (0 Bft)
05.09.2022 03:42 23,4 °C 13,8 °C 51 % 75 % 1022,5 hPa 0,0 l/m² 0,0 km/h (0 Bft) O-SO 103 ° 0 min 0 W/m² 9,4 °C 13,8 °C 0,0 km/h (0 Bft)
05.09.2022 03:44 23,4 °C 13,7 °C 51 % 75 % 1022,5 hPa 0,0 l/m² 0,0 km/h (0 Bft) O-SO 103 ° 0 min 0 W/m² 9,3 °C 13,7 °C 0,0 km/h (0 Bft)
05.09.2022 03:45 23,4 °C 13,7 °C 51 % 75 % 1022,5 hPa 0,0 l/m² 0,0 km/h (0 Bft) O-SO 103 ° 0 min 0 W/m² 9,3 °C 13,7 °C 0,0 km/h (0 Bft)
05.09.2022 03:46 23,4 °C 13,7 °C 51 % 75 % 1022,5 hPa 0,0 l/m² 0,0 km/h (0 Bft) O-SO 103 ° 0 min 0 W/m² 9,3 °C 13,7 °C 0,0 km/h (0 Bft)
05.09.2022 03:47 23,4 °C 13,7 °C 51 % 75 % 1022,5 hPa 0,0 l/m² 0,0 km/h (0 Bft) O-SO 103 ° 0 min 0 W/m² 9,3 °C 13,7 °C 0,0 km/h (0 Bft)
05.09.2022 03:49 23,4 °C 13,6 °C 51 % 75 % 1022,5 hPa 0,0 l/m² 0,0 km/h (0 Bft) O-SO 103 ° 0 min 0 W/m² 9,3 °C 13,6 °C 0,0 km/h (0 Bft)
05.09.2022 03:50 23,4 °C 13,6 °C 51 % 75 % 1022,5 hPa 0,0 l/m² 0,0 km/h (0 Bft) O-SO 103 ° 0 min 0 W/m² 9,3 °C 13,6 °C 0,0 km/h (0 Bft)
05.09.2022 03:52 23,4 °C 13,6 °C 51 % 75 % 1022,5 hPa 0,0 l/m² 0,0 km/h (0 Bft) O-SO 103 ° 0 min 0 W/m² 9,3 °C 13,6 °C 0,0 km/h (0 Bft)
05.09.2022 03:53 23,4 °C 13,5 °C 51 % 75 % 1022,5 hPa 0,0 l/m² 0,0 km/h (0 Bft) O-SO 103 ° 0 min 0 W/m² 9,2 °C 13,5 °C 0,0 km/h (0 Bft)
05.09.2022 03:55 23,4 °C 13,4 °C 51 % 75 % 1022,6 hPa 0,0 l/m² 0,0 km/h (0 Bft) O-SO 103 ° 0 min 0 W/m² 9,1 °C 13,4 °C 0,0 km/h (0 Bft)
05.09.2022 03:57 23,4 °C 13,4 °C 51 % 75 % 1022,5 hPa 0,0 l/m² 0,0 km/h (0 Bft) O-SO 103 ° 0 min 0 W/m² 9,1 °C 13,4 °C 0,0 km/h (0 Bft)
05.09.2022 03:59 23,4 °C 13,4 °C 51 % 75 % 1022,5 hPa 0,0 l/m² 0,0 km/h (0 Bft) O-SO 103 ° 0 min 0 W/m² 9,1 °C 13,4 °C 0,0 km/h (0 Bft)
05.09.2022 04:01 23,4 °C 13,3 °C 51 % 75 % 1022,6 hPa 0,0 l/m² 0,0 km/h (0 Bft) O-SO 103 ° 0 min 0 W/m² 9,0 °C 13,3 °C 0,0 km/h (0 Bft)
05.09.2022 04:02 23,4 °C 13,3 °C 51 % 75 % 1022,6 hPa 0,0 l/m² 0,0 km/h (0 Bft) O-SO 103 ° 0 min 0 W/m² 9,0 °C 13,3 °C 0,0 km/h (0 Bft)
05.09.2022 04:03 23,4 °C 13,3 °C 51 % 75 % 1022,5 hPa 0,0 l/m² 0,0 km/h (0 Bft) O-SO 103 ° 0 min 0 W/m² 9,0 °C 13,3 °C 0,0 km/h (0 Bft)
05.09.2022 04:05 23,4 °C 13,2 °C 51 % 75 % 1022,5 hPa 0,0 l/m² 0,0 km/h (0 Bft) O-SO 103 ° 0 min 0 W/m² 8,9 °C 13,2 °C 0,0 km/h (0 Bft)
05.09.2022 04:07 23,4 °C 13,2 °C 51 % 75 % 1022,5 hPa 0,0 l/m² 0,0 km/h (0 Bft) O-SO 103 ° 0 min 0 W/m² 8,9 °C 13,2 °C 0,0 km/h (0 Bft)
05.09.2022 04:09 23,4 °C 13,2 °C 51 % 75 % 1022,6 hPa 0,0 l/m² 0,0 km/h (0 Bft) O-SO 103 ° 0 min 0 W/m² 8,9 °C 13,2 °C 0,0 km/h (0 Bft)
05.09.2022 04:11 23,4 °C 13,1 °C 51 % 75 % 1022,5 hPa 0,0 l/m² 0,0 km/h (0 Bft) O-SO 103 ° 0 min 0 W/m² 8,8 °C 13,1 °C 0,0 km/h (0 Bft)
05.09.2022 04:12 23,4 °C 13,1 °C 51 % 75 % 1022,5 hPa 0,0 l/m² 0,0 km/h (0 Bft) O-SO 103 ° 0 min 0 W/m² 8,8 °C 13,1 °C 0,0 km/h (0 Bft)
05.09.2022 04:13 23,4 °C 13,1 °C 51 % 75 % 1022,4 hPa 0,0 l/m² 0,0 km/h (0 Bft) O-SO 103 ° 0 min 0 W/m² 8,8 °C 13,1 °C 0,0 km/h (0 Bft)
05.09.2022 04:15 23,4 °C 13,1 °C 51 % 75 % 1022,5 hPa 0,0 l/m² 0,0 km/h (0 Bft) O-SO 103 ° 0 min 0 W/m² 8,8 °C 13,1 °C 0,0 km/h (0 Bft)
05.09.2022 04:17 23,4 °C 13,1 °C 51 % 75 % 1022,6 hPa 0,0 l/m² 0,0 km/h (0 Bft) O-SO 103 ° 0 min 0 W/m² 8,8 °C 13,1 °C 0,0 km/h (0 Bft)
05.09.2022 04:19 23,4 °C 13,0 °C 51 % 75 % 1022,5 hPa 0,0 l/m² 0,0 km/h (0 Bft) O-SO 103 ° 0 min 0 W/m² 8,7 °C 13,0 °C 0,0 km/h (0 Bft)
05.09.2022 04:21 23,4 °C 13,0 °C 51 % 76 % 1022,6 hPa 0,0 l/m² 0,0 km/h (0 Bft) O-SO 103 ° 0 min 0 W/m² 8,9 °C 13,0 °C 0,0 km/h (0 Bft)
05.09.2022 04:22 23,4 °C 13,0 °C 51 % 77 % 1022,5 hPa 0,0 l/m² 0,0 km/h (0 Bft) O-SO 103 ° 0 min 0 W/m² 9,1 °C 13,0 °C 0,0 km/h (0 Bft)
05.09.2022 04:23 23,4 °C 13,0 °C 51 % 77 % 1022,5 hPa 0,0 l/m² 0,0 km/h (0 Bft) O-SO 103 ° 0 min 0 W/m² 9,1 °C 13,0 °C 0,0 km/h (0 Bft)
05.09.2022 04:25 23,4 °C 13,0 °C 51 % 78 % 1022,5 hPa 0,0 l/m² 0,0 km/h (0 Bft) O-SO 103 ° 0 min 0 W/m² 9,3 °C 13,0 °C 0,0 km/h (0 Bft)
05.09.2022 04:27 23,4 °C 13,0 °C 51 % 79 % 1022,5 hPa 0,0 l/m² 0,0 km/h (0 Bft) O-SO 103 ° 0 min 0 W/m² 9,4 °C 13,0 °C 0,0 km/h (0 Bft)
05.09.2022 04:29 23,4 °C 12,9 °C 51 % 79 % 1022,5 hPa 0,0 l/m² 0,0 km/h (0 Bft) O-SO 103 ° 0 min 0 W/m² 9,3 °C 12,9 °C 0,0 km/h (0 Bft)
05.09.2022 04:31 23,4 °C 12,9 °C 51 % 79 % 1022,6 hPa 0,0 l/m² 0,0 km/h (0 Bft) O-SO 103 ° 0 min 0 W/m² 9,3 °C 12,9 °C 0,0 km/h (0 Bft)
05.09.2022 04:32 23,4 °C 12,9 °C 51 % 79 % 1022,5 hPa 0,0 l/m² 0,0 km/h (0 Bft) O-SO 103 ° 0 min 0 W/m² 9,3 °C 12,9 °C 0,0 km/h (0 Bft)
05.09.2022 04:33 23,4 °C 12,9 °C 51 % 79 % 1022,5 hPa 0,0 l/m² 0,0 km/h (0 Bft) O-SO 103 ° 0 min 0 W/m² 9,3 °C 12,9 °C 0,0 km/h (0 Bft)
05.09.2022 04:35 23,4 °C 12,9 °C 51 % 79 % 1022,5 hPa 0,0 l/m² 0,0 km/h (0 Bft) O-SO 103 ° 0 min 0 W/m² 9,3 °C 12,9 °C 0,0 km/h (0 Bft)
05.09.2022 04:37 23,4 °C 12,8 °C 51 % 79 % 1022,5 hPa 0,0 l/m² 0,0 km/h (0 Bft) O-SO 103 ° 0 min 0 W/m² 9,2 °C 12,8 °C 0,0 km/h (0 Bft)
05.09.2022 04:39 23,4 °C 12,8 °C 51 % 79 % 1022,5 hPa 0,0 l/m² 0,0 km/h (0 Bft) O-SO 103 ° 0 min 0 W/m² 9,2 °C 12,8 °C 0,0 km/h (0 Bft)
05.09.2022 04:41 23,4 °C 12,8 °C 51 % 79 % 1022,5 hPa 0,0 l/m² 0,0 km/h (0 Bft) O-SO 103 ° 0 min 0 W/m² 9,2 °C 12,8 °C 0,0 km/h (0 Bft)
05.09.2022 04:42 23,4 °C 12,8 °C 51 % 79 % 1022,6 hPa 0,0 l/m² 0,0 km/h (0 Bft) O-SO 103 ° 0 min 0 W/m² 9,2 °C 12,8 °C 0,0 km/h (0 Bft)
05.09.2022 04:43 23,4 °C 12,8 °C 51 % 78 % 1022,6 hPa 0,0 l/m² 0,0 km/h (0 Bft) O-SO 103 ° 0 min 0 W/m² 9,1 °C 12,8 °C 0,0 km/h (0 Bft)
05.09.2022 04:45 23,4 °C 12,8 °C 51 % 78 % 1022,5 hPa 0,0 l/m² 0,0 km/h (0 Bft) O-SO 103 ° 0 min 0 W/m² 9,1 °C 12,8 °C 0,0 km/h (0 Bft)
05.09.2022 04:47 23,4 °C 12,8 °C 51 % 79 % 1022,5 hPa 0,0 l/m² 0,0 km/h (0 Bft) O-SO 103 ° 0 min 0 W/m² 9,2 °C 12,8 °C 0,0 km/h (0 Bft)
05.09.2022 04:49 23,3 °C 12,8 °C 51 % 79 % 1022,6 hPa 0,0 l/m² 0,0 km/h (0 Bft) O-SO 103 ° 0 min 0 W/m² 9,2 °C 12,8 °C 0,0 km/h (0 Bft)
05.09.2022 04:51 23,4 °C 12,7 °C 51 % 79 % 1022,5 hPa 0,0 l/m² 0,0 km/h (0 Bft) O-SO 103 ° 0 min 0 W/m² 9,2 °C 12,7 °C 0,0 km/h (0 Bft)
05.09.2022 04:52 23,4 °C 12,7 °C 51 % 78 % 1022,6 hPa 0,0 l/m² 0,0 km/h (0 Bft) O-SO 103 ° 0 min 0 W/m² 9,0 °C 12,7 °C 0,0 km/h (0 Bft)
05.09.2022 04:53 23,4 °C 12,7 °C 51 % 78 % 1022,6 hPa 0,0 l/m² 0,0 km/h (0 Bft) O-SO 103 ° 0 min 0 W/m² 9,0 °C 12,7 °C 0,0 km/h (0 Bft)
05.09.2022 04:55 23,4 °C 12,7 °C 51 % 79 % 1022,4 hPa 0,0 l/m² 0,0 km/h (0 Bft) O-SO 103 ° 0 min 0 W/m² 9,2 °C 12,7 °C 0,0 km/h (0 Bft)
05.09.2022 04:57 23,4 °C 12,7 °C 51 % 79 % 1022,5 hPa 0,0 l/m² 0,0 km/h (0 Bft) O-SO 103 ° 0 min 0 W/m² 9,2 °C 12,7 °C 0,0 km/h (0 Bft)
05.09.2022 04:59 23,4 °C 12,7 °C 51 % 79 % 1022,5 hPa 0,0 l/m² 0,0 km/h (0 Bft) O-SO 103 ° 0 min 0 W/m² 9,2 °C 12,7 °C 0,0 km/h (0 Bft)
05.09.2022 05:01 23,4 °C 12,6 °C 51 % 80 % 1022,5 hPa 0,0 l/m² 0,0 km/h (0 Bft) O-SO 103 ° 0 min 0 W/m² 9,2 °C 12,6 °C 0,0 km/h (0 Bft)
05.09.2022 05:02 23,3 °C 12,6 °C 51 % 80 % 1022,5 hPa 0,0 l/m² 0,0 km/h (0 Bft) O-SO 103 ° 0 min 0 W/m² 9,2 °C 12,6 °C 0,0 km/h (0 Bft)
05.09.2022 05:03 23,3 °C 12,6 °C 51 % 80 % 1022,5 hPa 0,0 l/m² 0,0 km/h (0 Bft) O-SO 103 ° 0 min 0 W/m² 9,2 °C 12,6 °C 0,0 km/h (0 Bft)
05.09.2022 05:05 23,3 °C 12,6 °C 51 % 79 % 1022,5 hPa 0,0 l/m² 0,0 km/h (0 Bft) O-SO 103 ° 0 min 0 W/m² 9,1 °C 12,6 °C 0,0 km/h (0 Bft)
05.09.2022 05:07 23,4 °C 12,6 °C 51 % 79 % 1022,5 hPa 0,0 l/m² 0,0 km/h (0 Bft) O-SO 103 ° 0 min 0 W/m² 9,1 °C 12,6 °C 0,0 km/h (0 Bft)
05.09.2022 05:09 23,3 °C 12,5 °C 51 % 79 % 1022,5 hPa 0,0 l/m² 0,0 km/h (0 Bft) O-SO 103 ° 0 min 0 W/m² 9,0 °C 12,5 °C 0,0 km/h (0 Bft)
05.09.2022 05:11 23,4 °C 12,5 °C 51 % 79 % 1022,4 hPa 0,0 l/m² 0,0 km/h (0 Bft) O-SO 103 ° 0 min 0 W/m² 9,0 °C 12,5 °C 0,0 km/h (0 Bft)
05.09.2022 05:12 23,3 °C 12,5 °C 51 % 79 % 1022,5 hPa 0,0 l/m² 0,0 km/h (0 Bft) O-SO 103 ° 0 min 0 W/m² 9,0 °C 12,5 °C 0,0 km/h (0 Bft)
05.09.2022 05:13 23,3 °C 12,4 °C 51 % 79 % 1022,5 hPa 0,0 l/m² 0,0 km/h (0 Bft) O-SO 103 ° 0 min 0 W/m² 8,9 °C 12,4 °C 0,0 km/h (0 Bft)
05.09.2022 05:15 23,3 °C 12,4 °C 51 % 79 % 1022,4 hPa 0,0 l/m² 0,0 km/h (0 Bft) O-SO 103 ° 0 min 0 W/m² 8,9 °C 12,4 °C 0,0 km/h (0 Bft)
05.09.2022 05:17 23,3 °C 12,4 °C 51 % 80 % 1022,5 hPa 0,0 l/m² 0,0 km/h (0 Bft) O-SO 103 ° 0 min 0 W/m² 9,0 °C 12,4 °C 0,0 km/h (0 Bft)
05.09.2022 05:19 23,3 °C 12,4 °C 51 % 80 % 1022,5 hPa 0,0 l/m² 0,0 km/h (0 Bft) O-SO 103 ° 0 min 0 W/m² 9,0 °C 12,4 °C 0,0 km/h (0 Bft)
05.09.2022 05:21 23,3 °C 12,4 °C 51 % 80 % 1022,4 hPa 0,0 l/m² 0,0 km/h (0 Bft) O-SO 103 ° 0 min 0 W/m² 9,0 °C 12,4 °C 0,0 km/h (0 Bft)
05.09.2022 05:22 23,3 °C 12,3 °C 51 % 80 % 1022,5 hPa 0,0 l/m² 0,0 km/h (0 Bft) O-SO 103 ° 0 min 0 W/m² 8,9 °C 12,3 °C 0,0 km/h (0 Bft)
05.09.2022 05:23 23,3 °C 12,4 °C 51 % 80 % 1022,5 hPa 0,0 l/m² 0,0 km/h (0 Bft) O-SO 103 ° 0 min 0 W/m² 9,0 °C 12,4 °C 0,0 km/h (0 Bft)
05.09.2022 05:25 23,3 °C 12,3 °C 51 % 80 % 1022,5 hPa 0,0 l/m² 0,0 km/h (0 Bft) O-SO 103 ° 0 min 0 W/m² 8,9 °C 12,3 °C 0,0 km/h (0 Bft)
05.09.2022 05:27 23,3 °C 12,3 °C 51 % 80 % 1022,5 hPa 0,0 l/m² 0,0 km/h (0 Bft) O-SO 103 ° 0 min 0 W/m² 8,9 °C 12,3 °C 0,0 km/h (0 Bft)
05.09.2022 05:29 23,3 °C 12,3 °C 50 % 80 % 1022,5 hPa 0,0 l/m² 0,0 km/h (0 Bft) O-SO 103 ° 0 min 0 W/m² 8,9 °C 12,3 °C 0,0 km/h (0 Bft)
05.09.2022 05:31 23,3 °C 12,3 °C 50 % 80 % 1022,4 hPa 0,0 l/m² 0,0 km/h (0 Bft) O-SO 103 ° 0 min 0 W/m² 8,9 °C 12,3 °C 0,0 km/h (0 Bft)
05.09.2022 05:32 23,3 °C 12,3 °C 50 % 80 % 1022,4 hPa 0,0 l/m² 0,0 km/h (0 Bft) O-SO 103 ° 0 min 0 W/m² 8,9 °C 12,3 °C 0,0 km/h (0 Bft)
05.09.2022 05:33 23,3 °C 12,3 °C 51 % 80 % 1022,4 hPa 0,0 l/m² 0,0 km/h (0 Bft) O-SO 103 ° 0 min 0 W/m² 8,9 °C 12,3 °C 0,0 km/h (0 Bft)
05.09.2022 05:34 23,3 °C 12,3 °C 51 % 80 % 1022,4 hPa 0,0 l/m² 0,0 km/h (0 Bft) O-SO 103 ° 0 min 0 W/m² 8,9 °C 12,3 °C 0,0 km/h (0 Bft)
05.09.2022 05:36 23,3 °C 12,3 °C 51 % 81 % 1022,5 hPa 0,0 l/m² 0,0 km/h (0 Bft) O-SO 103 ° 0 min 0 W/m² 9,1 °C 12,3 °C 0,0 km/h (0 Bft)
05.09.2022 05:38 23,3 °C 12,3 °C 50 % 81 % 1022,4 hPa 0,0 l/m² 0,0 km/h (0 Bft) O-SO 103 ° 0 min 0 W/m² 9,1 °C 12,3 °C 0,0 km/h (0 Bft)
05.09.2022 05:40 23,3 °C 12,2 °C 50 % 81 % 1022,4 hPa 0,0 l/m² 0,0 km/h (0 Bft) O-SO 103 ° 0 min 0 W/m² 9,0 °C 12,2 °C 0,0 km/h (0 Bft)
05.09.2022 05:41 23,3 °C 12,2 °C 50 % 81 % 1022,4 hPa 0,0 l/m² 0,0 km/h (0 Bft) O-SO 103 ° 0 min 0 W/m² 9,0 °C 12,2 °C 0,0 km/h (0 Bft)
05.09.2022 05:43 23,3 °C 12,2 °C 50 % 81 % 1022,4 hPa 0,0 l/m² 0,0 km/h (0 Bft) O-SO 103 ° 0 min 0 W/m² 9,0 °C 12,2 °C 0,0 km/h (0 Bft)
05.09.2022 05:44 23,3 °C 12,2 °C 50 % 81 % 1022,4 hPa 0,0 l/m² 0,0 km/h (0 Bft) O-SO 103 ° 0 min 0 W/m² 9,0 °C 12,2 °C 0,0 km/h (0 Bft)
05.09.2022 05:46 23,3 °C 12,2 °C 50 % 81 % 1022,4 hPa 0,0 l/m² 0,0 km/h (0 Bft) O-SO 103 ° 0 min 0 W/m² 9,0 °C 12,2 °C 0,0 km/h (0 Bft)
05.09.2022 05:48 23,3 °C 12,1 °C 50 % 81 % 1022,4 hPa 0,0 l/m² 0,0 km/h (0 Bft) O-SO 103 ° 0 min 0 W/m² 8,9 °C 12,1 °C 0,0 km/h (0 Bft)
05.09.2022 05:50 23,3 °C 12,1 °C 50 % 81 % 1022,4 hPa 0,0 l/m² 0,0 km/h (0 Bft) O-SO 103 ° 0 min 0 W/m² 8,9 °C 12,1 °C 0,0 km/h (0 Bft)
05.09.2022 05:51 23,3 °C 12,1 °C 50 % 81 % 1022,3 hPa 0,0 l/m² 0,0 km/h (0 Bft) O-SO 103 ° 0 min 0 W/m² 8,9 °C 12,1 °C 0,0 km/h (0 Bft)
05.09.2022 05:53 23,3 °C 12,1 °C 50 % 81 % 1022,4 hPa 0,0 l/m² 0,0 km/h (0 Bft) O-SO 103 ° 0 min 0 W/m² 8,9 °C 12,1 °C 0,0 km/h (0 Bft)
05.09.2022 05:55 23,3 °C 12,1 °C 50 % 81 % 1022,4 hPa 0,0 l/m² 0,0 km/h (0 Bft) O-SO 103 ° 0 min 0 W/m² 8,9 °C 12,1 °C 0,0 km/h (0 Bft)
05.09.2022 05:57 23,3 °C 12,0 °C 50 % 81 % 1022,4 hPa 0,0 l/m² 0,0 km/h (0 Bft) O-SO 103 ° 0 min 0 W/m² 8,8 °C 12,0 °C 0,0 km/h (0 Bft)
05.09.2022 05:59 23,3 °C 12,0 °C 50 % 81 % 1022,4 hPa 0,0 l/m² 0,0 km/h (0 Bft) O-SO 103 ° 0 min 0 W/m² 8,8 °C 12,0 °C 0,0 km/h (0 Bft)
05.09.2022 06:01 23,3 °C 11,9 °C 50 % 81 % 1022,4 hPa 0,0 l/m² 0,0 km/h (0 Bft) O-SO 103 ° 0 min 0 W/m² 8,7 °C 11,9 °C 0,0 km/h (0 Bft)
05.09.2022 06:02 23,3 °C 11,9 °C 50 % 81 % 1022,5 hPa 0,0 l/m² 0,0 km/h (0 Bft) O-SO 103 ° 0 min 0 W/m² 8,7 °C 11,9 °C 0,0 km/h (0 Bft)
05.09.2022 06:03 23,3 °C 11,9 °C 50 % 81 % 1022,5 hPa 0,0 l/m² 0,0 km/h (0 Bft) O-SO 103 ° 0 min 0 W/m² 8,7 °C 11,9 °C 0,0 km/h (0 Bft)
05.09.2022 06:05 23,3 °C 11,9 °C 50 % 81 % 1022,4 hPa 0,0 l/m² 0,0 km/h (0 Bft) O-SO 103 ° 0 min 0 W/m² 8,7 °C 11,9 °C 0,0 km/h (0 Bft)
05.09.2022 06:07 23,3 °C 11,9 °C 51 % 81 % 1022,4 hPa 0,0 l/m² 0,0 km/h (0 Bft) O-SO 103 ° 0 min 0 W/m² 8,7 °C 11,9 °C 0,0 km/h (0 Bft)
05.09.2022 06:09 23,3 °C 11,8 °C 51 % 81 % 1022,4 hPa 0,0 l/m² 0,0 km/h (0 Bft) O-SO 103 ° 0 min 0 W/m² 8,6 °C 11,8 °C 0,0 km/h (0 Bft)
05.09.2022 06:11 23,3 °C 11,9 °C 51 % 81 % 1022,5 hPa 0,0 l/m² 0,0 km/h (0 Bft) O-SO 103 ° 0 min 0 W/m² 8,7 °C 11,9 °C 0,0 km/h (0 Bft)
05.09.2022 06:12 23,3 °C 11,8 °C 51 % 81 % 1022,5 hPa 0,0 l/m² 0,0 km/h (0 Bft) O-SO 103 ° 0 min 0 W/m² 8,6 °C 11,8 °C 0,0 km/h (0 Bft)
05.09.2022 06:13 23,3 °C 11,8 °C 51 % 81 % 1022,5 hPa 0,0 l/m² 0,0 km/h (0 Bft) O-SO 103 ° 0 min 0 W/m² 8,6 °C 11,8 °C 0,0 km/h (0 Bft)
05.09.2022 06:15 23,3 °C 11,8 °C 51 % 82 % 1022,4 hPa 0,0 l/m² 0,0 km/h (0 Bft) O-SO 103 ° 0 min 0 W/m² 8,8 °C 11,8 °C 0,0 km/h (0 Bft)
05.09.2022 06:17 23,3 °C 11,8 °C 51 % 82 % 1022,4 hPa 0,0 l/m² 0,0 km/h (0 Bft) O-SO 103 ° 0 min 0 W/m² 8,8 °C 11,8 °C 0,0 km/h (0 Bft)
05.09.2022 06:19 23,3 °C 11,8 °C 50 % 82 % 1022,4 hPa 0,0 l/m² 0,0 km/h (0 Bft) O-SO 103 ° 0 min 0 W/m² 8,8 °C 11,8 °C 0,0 km/h (0 Bft)
05.09.2022 06:21 23,3 °C 11,7 °C 50 % 82 % 1022,5 hPa 0,0 l/m² 0,0 km/h (0 Bft) O-SO 103 ° 0 min 0 W/m² 8,7 °C 11,7 °C 0,0 km/h (0 Bft)
05.09.2022 06:22 23,3 °C 11,7 °C 50 % 82 % 1022,5 hPa 0,0 l/m² 0,0 km/h (0 Bft) O-SO 103 ° 0 min 0 W/m² 8,7 °C 11,7 °C 0,0 km/h (0 Bft)
05.09.2022 06:23 23,3 °C 11,7 °C 50 % 82 % 1022,5 hPa 0,0 l/m² 0,0 km/h (0 Bft) O-SO 103 ° 0 min 0 W/m² 8,7 °C 11,7 °C 0,0 km/h (0 Bft)
05.09.2022 06:25 23,3 °C 11,7 °C 50 % 82 % 1022,6 hPa 0,0 l/m² 0,0 km/h (0 Bft) O-SO 103 ° 0 min 5 W/m² 8,7 °C 11,7 °C 0,0 km/h (0 Bft)
05.09.2022 06:27 23,3 °C 11,6 °C 50 % 82 % 1022,5 hPa 0,0 l/m² 0,0 km/h (0 Bft) O-SO 103 ° 0 min 0 W/m² 8,6 °C 11,6 °C 0,0 km/h (0 Bft)
05.09.2022 06:29 23,3 °C 11,6 °C 50 % 82 % 1022,6 hPa 0,0 l/m² 0,0 km/h (0 Bft) O-SO 103 ° 0 min 0 W/m² 8,6 °C 11,6 °C 0,0 km/h (0 Bft)
05.09.2022 06:31 23,3 °C 11,6 °C 50 % 83 % 1022,6 hPa 0,0 l/m² 0,0 km/h (0 Bft) O 98 ° 0 min 5 W/m² 8,8 °C 11,6 °C 0,0 km/h (0 Bft)
05.09.2022 06:32 23,3 °C 11,6 °C 50 % 83 % 1022,6 hPa 0,0 l/m² 0,0 km/h (0 Bft) O 98 ° 0 min 5 W/m² 8,8 °C 11,6 °C 0,0 km/h (0 Bft)
05.09.2022 06:33 23,3 °C 11,6 °C 50 % 83 % 1022,6 hPa 0,0 l/m² 0,0 km/h (0 Bft) O 98 ° 0 min 5 W/m² 8,8 °C 11,6 °C 0,0 km/h (0 Bft)
05.09.2022 06:35 23,3 °C 11,6 °C 50 % 83 % 1022,6 hPa 0,0 l/m² 0,0 km/h (0 Bft) O 98 ° 0 min 7 W/m² 8,8 °C 11,6 °C 0,0 km/h (0 Bft)
05.09.2022 06:37 23,3 °C 11,5 °C 50 % 83 % 1022,7 hPa 0,0 l/m² 0,0 km/h (0 Bft) O 98 ° 0 min 9 W/m² 8,7 °C 11,5 °C 0,0 km/h (0 Bft)
05.09.2022 06:39 23,3 °C 11,5 °C 50 % 83 % 1022,6 hPa 0,0 l/m² 0,0 km/h (0 Bft) O 98 ° 0 min 12 W/m² 8,7 °C 11,5 °C 0,0 km/h (0 Bft)
05.09.2022 06:41 23,3 °C 11,5 °C 50 % 83 % 1022,6 hPa 0,0 l/m² 0,0 km/h (0 Bft) O 98 ° 0 min 14 W/m² 8,7 °C 11,5 °C 0,0 km/h (0 Bft)
05.09.2022 06:42 23,3 °C 11,5 °C 50 % 83 % 1022,7 hPa 0,0 l/m² 0,0 km/h (0 Bft) O 98 ° 0 min 14 W/m² 8,7 °C 11,5 °C 0,0 km/h (0 Bft)
05.09.2022 06:43 23,3 °C 11,5 °C 50 % 83 % 1022,7 hPa 0,0 l/m² 0,0 km/h (0 Bft) O 98 ° 0 min 16 W/m² 8,7 °C 11,5 °C 0,0 km/h (0 Bft)
05.09.2022 06:45 23,3 °C 11,4 °C 50 % 83 % 1022,7 hPa 0,0 l/m² 0,0 km/h (0 Bft) O 98 ° 0 min 18 W/m² 8,6 °C 11,4 °C 0,0 km/h (0 Bft)
05.09.2022 06:46 23,3 °C 11,4 °C 50 % 83 % 1022,7 hPa 0,0 l/m² 0,0 km/h (0 Bft) O 98 ° 0 min 18 W/m² 8,6 °C 11,4 °C 0,0 km/h (0 Bft)
05.09.2022 06:47 23,3 °C 11,5 °C 50 % 83 % 1022,6 hPa 0,0 l/m² 0,0 km/h (0 Bft) O 98 ° 0 min 19 W/m² 8,7 °C 11,5 °C 0,0 km/h (0 Bft)
05.09.2022 06:48 23,3 °C 11,4 °C 50 % 83 % 1022,6 hPa 0,0 l/m² 0,0 km/h (0 Bft) O 98 ° 0 min 19 W/m² 8,6 °C 11,4 °C 0,0 km/h (0 Bft)
05.09.2022 06:50 23,3 °C 11,4 °C 50 % 82 % 1022,7 hPa 0,0 l/m² 0,0 km/h (0 Bft) O 98 ° 0 min 21 W/m² 8,4 °C 11,4 °C 0,0 km/h (0 Bft)
05.09.2022 06:51 23,3 °C 11,4 °C 50 % 82 % 1022,7 hPa 0,0 l/m² 0,0 km/h (0 Bft) O 98 ° 0 min 21 W/m² 8,4 °C 11,4 °C 0,0 km/h (0 Bft)
05.09.2022 06:53 23,3 °C 11,4 °C 50 % 83 % 1022,7 hPa 0,0 l/m² 0,0 km/h (0 Bft) O 98 ° 0 min 23 W/m² 8,6 °C 11,4 °C 0,0 km/h (0 Bft)
05.09.2022 06:55 23,3 °C 11,4 °C 50 % 83 % 1022,7 hPa 0,0 l/m² 0,0 km/h (0 Bft) O 98 ° 0 min 25 W/m² 8,6 °C 11,4 °C 0,0 km/h (0 Bft)
05.09.2022 06:57 23,3 °C 11,4 °C 50 % 83 % 1022,8 hPa 0,0 l/m² 0,0 km/h (0 Bft) O 98 ° 0 min 26 W/m² 8,6 °C 11,4 °C 0,0 km/h (0 Bft)
05.09.2022 06:59 23,3 °C 11,3 °C 50 % 83 % 1022,8 hPa 0,0 l/m² 0,0 km/h (0 Bft) O 98 ° 0 min 28 W/m² 8,5 °C 11,3 °C 0,0 km/h (0 Bft)
05.09.2022 07:01 23,3 °C 11,3 °C 50 % 83 % 1022,9 hPa 0,0 l/m² 0,0 km/h (0 Bft) O 98 ° 0 min 30 W/m² 8,5 °C 11,3 °C 0,0 km/h (0 Bft)
05.09.2022 07:02 23,3 °C 11,3 °C 50 % 83 % 1022,8 hPa 0,0 l/m² 0,0 km/h (0 Bft) O 98 ° 0 min 33 W/m² 8,5 °C 11,3 °C 0,0 km/h (0 Bft)
05.09.2022 07:03 23,3 °C 11,3 °C 50 % 83 % 1022,8 hPa 0,0 l/m² 0,0 km/h (0 Bft) O 98 ° 0 min 33 W/m² 8,5 °C 11,3 °C 0,0 km/h (0 Bft)
05.09.2022 07:05 23,3 °C 11,3 °C 50 % 84 % 1022,8 hPa 0,0 l/m² 0,0 km/h (0 Bft) O 98 ° 0 min 35 W/m² 8,7 °C 11,3 °C 0,0 km/h (0 Bft)
05.09.2022 07:07 23,3 °C 11,3 °C 50 % 84 % 1022,9 hPa 0,0 l/m² 0,0 km/h (0 Bft) O 98 ° 0 min 37 W/m² 8,7 °C 11,3 °C 0,0 km/h (0 Bft)
05.09.2022 07:09 23,3 °C 11,3 °C 50 % 84 % 1022,9 hPa 0,0 l/m² 0,0 km/h (0 Bft) O 98 ° 0 min 39 W/m² 8,7 °C 11,3 °C 0,0 km/h (0 Bft)
05.09.2022 07:11 23,3 °C 11,3 °C 50 % 84 % 1022,9 hPa 0,0 l/m² 0,0 km/h (0 Bft) O 98 ° 0 min 39 W/m² 8,7 °C 11,3 °C 0,0 km/h (0 Bft)
05.09.2022 07:12 23,3 °C 11,4 °C 50 % 85 % 1023,0 hPa 0,0 l/m² 0,0 km/h (0 Bft) O 98 ° 0 min 40 W/m² 9,0 °C 11,4 °C 0,0 km/h (0 Bft)
05.09.2022 07:13 23,3 °C 11,4 °C 50 % 85 % 1023,0 hPa 0,0 l/m² 0,0 km/h (0 Bft) O 98 ° 0 min 42 W/m² 9,0 °C 11,4 °C 0,0 km/h (0 Bft)
05.09.2022 07:15 23,3 °C 11,4 °C 50 % 85 % 1023,0 hPa 0,0 l/m² 0,0 km/h (0 Bft) O 90 ° 0 min 44 W/m² 9,0 °C 11,4 °C 0,0 km/h (0 Bft)
05.09.2022 07:17 23,3 °C 11,4 °C 49 % 86 % 1023,0 hPa 0,0 l/m² 0,0 km/h (0 Bft) O 90 ° 0 min 46 W/m² 9,1 °C 11,4 °C 0,0 km/h (0 Bft)
05.09.2022 07:19 23,3 °C 11,6 °C 49 % 86 % 1023,0 hPa 0,0 l/m² 0,0 km/h (0 Bft) O-NO 78 ° 0 min 51 W/m² 9,3 °C 11,6 °C 0,0 km/h (0 Bft)
05.09.2022 07:21 23,3 °C 11,7 °C 49 % 87 % 1023,1 hPa 0,0 l/m² 3,3 km/h (1 Bft) O-NO 69 ° 2 min 62 W/m² 9,6 °C 11,7 °C 12,9 km/h (3 Bft)
05.09.2022 07:22 23,2 °C 11,8 °C 49 % 87 % 1023,0 hPa 0,0 l/m² 1,8 km/h (1 Bft) O-NO 75 ° 1 min 63 W/m² 9,7 °C 11,8 °C 4,8 km/h (1 Bft)
05.09.2022 07:23 23,3 °C 11,8 °C 49 % 88 % 1023,1 hPa 0,0 l/m² 4,3 km/h (1 Bft) O-NO 70 ° 1 min 69 W/m² 9,9 °C 11,8 °C 6,4 km/h (2 Bft)
05.09.2022 07:26 23,3 °C 12,1 °C 49 % 89 % 1023,1 hPa 0,0 l/m² 2,8 km/h (1 Bft) O 87 ° 3 min 74 W/m² 10,3 °C 12,1 °C 6,4 km/h (2 Bft)
05.09.2022 07:28 23,2 °C 12,3 °C 49 % 89 % 1023,1 hPa 0,0 l/m² 4,1 km/h (1 Bft) O-NO 76 ° 2 min 77 W/m² 10,5 °C 12,3 °C 6,4 km/h (2 Bft)
05.09.2022 07:30 23,3 °C 12,5 °C 49 % 89 % 1023,1 hPa 0,0 l/m² 4,5 km/h (1 Bft) O-NO 76 ° 2 min 77 W/m² 10,7 °C 12,5 °C 6,4 km/h (2 Bft)
05.09.2022 07:31 23,3 °C 12,7 °C 49 % 90 % 1023,1 hPa 0,0 l/m² 4,5 km/h (1 Bft) NO 55 ° 1 min 72 W/m² 11,1 °C 12,7 °C 6,4 km/h (2 Bft)
05.09.2022 07:32 23,3 °C 12,8 °C 49 % 90 % 1023,2 hPa 0,0 l/m² 3,8 km/h (1 Bft) O-NO 67 ° 1 min 74 W/m² 11,2 °C 12,8 °C 6,4 km/h (2 Bft)
05.09.2022 07:33 23,3 °C 12,8 °C 49 % 90 % 1023,2 hPa 0,0 l/m² 7,0 km/h (2 Bft) O 79 ° 1 min 74 W/m² 11,2 °C 12,4 °C 8,0 km/h (2 Bft)
05.09.2022 07:35 23,3 °C 13,1 °C 49 % 90 % 1023,2 hPa 0,0 l/m² 4,1 km/h (1 Bft) O 84 ° 2 min 69 W/m² 11,5 °C 13,1 °C 8,0 km/h (2 Bft)
05.09.2022 07:37 23,3 °C 13,4 °C 50 % 89 % 1023,2 hPa 0,0 l/m² 6,0 km/h (2 Bft) O 81 ° 2 min 62 W/m² 11,6 °C 13,4 °C 9,7 km/h (2 Bft)
05.09.2022 07:39 23,3 °C 13,6 °C 50 % 89 % 1023,2 hPa 0,0 l/m² 7,5 km/h (2 Bft) O 92 ° 2 min 58 W/m² 11,8 °C 12,9 °C 11,3 km/h (2 Bft)
05.09.2022 07:41 23,3 °C 13,8 °C 50 % 88 % 1023,2 hPa 0,0 l/m² 7,6 km/h (2 Bft) O-NO 63 ° 2 min 63 W/m² 11,8 °C 13,1 °C 12,9 km/h (3 Bft)
05.09.2022 07:42 23,3 °C 13,9 °C 50 % 88 % 1023,2 hPa 0,0 l/m² 6,6 km/h (2 Bft) O 83 ° 1 min 70 W/m² 11,9 °C 13,8 °C 11,3 km/h (2 Bft)
05.09.2022 07:43 23,3 °C 14,0 °C 50 % 88 % 1023,3 hPa 0,0 l/m² 7,9 km/h (2 Bft) O 85 ° 1 min 70 W/m² 12,0 °C 13,1 °C 11,3 km/h (2 Bft)
05.09.2022 07:45 23,3 °C 14,2 °C 50 % 87 % 1023,2 hPa 0,0 l/m² 6,4 km/h (2 Bft) O 82 ° 2 min 67 W/m² 12,1 °C 14,2 °C 9,7 km/h (2 Bft)
05.09.2022 07:47 23,3 °C 14,4 °C 50 % 86 % 1023,3 hPa 0,0 l/m² 6,7 km/h (2 Bft) O-NO 76 ° 2 min 62 W/m² 12,1 °C 14,2 °C 11,3 km/h (2 Bft)
05.09.2022 07:49 23,3 °C 14,5 °C 50 % 86 % 1023,3 hPa 0,0 l/m² 6,0 km/h (2 Bft) O 82 ° 2 min 60 W/m² 12,2 °C 14,5 °C 11,3 km/h (2 Bft)
05.09.2022 07:51 23,3 °C 14,6 °C 50 % 85 % 1023,3 hPa 0,0 l/m² 7,6 km/h (2 Bft) O-NO 73 ° 2 min 63 W/m² 12,1 °C 13,9 °C 12,9 km/h (3 Bft)
05.09.2022 07:52 23,3 °C 14,7 °C 50 % 85 % 1023,2 hPa 0,0 l/m² 7,3 km/h (2 Bft) O-NO 66 ° 1 min 65 W/m² 12,2 °C 14,2 °C 12,9 km/h (3 Bft)
05.09.2022 07:53 23,3 °C 14,7 °C 50 % 85 % 1023,2 hPa 0,0 l/m² 5,6 km/h (2 Bft) O 79 ° 1 min 67 W/m² 12,2 °C 14,7 °C 6,4 km/h (2 Bft)
05.09.2022 07:55 23,3 °C 14,8 °C 50 % 84 % 1023,2 hPa 0,0 l/m² 6,6 km/h (2 Bft) O-NO 78 ° 2 min 70 W/m² 12,1 °C 14,7 °C 11,3 km/h (2 Bft)
05.09.2022 07:57 23,3 °C 14,9 °C 50 % 84 % 1023,3 hPa 0,0 l/m² 6,2 km/h (2 Bft) O-NO 76 ° 2 min 77 W/m² 12,2 °C 14,9 °C 11,3 km/h (2 Bft)
05.09.2022 07:59 23,3 °C 15,0 °C 51 % 83 % 1023,4 hPa 0,0 l/m² 6,9 km/h (2 Bft) O 80 ° 2 min 100 W/m² 12,1 °C 14,7 °C 11,3 km/h (2 Bft)
05.09.2022 08:01 23,4 °C 15,1 °C 54 % 83 % 1023,3 hPa 0,0 l/m² 8,6 km/h (2 Bft) O 82 ° 2 min 141 W/m² 12,2 °C 13,9 °C 12,9 km/h (3 Bft)
05.09.2022 08:02 23,7 °C 15,1 °C 52 % 83 % 1023,3 hPa 0,0 l/m² 9,1 km/h (2 Bft) O 79 ° 1 min 141 W/m² 12,2 °C 13,6 °C 14,5 km/h (3 Bft)
05.09.2022 08:03 23,7 °C 15,2 °C 52 % 83 % 1023,3 hPa 0,0 l/m² 4,4 km/h (1 Bft) O 82 ° 1 min 153 W/m² 12,3 °C 15,2 °C 6,4 km/h (2 Bft)
05.09.2022 08:06 23,7 °C 15,3 °C 50 % 83 % 1023,2 hPa 0,0 l/m² 8,0 km/h (2 Bft) O-NO 78 ° 3 min 149 W/m² 12,4 °C 14,4 °C 12,9 km/h (3 Bft)
05.09.2022 08:08 23,7 °C 15,4 °C 50 % 82 % 1023,2 hPa 0,0 l/m² 8,8 km/h (2 Bft) O-NO 73 ° 2 min 165 W/m² 12,3 °C 14,1 °C 14,5 km/h (3 Bft)
05.09.2022 08:10 23,7 °C 15,6 °C 50 % 82 % 1023,3 hPa 0,0 l/m² 8,1 km/h (2 Bft) NO 52 ° 2 min 179 W/m² 12,5 °C 14,7 °C 14,5 km/h (3 Bft)
05.09.2022 08:11 23,7 °C 15,7 °C 50 % 82 % 1023,2 hPa 0,0 l/m² 9,9 km/h (2 Bft) O 88 ° 1 min 162 W/m² 12,6 °C 13,9 °C 12,9 km/h (3 Bft)
05.09.2022 08:13 23,7 °C 15,8 °C 50 % 81 % 1023,2 hPa 0,0 l/m² 12,2 km/h (2 Bft) O-NO 76 ° 2 min 178 W/m² 12,5 °C 13,1 °C 17,7 km/h (3 Bft)
05.09.2022 08:16 23,6 °C 15,9 °C 50 % 80 % 1023,2 hPa 0,0 l/m² 11,5 km/h (2 Bft) O 86 ° 3 min 137 W/m² 12,5 °C 13,5 °C 17,7 km/h (3 Bft)
05.09.2022 08:18 23,7 °C 16,0 °C 50 % 80 % 1023,1 hPa 0,0 l/m² 10,2 km/h (2 Bft) O 79 ° 2 min 142 W/m² 12,5 °C 14,1 °C 17,7 km/h (3 Bft)
05.09.2022 08:20 23,6 °C 16,1 °C 50 % 80 % 1023,2 hPa 0,0 l/m² 9,0 km/h (2 Bft) O-NO 67 ° 2 min 151 W/m² 12,6 °C 14,8 °C 16,1 km/h (3 Bft)
05.09.2022 08:21 23,6 °C 16,1 °C 50 % 79 % 1023,2 hPa 0,0 l/m² 7,8 km/h (2 Bft) O-NO 61 ° 1 min 169 W/m² 12,5 °C 15,4 °C 11,3 km/h (2 Bft)
05.09.2022 08:22 23,6 °C 16,2 °C 50 % 79 % 1023,2 hPa 0,0 l/m² 7,8 km/h (2 Bft) NO 50 ° 1 min 186 W/m² 12,6 °C 15,5 °C 12,9 km/h (3 Bft)
05.09.2022 08:23 23,6 °C 16,2 °C 50 % 79 % 1023,2 hPa 0,0 l/m² 7,4 km/h (2 Bft) O 83 ° 1 min 225 W/m² 12,6 °C 15,7 °C 9,7 km/h (2 Bft)
05.09.2022 08:26 23,6 °C 16,3 °C 50 % 79 % 1023,2 hPa 0,0 l/m² 9,7 km/h (2 Bft) O-NO 78 ° 3 min 297 W/m² 12,6 °C 14,7 °C 14,5 km/h (3 Bft)
05.09.2022 08:28 23,6 °C 16,4 °C 50 % 79 % 1023,2 hPa 0,0 l/m² 10,2 km/h (2 Bft) O-NO 63 ° 2 min 311 W/m² 12,7 °C 14,6 °C 17,7 km/h (3 Bft)
05.09.2022 08:30 23,6 °C 16,6 °C 50 % 79 % 1023,2 hPa 0,0 l/m² 11,5 km/h (2 Bft) O 81 ° 2 min 292 W/m² 12,9 °C 14,3 °C 20,9 km/h (4 Bft)
05.09.2022 08:31 23,6 °C 16,7 °C 50 % 79 % 1023,2 hPa 0,0 l/m² 11,9 km/h (2 Bft) O-NO 61 ° 1 min 241 W/m² 13,0 °C 14,3 °C 19,3 km/h (3 Bft)
05.09.2022 08:32 23,6 °C 16,7 °C 50 % 78 % 1023,3 hPa 0,0 l/m² 16,4 km/h (3 Bft) O 84 ° 1 min 206 W/m² 12,8 °C 12,9 °C 19,3 km/h (3 Bft)
05.09.2022 08:34 23,5 °C 16,8 °C 50 % 77 % 1023,3 hPa 0,0 l/m² 12,2 km/h (2 Bft) O-NO 69 ° 2 min 172 W/m² 12,7 °C 14,3 °C 17,7 km/h (3 Bft)
05.09.2022 08:35 23,6 °C 16,9 °C 50 % 77 % 1023,3 hPa 0,0 l/m² 11,5 km/h (2 Bft) O 83 ° 1 min 167 W/m² 12,8 °C 14,6 °C 17,7 km/h (3 Bft)
05.09.2022 08:37 23,5 °C 16,9 °C 50 % 77 % 1023,3 hPa 0,0 l/m² 11,4 km/h (2 Bft) O 96 ° 2 min 169 W/m² 12,8 °C 14,7 °C 17,7 km/h (3 Bft)
05.09.2022 08:39 23,5 °C 16,9 °C 50 % 77 % 1023,3 hPa 0,0 l/m² 9,9 km/h (2 Bft) O-NO 61 ° 2 min 163 W/m² 12,8 °C 15,3 °C 16,1 km/h (3 Bft)
05.09.2022 08:40 23,4 °C 16,9 °C 50 % 77 % 1023,3 hPa 0,0 l/m² 7,8 km/h (2 Bft) O 79 ° 1 min 162 W/m² 12,8 °C 16,2 °C 12,9 km/h (3 Bft)
05.09.2022 08:42 23,4 °C 17,0 °C 50 % 77 % 1023,3 hPa 0,0 l/m² 7,8 km/h (2 Bft) O 84 ° 2 min 171 W/m² 12,9 °C 16,3 °C 12,9 km/h (3 Bft)
05.09.2022 08:43 23,4 °C 17,0 °C 50 % 76 % 1023,4 hPa 0,0 l/m² 11,1 km/h (2 Bft) O-NO 77 ° 1 min 176 W/m² 12,7 °C 14,9 °C 14,5 km/h (3 Bft)
05.09.2022 08:45 23,4 °C 17,1 °C 50 % 76 % 1023,4 hPa 0,0 l/m² 8,6 km/h (2 Bft) O-NO 78 ° 2 min 186 W/m² 12,8 °C 16,0 °C 12,9 km/h (3 Bft)
05.09.2022 08:47 23,4 °C 17,1 °C 50 % 76 % 1023,4 hPa 0,0 l/m² 13,1 km/h (3 Bft) O-NO 73 ° 2 min 197 W/m² 12,8 °C 14,3 °C 17,7 km/h (3 Bft)
05.09.2022 08:49 23,4 °C 17,1 °C 50 % 76 % 1023,4 hPa 0,0 l/m² 7,8 km/h (2 Bft) O 82 ° 2 min 199 W/m² 12,8 °C 16,4 °C 14,5 km/h (3 Bft)
05.09.2022 08:50 23,4 °C 17,2 °C 50 % 76 % 1023,4 hPa 0,0 l/m² 9,0 km/h (2 Bft) O 83 ° 1 min 197 W/m² 12,9 °C 16,0 °C 14,5 km/h (3 Bft)
05.09.2022 08:52 23,4 °C 17,2 °C 50 % 76 % 1023,4 hPa 0,0 l/m² 12,5 km/h (2 Bft) O 92 ° 2 min 192 W/m² 12,9 °C 14,6 °C 17,7 km/h (3 Bft)
05.09.2022 08:54 23,4 °C 17,2 °C 50 % 76 % 1023,4 hPa 0,0 l/m² 13,7 km/h (3 Bft) O-NO 75 ° 2 min 188 W/m² 12,9 °C 14,2 °C 19,3 km/h (3 Bft)
05.09.2022 08:56 23,4 °C 17,3 °C 50 % 76 % 1023,3 hPa 0,0 l/m² 10,8 km/h (2 Bft) O 84 ° 2 min 183 W/m² 13,0 °C 15,4 °C 17,7 km/h (3 Bft)
05.09.2022 08:58 23,4 °C 17,3 °C 50 % 76 % 1023,4 hPa 0,0 l/m² 7,0 km/h (2 Bft) O 82 ° 2 min 181 W/m² 13,0 °C 17,0 °C 12,9 km/h (3 Bft)
05.09.2022 09:00 23,3 °C 17,3 °C 50 % 76 % 1023,4 hPa 0,0 l/m² 11,2 km/h (2 Bft) O-NO 67 ° 2 min 181 W/m² 13,0 °C 15,2 °C 16,1 km/h (3 Bft)
05.09.2022 09:01 23,4 °C 17,4 °C 50 % 76 % 1023,3 hPa 0,0 l/m² 8,7 km/h (2 Bft) O 80 ° 1 min 181 W/m² 13,1 °C 16,3 °C 12,9 km/h (3 Bft)
05.09.2022 09:02 23,3 °C 17,4 °C 50 % 76 % 1023,4 hPa 0,0 l/m² 6,1 km/h (2 Bft) O-NO 58 ° 1 min 183 W/m² 13,1 °C 17,4 °C 11,3 km/h (2 Bft)
05.09.2022 09:03 23,4 °C 17,4 °C 50 % 76 % 1023,3 hPa 0,0 l/m² 7,6 km/h (2 Bft) O-NO 58 ° 1 min 186 W/m² 13,1 °C 16,8 °C 14,5 km/h (3 Bft)
05.09.2022 09:04 23,3 °C 17,4 °C 50 % 76 % 1023,3 hPa 0,0 l/m² 12,6 km/h (3 Bft) O 85 ° 1 min 207 W/m² 13,1 °C 14,8 °C 17,7 km/h (3 Bft)
05.09.2022 09:06 23,3 °C 17,5 °C 50 % 76 % 1023,4 hPa 0,0 l/m² 10,2 km/h (2 Bft) O-NO 68 ° 2 min 197 W/m² 13,2 °C 15,8 °C 14,5 km/h (3 Bft)
05.09.2022 09:08 23,3 °C 17,6 °C 50 % 75 % 1023,4 hPa 0,0 l/m² 6,6 km/h (2 Bft) O-NO 66 ° 2 min 186 W/m² 13,1 °C 17,5 °C 11,3 km/h (2 Bft)
05.09.2022 09:10 23,3 °C 17,6 °C 50 % 76 % 1023,4 hPa 0,0 l/m² 7,6 km/h (2 Bft) O 82 ° 2 min 176 W/m² 13,3 °C 17,0 °C 14,5 km/h (3 Bft)
05.09.2022 09:11 23,3 °C 17,7 °C 50 % 75 % 1023,4 hPa 0,0 l/m² 7,7 km/h (2 Bft) O-NO 66 ° 1 min 178 W/m² 13,2 °C 17,1 °C 12,9 km/h (3 Bft)
05.09.2022 09:12 23,3 °C 17,7 °C 50 % 75 % 1023,4 hPa 0,0 l/m² 4,5 km/h (1 Bft) O-NO 74 ° 1 min 165 W/m² 13,2 °C 17,7 °C 8,0 km/h (2 Bft)
05.09.2022 09:13 23,3 °C 17,7 °C 50 % 75 % 1023,3 hPa 0,0 l/m² 6,7 km/h (2 Bft) O 83 ° 1 min 169 W/m² 13,2 °C 17,6 °C 11,3 km/h (2 Bft)
05.09.2022 09:14 23,3 °C 17,7 °C 50 % 75 % 1023,4 hPa 0,0 l/m² 10,2 km/h (2 Bft) O 83 ° 1 min 167 W/m² 13,2 °C 16,0 °C 12,9 km/h (3 Bft)
05.09.2022 09:16 23,3 °C 17,7 °C 50 % 75 % 1023,4 hPa 0,0 l/m² 8,1 km/h (2 Bft) O 94 ° 2 min 178 W/m² 13,2 °C 16,9 °C 14,5 km/h (3 Bft)
05.09.2022 09:18 23,3 °C 17,8 °C 50 % 75 % 1023,4 hPa 0,0 l/m² 12,3 km/h (2 Bft) O 80 ° 2 min 188 W/m² 13,3 °C 15,4 °C 14,5 km/h (3 Bft)
05.09.2022 09:20 23,3 °C 17,8 °C 50 % 75 % 1023,4 hPa 0,0 l/m² 10,9 km/h (2 Bft) O 92 ° 2 min 197 W/m² 13,3 °C 15,9 °C 14,5 km/h (3 Bft)
05.09.2022 09:21 23,3 °C 17,8 °C 50 % 75 % 1023,4 hPa 0,0 l/m² 6,9 km/h (2 Bft) O-NO 77 ° 1 min 199 W/m² 13,3 °C 17,6 °C 11,3 km/h (2 Bft)
05.09.2022 09:22 23,3 °C 17,8 °C 50 % 75 % 1023,5 hPa 0,0 l/m² 5,5 km/h (2 Bft) O 79 ° 1 min 202 W/m² 13,3 °C 17,8 °C 8,0 km/h (2 Bft)
05.09.2022 09:23 23,3 °C 17,8 °C 50 % 75 % 1023,5 hPa 0,0 l/m² 7,6 km/h (2 Bft) O-NO 78 ° 1 min 206 W/m² 13,3 °C 17,2 °C 12,9 km/h (3 Bft)
05.09.2022 09:24 23,3 °C 17,9 °C 50 % 75 % 1023,5 hPa 0,0 l/m² 7,3 km/h (2 Bft) O-NO 77 ° 1 min 209 W/m² 13,4 °C 17,5 °C 11,3 km/h (2 Bft)
05.09.2022 09:26 23,3 °C 17,9 °C 50 % 75 % 1023,5 hPa 0,0 l/m² 7,4 km/h (2 Bft) O 84 ° 2 min 225 W/m² 13,4 °C 17,4 °C 11,3 km/h (2 Bft)
05.09.2022 09:28 23,3 °C 18,0 °C 50 % 75 % 1023,5 hPa 0,0 l/m² 7,0 km/h (2 Bft) NO 51 ° 2 min 255 W/m² 13,5 °C 17,7 °C 11,3 km/h (2 Bft)
05.09.2022 09:30 23,3 °C 18,1 °C 50 % 75 % 1023,5 hPa 0,0 l/m² 8,5 km/h (2 Bft) O 90 ° 2 min 316 W/m² 13,6 °C 17,1 °C 14,5 km/h (3 Bft)
05.09.2022 09:31 23,3 °C 18,1 °C 50 % 75 % 1023,5 hPa 0,0 l/m² 10,4 km/h (2 Bft) O 79 ° 1 min 376 W/m² 13,6 °C 16,4 °C 16,1 km/h (3 Bft)
05.09.2022 09:32 23,3 °C 18,2 °C 50 % 75 % 1023,6 hPa 0,0 l/m² 9,0 km/h (2 Bft) O-NO 70 ° 1 min 376 W/m² 13,7 °C 17,0 °C 12,9 km/h (3 Bft)
05.09.2022 09:33 23,3 °C 18,2 °C 50 % 75 % 1023,6 hPa 0,0 l/m² 7,2 km/h (2 Bft) O 84 ° 1 min 376 W/m² 13,7 °C 17,8 °C 11,3 km/h (2 Bft)
05.09.2022 09:34 23,3 °C 18,3 °C 50 % 75 % 1023,6 hPa 0,0 l/m² 6,2 km/h (2 Bft) O-NO 59 ° 1 min 281 W/m² 13,8 °C 18,3 °C 9,7 km/h (2 Bft)
05.09.2022 09:36 23,3 °C 18,4 °C 50 % 74 % 1023,5 hPa 0,0 l/m² 7,9 km/h (2 Bft) O-NO 57 ° 2 min 341 W/m² 13,7 °C 17,7 °C 14,5 km/h (3 Bft)
05.09.2022 09:38 23,3 °C 18,4 °C 50 % 74 % 1023,5 hPa 0,0 l/m² 10,4 km/h (2 Bft) O-SO 105 ° 2 min 297 W/m² 13,7 °C 16,7 °C 14,5 km/h (3 Bft)
05.09.2022 09:40 23,4 °C 18,6 °C 50 % 74 % 1023,5 hPa 0,0 l/m² 10,1 km/h (2 Bft) O 86 ° 2 min 302 W/m² 13,9 °C 17,1 °C 12,9 km/h (3 Bft)
05.09.2022 09:41 23,4 °C 18,7 °C 50 % 73 % 1023,5 hPa 0,0 l/m² 8,8 km/h (2 Bft) O 92 ° 1 min 323 W/m² 13,8 °C 17,7 °C 11,3 km/h (2 Bft)
05.09.2022 09:42 23,4 °C 18,7 °C 50 % 73 % 1023,6 hPa 0,0 l/m² 12,2 km/h (2 Bft) O 94 ° 1 min 380 W/m² 13,8 °C 16,5 °C 14,5 km/h (3 Bft)
05.09.2022 09:44 23,4 °C 18,8 °C 50 % 73 % 1023,6 hPa 0,0 l/m² 10,6 km/h (2 Bft) O 84 ° 2 min 571 W/m² 13,9 °C 17,1 °C 12,9 km/h (3 Bft)
05.09.2022 09:46 23,4 °C 18,9 °C 50 % 73 % 1023,5 hPa 0,0 l/m² 12,0 km/h (2 Bft) O 83 ° 2 min 571 W/m² 13,9 °C 16,8 °C 16,1 km/h (3 Bft)
05.09.2022 09:48 23,4 °C 19,0 °C 50 % 72 % 1023,5 hPa 0,0 l/m² 9,1 km/h (2 Bft) O-NO 61 ° 2 min 571 W/m² 13,8 °C 17,9 °C 16,1 km/h (3 Bft)
05.09.2022 09:50 23,4 °C 19,2 °C 50 % 72 % 1023,5 hPa 0,0 l/m² 6,8 km/h (2 Bft) O 93 ° 2 min 631 W/m² 14,0 °C 19,0 °C 12,9 km/h (3 Bft)
05.09.2022 09:51 23,4 °C 19,3 °C 50 % 72 % 1023,6 hPa 0,0 l/m² 13,8 km/h (3 Bft) O 86 ° 1 min 652 W/m² 14,1 °C 16,7 °C 16,1 km/h (3 Bft)
05.09.2022 09:52 23,4 °C 19,3 °C 50 % 72 % 1023,5 hPa 0,0 l/m² 14,7 km/h (3 Bft) O 93 ° 1 min 496 W/m² 14,1 °C 16,5 °C 17,7 km/h (3 Bft)
05.09.2022 09:53 23,4 °C 19,4 °C 50 % 72 % 1023,5 hPa 0,0 l/m² 12,9 km/h (3 Bft) O 87 ° 1 min 496 W/m² 14,2 °C 17,1 °C 14,5 km/h (3 Bft)
05.09.2022 09:54 23,5 °C 19,4 °C 50 % 71 % 1023,6 hPa 0,0 l/m² 11,6 km/h (2 Bft) O 101 ° 1 min 383 W/m² 14,0 °C 17,5 °C 14,5 km/h (3 Bft)
05.09.2022 09:56 23,5 °C 19,6 °C 50 % 71 % 1023,5 hPa 0,0 l/m² 8,2 km/h (2 Bft) O-NO 57 ° 2 min 446 W/m² 14,2 °C 18,9 °C 12,9 km/h (3 Bft)
05.09.2022 09:58 23,5 °C 19,6 °C 50 % 71 % 1023,5 hPa 0,0 l/m² 11,8 km/h (2 Bft) O 84 ° 2 min 573 W/m² 14,2 °C 17,6 °C 14,5 km/h (3 Bft)
05.09.2022 10:00 23,6 °C 19,8 °C 50 % 71 % 1023,5 hPa 0,0 l/m² 6,8 km/h (2 Bft) O-NO 57 ° 2 min 552 W/m² 14,4 °C 19,6 °C 14,5 km/h (3 Bft)
05.09.2022 10:01 23,6 °C 19,9 °C 50 % 71 % 1023,4 hPa 0,0 l/m² 6,9 km/h (2 Bft) O-NO 66 ° 1 min 534 W/m² 14,5 °C 19,7 °C 11,3 km/h (2 Bft)
05.09.2022 10:02 23,6 °C 19,9 °C 50 % 70 % 1023,5 hPa 0,0 l/m² 7,7 km/h (2 Bft) NO 39 ° 1 min 534 W/m² 14,3 °C 19,4 °C 11,3 km/h (2 Bft)
05.09.2022 10:03 23,6 °C 20,0 °C 50 % 70 % 1023,5 hPa 0,0 l/m² 11,9 km/h (2 Bft) O-NO 76 ° 1 min 520 W/m² 14,4 °C 18,1 °C 16,1 km/h (3 Bft)
05.09.2022 10:04 23,6 °C 20,1 °C 50 % 70 % 1023,5 hPa 0,0 l/m² 12,5 km/h (2 Bft) O-NO 71 ° 1 min 526 W/m² 14,5 °C 18,0 °C 16,1 km/h (3 Bft)
05.09.2022 10:06 23,6 °C 20,2 °C 50 % 69 % 1023,4 hPa 0,0 l/m² 9,5 km/h (2 Bft) O-NO 74 ° 2 min 520 W/m² 14,3 °C 19,0 °C 14,5 km/h (3 Bft)
05.09.2022 10:08 23,6 °C 20,4 °C 50 % 69 % 1023,5 hPa 0,0 l/m² 9,0 km/h (2 Bft) O-SO 104 ° 2 min 524 W/m² 14,5 °C 19,4 °C 12,9 km/h (3 Bft)
05.09.2022 10:10 23,6 °C 20,5 °C 50 % 68 % 1023,4 hPa 0,0 l/m² 10,0 km/h (2 Bft) O 89 ° 2 min 524 W/m² 14,4 °C 19,2 °C 14,5 km/h (3 Bft)
05.09.2022 10:11 23,6 °C 20,6 °C 50 % 69 % 1023,4 hPa 0,0 l/m² 12,2 km/h (2 Bft) O 94 ° 1 min 520 W/m² 14,7 °C 18,7 °C 14,5 km/h (3 Bft)
05.09.2022 10:12 23,7 °C 20,6 °C 50 % 68 % 1023,3 hPa 0,0 l/m² 12,2 km/h (2 Bft) O-NO 68 ° 1 min 527 W/m² 14,5 °C 18,7 °C 16,1 km/h (3 Bft)
05.09.2022 10:13 23,7 °C 20,7 °C 50 % 68 % 1023,3 hPa 0,0 l/m² 10,4 km/h (2 Bft) O-NO 74 ° 1 min 526 W/m² 14,6 °C 19,3 °C 12,9 km/h (3 Bft)
05.09.2022 10:14 23,7 °C 20,7 °C 50 % 68 % 1023,3 hPa 0,0 l/m² 7,5 km/h (2 Bft) O-NO 76 ° 1 min 524 W/m² 14,6 °C 20,3 °C 12,9 km/h (3 Bft)
05.09.2022 10:16 23,7 °C 20,8 °C 50 % 67 % 1023,3 hPa 0,0 l/m² 10,0 km/h (2 Bft) O 91 ° 2 min 540 W/m² 14,4 °C 19,5 °C 14,5 km/h (3 Bft)
05.09.2022 10:18 23,7 °C 20,9 °C 50 % 67 % 1023,3 hPa 0,0 l/m² 9,9 km/h (2 Bft) O 90 ° 2 min 540 W/m² 14,5 °C 19,7 °C 12,9 km/h (3 Bft)
05.09.2022 10:20 23,7 °C 20,9 °C 50 % 67 % 1023,4 hPa 0,0 l/m² 13,0 km/h (3 Bft) O 86 ° 2 min 543 W/m² 14,5 °C 18,8 °C 17,7 km/h (3 Bft)
05.09.2022 10:21 23,7 °C 21,1 °C 50 % 67 % 1023,5 hPa 0,0 l/m² 11,9 km/h (2 Bft) O 92 ° 1 min 547 W/m² 14,7 °C 19,3 °C 14,5 km/h (3 Bft)
05.09.2022 10:22 23,7 °C 21,1 °C 50 % 67 % 1023,4 hPa 0,0 l/m² 9,1 km/h (2 Bft) O 88 ° 1 min 550 W/m² 14,7 °C 20,1 °C 12,9 km/h (3 Bft)
05.09.2022 10:23 23,7 °C 21,1 °C 50 % 67 % 1023,5 hPa 0,0 l/m² 5,7 km/h (2 Bft) O 91 ° 1 min 554 W/m² 14,7 °C 21,1 °C 8,0 km/h (2 Bft)
05.09.2022 10:24 23,7 °C 21,2 °C 50 % 67 % 1023,4 hPa 0,0 l/m² 9,7 km/h (2 Bft) O 94 ° 1 min 554 W/m² 14,8 °C 20,1 °C 12,9 km/h (3 Bft)
05.09.2022 10:26 23,7 °C 21,3 °C 50 % 67 % 1023,4 hPa 0,0 l/m² 9,4 km/h (2 Bft) O 96 ° 2 min 554 W/m² 14,9 °C 20,3 °C 14,5 km/h (3 Bft)
05.09.2022 10:28 23,8 °C 21,4 °C 50 % 67 % 1023,4 hPa 0,0 l/m² 8,4 km/h (2 Bft) O 91 ° 2 min 555 W/m² 15,0 °C 20,7 °C 12,9 km/h (3 Bft)
05.09.2022 10:30 23,8 °C 21,6 °C 50 % 66 % 1023,4 hPa 0,0 l/m² 8,8 km/h (2 Bft) O 84 ° 2 min 561 W/m² 15,0 °C 20,8 °C 12,9 km/h (3 Bft)
05.09.2022 10:31 23,8 °C 21,6 °C 50 % 66 % 1023,4 hPa 0,0 l/m² 4,4 km/h (1 Bft) O 85 ° 1 min 570 W/m² 15,0 °C 21,6 °C 6,4 km/h (2 Bft)
05.09.2022 10:32 23,8 °C 21,7 °C 50 % 66 % 1023,4 hPa 0,0 l/m² 9,3 km/h (2 Bft) O-NO 61 ° 1 min 566 W/m² 15,1 °C 20,7 °C 14,5 km/h (3 Bft)
05.09.2022 10:33 23,8 °C 21,8 °C 50 % 66 % 1023,4 hPa 0,0 l/m² 7,5 km/h (2 Bft) O-NO 61 ° 1 min 552 W/m² 15,2 °C 21,4 °C 11,3 km/h (2 Bft)
05.09.2022 10:34 23,8 °C 21,9 °C 50 % 65 % 1023,4 hPa 0,0 l/m² 8,4 km/h (2 Bft) O 95 ° 1 min 552 W/m² 15,0 °C 21,2 °C 11,3 km/h (2 Bft)
05.09.2022 10:36 23,8 °C 22,0 °C 50 % 64 % 1023,3 hPa 0,0 l/m² 9,0 km/h (2 Bft) O-SO 109 ° 2 min 582 W/m² 14,9 °C 21,1 °C 12,9 km/h (3 Bft)
05.09.2022 10:38 23,9 °C 22,1 °C 50 % 64 % 1023,3 hPa 0,0 l/m² 8,6 km/h (2 Bft) O 98 ° 2 min 571 W/m² 15,0 °C 21,4 °C 12,9 km/h (3 Bft)
05.09.2022 10:40 23,9 °C 22,2 °C 50 % 64 % 1023,2 hPa 0,0 l/m² 9,2 km/h (2 Bft) O-SO 119 ° 2 min 580 W/m² 15,1 °C 21,3 °C 14,5 km/h (3 Bft)
05.09.2022 10:41 23,9 °C 22,2 °C 50 % 64 % 1023,2 hPa 0,0 l/m² 5,1 km/h (1 Bft) O-SO 113 ° 1 min 571 W/m² 15,1 °C 22,2 °C 6,4 km/h (2 Bft)
05.09.2022 10:42 23,9 °C 22,3 °C 50 % 64 % 1023,2 hPa 0,0 l/m² 7,4 km/h (2 Bft) O 86 ° 1 min 578 W/m² 15,2 °C 22,0 °C 16,1 km/h (3 Bft)
05.09.2022 10:43 23,9 °C 22,3 °C 50 % 64 % 1023,2 hPa 0,0 l/m² 9,0 km/h (2 Bft) O 83 ° 1 min 584 W/m² 15,2 °C 21,5 °C 14,5 km/h (3 Bft)
05.09.2022 10:44 23,9 °C 22,3 °C 50 % 64 % 1023,2 hPa 0,0 l/m² 10,9 km/h (2 Bft) O 86 ° 1 min 578 W/m² 15,2 °C 20,9 °C 14,5 km/h (3 Bft)
05.09.2022 10:46 23,9 °C 22,4 °C 50 % 64 % 1023,2 hPa 0,0 l/m² 8,0 km/h (2 Bft) O 83 ° 2 min 596 W/m² 15,2 °C 21,9 °C 12,9 km/h (3 Bft)
05.09.2022 10:48 23,9 °C 22,6 °C 50 % 63 % 1023,1 hPa 0,0 l/m² 10,8 km/h (2 Bft) O-NO 78 ° 2 min 599 W/m² 15,2 °C 21,3 °C 14,5 km/h (3 Bft)
05.09.2022 10:50 23,9 °C 22,7 °C 50 % 63 % 1023,2 hPa 0,0 l/m² 9,5 km/h (2 Bft) O-NO 77 ° 2 min 605 W/m² 15,3 °C 21,8 °C 16,1 km/h (3 Bft)
05.09.2022 10:51 23,9 °C 22,7 °C 50 % 63 % 1023,0 hPa 0,0 l/m² 10,6 km/h (2 Bft) O 82 ° 1 min 605 W/m² 15,3 °C 21,5 °C 14,5 km/h (3 Bft)
05.09.2022 10:52 23,9 °C 22,8 °C 50 % 63 % 1023,0 hPa 0,0 l/m² 8,5 km/h (2 Bft) NO 44 ° 1 min 606 W/m² 15,4 °C 22,1 °C 12,9 km/h (3 Bft)
05.09.2022 10:53 24,0 °C 22,8 °C 50 % 63 % 1023,0 hPa 0,0 l/m² 6,4 km/h (2 Bft) O-NO 70 ° 1 min 610 W/m² 15,4 °C 22,8 °C 11,3 km/h (2 Bft)
05.09.2022 10:54 24,0 °C 22,9 °C 50 % 63 % 1023,1 hPa 0,0 l/m² 5,4 km/h (2 Bft) O-NO 65 ° 1 min 612 W/m² 15,5 °C 22,9 °C 9,7 km/h (2 Bft)
05.09.2022 10:56 24,0 °C 23,1 °C 50 % 62 % 1023,0 hPa 0,0 l/m² 8,9 km/h (2 Bft) O 92 ° 2 min 617 W/m² 15,4 °C 22,4 °C 12,9 km/h (3 Bft)
05.09.2022 10:58 24,0 °C 23,2 °C 50 % 62 % 1022,9 hPa 0,0 l/m² 11,5 km/h (2 Bft) O 100 ° 2 min 619 W/m² 15,5 °C 21,8 °C 16,1 km/h (3 Bft)
05.09.2022 11:00 24,1 °C 23,3 °C 50 % 62 % 1022,9 hPa 0,0 l/m² 10,8 km/h (2 Bft) O 89 ° 2 min 613 W/m² 15,6 °C 22,1 °C 17,7 km/h (3 Bft)
05.09.2022 11:01 24,0 °C 23,4 °C 50 % 62 % 1022,9 hPa 0,0 l/m² 12,9 km/h (3 Bft) O 86 ° 1 min 610 W/m² 15,7 °C 21,8 °C 17,7 km/h (3 Bft)
05.09.2022 11:02 24,1 °C 23,4 °C 50 % 61 % 1022,9 hPa 0,0 l/m² 11,3 km/h (2 Bft) O 86 ° 1 min 610 W/m² 15,4 °C 22,1 °C 14,5 km/h (3 Bft)
05.09.2022 11:03 24,1 °C 23,5 °C 50 % 61 % 1022,9 hPa 0,0 l/m² 14,4 km/h (3 Bft) O-NO 69 ° 1 min 612 W/m² 15,5 °C 21,6 °C 17,7 km/h (3 Bft)
05.09.2022 11:04 24,1 °C 23,5 °C 50 % 61 % 1022,9 hPa 0,0 l/m² 14,8 km/h (3 Bft) O 81 ° 1 min 615 W/m² 15,5 °C 21,5 °C 19,3 km/h (3 Bft)
05.09.2022 11:06 24,1 °C 23,6 °C 50 % 61 % 1022,8 hPa 0,0 l/m² 15,7 km/h (3 Bft) O 92 ° 2 min 621 W/m² 15,6 °C 21,5 °C 22,5 km/h (4 Bft)
05.09.2022 11:08 24,1 °C 23,6 °C 50 % 61 % 1022,8 hPa 0,0 l/m² 12,2 km/h (2 Bft) O-NO 69 ° 2 min 628 W/m² 15,6 °C 22,1 °C 17,7 km/h (3 Bft)
05.09.2022 11:10 24,1 °C 23,6 °C 50 % 61 % 1022,8 hPa 0,0 l/m² 9,2 km/h (2 Bft) O 84 ° 2 min 631 W/m² 15,6 °C 22,8 °C 17,7 km/h (3 Bft)
05.09.2022 11:11 24,1 °C 23,7 °C 50 % 61 % 1022,7 hPa 0,0 l/m² 16,0 km/h (3 Bft) O 92 ° 1 min 629 W/m² 15,7 °C 21,6 °C 17,7 km/h (3 Bft)
05.09.2022 11:12 24,1 °C 23,7 °C 50 % 61 % 1022,7 hPa 0,0 l/m² 16,4 km/h (3 Bft) O 88 ° 1 min 628 W/m² 15,7 °C 21,5 °C 19,3 km/h (3 Bft)
05.09.2022 11:14 24,2 °C 23,8 °C 50 % 61 % 1022,8 hPa 0,0 l/m² 13,5 km/h (3 Bft) O 92 ° 2 min 622 W/m² 15,8 °C 22,1 °C 17,7 km/h (3 Bft)
05.09.2022 11:15 24,2 °C 23,8 °C 50 % 60 % 1022,8 hPa 0,0 l/m² 11,3 km/h (2 Bft) SO 125 ° 1 min 624 W/m² 15,6 °C 22,6 °C 14,5 km/h (3 Bft)
05.09.2022 11:17 24,2 °C 23,8 °C 50 % 61 % 1022,7 hPa 0,0 l/m² 11,3 km/h (2 Bft) O-SO 102 ° 2 min 629 W/m² 15,8 °C 22,6 °C 14,5 km/h (3 Bft)
05.09.2022 11:19 24,2 °C 23,8 °C 50 % 60 % 1022,7 hPa 0,0 l/m² 11,6 km/h (2 Bft) O-SO 107 ° 2 min 635 W/m² 15,6 °C 22,5 °C 16,1 km/h (3 Bft)
05.09.2022 11:20 24,2 °C 23,9 °C 50 % 61 % 1022,8 hPa 0,0 l/m² 12,0 km/h (2 Bft) O 86 ° 1 min 636 W/m² 15,9 °C 22,5 °C 14,5 km/h (3 Bft)
05.09.2022 11:21 24,2 °C 23,9 °C 50 % 61 % 1022,8 hPa 0,0 l/m² 15,4 km/h (3 Bft) O-NO 77 ° 1 min 633 W/m² 15,9 °C 21,9 °C 20,9 km/h (4 Bft)
05.09.2022 11:22 24,2 °C 24,0 °C 50 % 60 % 1022,8 hPa 0,0 l/m² 10,7 km/h (2 Bft) O 90 ° 1 min 647 W/m² 15,7 °C 22,9 °C 17,7 km/h (3 Bft)
05.09.2022 11:23 24,2 °C 24,0 °C 50 % 60 % 1022,8 hPa 0,0 l/m² 16,0 km/h (3 Bft) O 86 ° 1 min 649 W/m² 15,7 °C 21,9 °C 19,3 km/h (3 Bft)
05.09.2022 11:24 24,2 °C 24,1 °C 50 % 60 % 1022,7 hPa 0,0 l/m² 15,6 km/h (3 Bft) O 99 ° 1 min 649 W/m² 15,8 °C 22,1 °C 19,3 km/h (3 Bft)
05.09.2022 11:26 24,2 °C 24,1 °C 50 % 60 % 1022,8 hPa 0,0 l/m² 14,7 km/h (3 Bft) O-SO 102 ° 2 min 652 W/m² 15,8 °C 22,3 °C 20,9 km/h (4 Bft)
05.09.2022 11:28 24,2 °C 24,1 °C 50 % 60 % 1022,7 hPa 0,0 l/m² 14,8 km/h (3 Bft) O 96 ° 2 min 661 W/m² 15,8 °C 22,2 °C 19,3 km/h (3 Bft)
05.09.2022 11:30 24,2 °C 24,1 °C 50 % 60 % 1022,8 hPa 0,0 l/m² 15,0 km/h (3 Bft) O 97 ° 2 min 661 W/m² 15,8 °C 22,2 °C 19,3 km/h (3 Bft)
05.09.2022 11:31 24,3 °C 24,2 °C 50 % 60 % 1022,8 hPa 0,0 l/m² 9,0 km/h (2 Bft) O 98 ° 1 min 663 W/m² 15,9 °C 23,5 °C 16,1 km/h (3 Bft)
05.09.2022 11:32 24,3 °C 24,2 °C 50 % 60 % 1022,7 hPa 0,0 l/m² 14,9 km/h (3 Bft) O 91 ° 1 min 664 W/m² 15,9 °C 22,4 °C 19,3 km/h (3 Bft)
05.09.2022 11:33 24,3 °C 24,2 °C 50 % 59 % 1022,7 hPa 0,0 l/m² 16,2 km/h (3 Bft) O 86 ° 1 min 668 W/m² 15,7 °C 22,2 °C 19,3 km/h (3 Bft)
05.09.2022 11:34 24,3 °C 24,3 °C 50 % 59 % 1022,7 hPa 0,0 l/m² 15,7 km/h (3 Bft) O-SO 111 ° 1 min 668 W/m² 15,8 °C 22,4 °C 19,3 km/h (3 Bft)
05.09.2022 11:36 24,3 °C 24,3 °C 50 % 59 % 1022,7 hPa 0,0 l/m² 12,9 km/h (3 Bft) O-SO 117 ° 2 min 668 W/m² 15,8 °C 22,8 °C 16,1 km/h (3 Bft)
05.09.2022 11:38 24,3 °C 24,3 °C 50 % 60 % 1022,7 hPa 0,0 l/m² 12,1 km/h (2 Bft) NO 53 ° 2 min 675 W/m² 16,0 °C 23,0 °C 19,3 km/h (3 Bft)
05.09.2022 11:40 24,3 °C 24,4 °C 50 % 59 % 1022,7 hPa 0,0 l/m² 13,8 km/h (3 Bft) O 94 ° 2 min 666 W/m² 15,9 °C 22,8 °C 20,9 km/h (4 Bft)
05.09.2022 11:41 24,3 °C 24,6 °C 50 % 59 % 1022,7 hPa 0,0 l/m² 13,6 km/h (3 Bft) O 100 ° 1 min 677 W/m² 16,0 °C 23,0 °C 19,3 km/h (3 Bft)
05.09.2022 11:42 24,3 °C 24,6 °C 50 % 59 % 1022,7 hPa 0,0 l/m² 15,5 km/h (3 Bft) O-NO 78 ° 1 min 679 W/m² 16,0 °C 22,7 °C 22,5 km/h (4 Bft)
05.09.2022 11:43 24,3 °C 24,6 °C 50 % 58 % 1022,7 hPa 0,0 l/m² 17,1 km/h (3 Bft) O 92 ° 1 min 687 W/m² 15,8 °C 22,5 °C 20,9 km/h (4 Bft)
05.09.2022 11:44 24,3 °C 24,6 °C 50 % 58 % 1022,6 hPa 0,0 l/m² 17,2 km/h (3 Bft) O-SO 109 ° 1 min 689 W/m² 15,8 °C 22,5 °C 20,9 km/h (4 Bft)
05.09.2022 11:46 24,4 °C 24,6 °C 50 % 58 % 1022,7 hPa 0,0 l/m² 16,6 km/h (3 Bft) O 81 ° 2 min 686 W/m² 15,8 °C 22,6 °C 20,9 km/h (4 Bft)
05.09.2022 11:48 24,4 °C 24,6 °C 50 % 58 % 1022,7 hPa 0,0 l/m² 14,0 km/h (3 Bft) O 94 ° 2 min 691 W/m² 15,8 °C 23,0 °C 19,3 km/h (3 Bft)
05.09.2022 11:50 24,4 °C 24,7 °C 50 % 59 % 1022,6 hPa 0,0 l/m² 11,0 km/h (2 Bft) O-NO 77 ° 2 min 686 W/m² 16,1 °C 23,6 °C 17,7 km/h (3 Bft)
05.09.2022 11:51 24,4 °C 24,6 °C 50 % 58 % 1022,6 hPa 0,0 l/m² 18,8 km/h (3 Bft) O 80 ° 1 min 684 W/m² 15,8 °C 22,3 °C 22,5 km/h (4 Bft)
05.09.2022 11:52 24,4 °C 24,7 °C 50 % 58 % 1022,6 hPa 0,0 l/m² 16,6 km/h (3 Bft) O-NO 78 ° 1 min 694 W/m² 15,9 °C 22,7 °C 22,5 km/h (4 Bft)
05.09.2022 11:53 24,4 °C 24,7 °C 50 % 58 % 1022,7 hPa 0,0 l/m² 13,4 km/h (3 Bft) O 90 ° 1 min 698 W/m² 15,9 °C 23,2 °C 17,7 km/h (3 Bft)
05.09.2022 11:54 24,4 °C 24,7 °C 50 % 58 % 1022,7 hPa 0,0 l/m² 16,0 km/h (3 Bft) O-SO 104 ° 1 min 680 W/m² 15,9 °C 22,8 °C 19,3 km/h (3 Bft)
05.09.2022 11:56 24,4 °C 24,8 °C 50 % 58 % 1022,7 hPa 0,0 l/m² 12,9 km/h (3 Bft) O 80 ° 2 min 689 W/m² 16,0 °C 23,4 °C 17,7 km/h (3 Bft)
05.09.2022 11:58 24,4 °C 24,9 °C 50 % 57 % 1022,7 hPa 0,0 l/m² 12,9 km/h (3 Bft) O 92 ° 2 min 675 W/m² 15,8 °C 23,5 °C 20,9 km/h (4 Bft)
05.09.2022 12:00 24,4 °C 24,9 °C 50 % 57 % 1022,6 hPa 0,0 l/m² 16,7 km/h (3 Bft) O 88 ° 2 min 714 W/m² 15,8 °C 22,9 °C 22,5 km/h (4 Bft)
05.09.2022 12:01 24,4 °C 24,9 °C 50 % 57 % 1022,6 hPa 0,0 l/m² 14,8 km/h (3 Bft) O 81 ° 1 min 721 W/m² 15,8 °C 23,2 °C 17,7 km/h (3 Bft)
05.09.2022 12:02 24,4 °C 24,9 °C 50 % 57 % 1022,5 hPa 0,0 l/m² 18,4 km/h (3 Bft) O-SO 109 ° 1 min 722 W/m² 15,8 °C 22,7 °C 22,5 km/h (4 Bft)
05.09.2022 12:03 24,4 °C 24,9 °C 50 % 57 % 1022,6 hPa 0,0 l/m² 17,6 km/h (3 Bft) O 85 ° 1 min 719 W/m² 15,8 °C 22,8 °C 20,9 km/h (4 Bft)
05.09.2022 12:04 24,5 °C 24,9 °C 50 % 57 % 1022,6 hPa 0,0 l/m² 14,9 km/h (3 Bft) O 80 ° 1 min 714 W/m² 15,8 °C 23,2 °C 19,3 km/h (3 Bft)
05.09.2022 12:06 24,5 °C 25,0 °C 50 % 57 % 1022,6 hPa 0,0 l/m² 12,8 km/h (3 Bft) O 94 ° 2 min 717 W/m² 15,9 °C 23,7 °C 19,3 km/h (3 Bft)
05.09.2022 12:07 24,6 °C 25,0 °C 50 % 57 % 1022,6 hPa 0,0 l/m² 15,5 km/h (3 Bft) O-SO 104 ° 1 min 721 W/m² 15,9 °C 23,2 °C 17,7 km/h (3 Bft)
05.09.2022 12:08 24,5 °C 25,1 °C 50 % 57 % 1022,6 hPa 0,0 l/m² 14,6 km/h (3 Bft) O 92 ° 1 min 722 W/m² 16,0 °C 23,5 °C 19,3 km/h (3 Bft)
05.09.2022 12:10 24,5 °C 25,1 °C 50 % 57 % 1022,5 hPa 0,0 l/m² 14,0 km/h (3 Bft) O 94 ° 2 min 712 W/m² 16,0 °C 23,6 °C 20,9 km/h (4 Bft)
05.09.2022 12:11 24,6 °C 25,2 °C 50 % 57 % 1022,5 hPa 0,0 l/m² 18,4 km/h (3 Bft) O-SO 105 ° 1 min 694 W/m² 16,1 °C 23,1 °C 22,5 km/h (4 Bft)
05.09.2022 12:12 24,6 °C 25,2 °C 50 % 56 % 1022,4 hPa 0,0 l/m² 13,1 km/h (3 Bft) SO 130 ° 1 min 703 W/m² 15,8 °C 23,8 °C 17,7 km/h (3 Bft)
05.09.2022 12:13 24,6 °C 25,2 °C 50 % 56 % 1022,5 hPa 0,0 l/m² 14,6 km/h (3 Bft) O-SO 118 ° 1 min 712 W/m² 15,8 °C 23,6 °C 17,7 km/h (3 Bft)
05.09.2022 12:15 24,6 °C 25,3 °C 50 % 56 % 1022,4 hPa 0,0 l/m² 12,8 km/h (3 Bft) O 98 ° 2 min 707 W/m² 15,9 °C 24,0 °C 16,1 km/h (3 Bft)
05.09.2022 12:17 24,6 °C 25,4 °C 50 % 56 % 1022,4 hPa 0,0 l/m² 13,3 km/h (3 Bft) O-NO 68 ° 2 min 682 W/m² 16,0 °C 24,0 °C 20,9 km/h (4 Bft)
05.09.2022 12:19 24,6 °C 25,5 °C 50 % 56 % 1022,5 hPa 0,0 l/m² 12,6 km/h (3 Bft) O-NO 67 ° 2 min 615 W/m² 16,1 °C 24,3 °C 19,3 km/h (3 Bft)
05.09.2022 12:21 24,6 °C 25,6 °C 50 % 56 % 1022,4 hPa 0,0 l/m² 13,3 km/h (3 Bft) O 87 ° 2 min 675 W/m² 16,2 °C 24,3 °C 20,9 km/h (4 Bft)
05.09.2022 12:22 24,6 °C 25,6 °C 50 % 55 % 1022,4 hPa 0,0 l/m² 15,7 km/h (3 Bft) O-SO 120 ° 1 min 701 W/m² 15,9 °C 23,9 °C 17,7 km/h (3 Bft)
05.09.2022 12:23 24,6 °C 25,7 °C 50 % 55 % 1022,4 hPa 0,0 l/m² 14,7 km/h (3 Bft) O-NO 75 ° 1 min 698 W/m² 16,0 °C 24,2 °C 22,5 km/h (4 Bft)
05.09.2022 12:25 24,6 °C 25,6 °C 50 % 55 % 1022,4 hPa 0,0 l/m² 19,2 km/h (3 Bft) O 95 ° 2 min 673 W/m² 15,9 °C 23,5 °C 25,7 km/h (4 Bft)
05.09.2022 12:27 24,6 °C 25,6 °C 50 % 55 % 1022,4 hPa 0,0 l/m² 12,6 km/h (3 Bft) O 98 ° 2 min 668 W/m² 15,9 °C 24,4 °C 19,3 km/h (3 Bft)
05.09.2022 12:29 24,6 °C 25,6 °C 50 % 55 % 1022,3 hPa 0,0 l/m² 15,6 km/h (3 Bft) O 82 ° 2 min 729 W/m² 15,9 °C 24,0 °C 25,7 km/h (4 Bft)
05.09.2022 12:31 24,6 °C 25,7 °C 50 % 55 % 1022,3 hPa 0,0 l/m² 15,5 km/h (3 Bft) O-SO 121 ° 2 min 710 W/m² 16,0 °C 24,1 °C 22,5 km/h (4 Bft)
05.09.2022 12:32 24,6 °C 25,8 °C 50 % 55 % 1022,3 hPa 0,0 l/m² 11,8 km/h (2 Bft) O 92 ° 1 min 719 W/m² 16,1 °C 24,7 °C 12,9 km/h (3 Bft)
05.09.2022 12:33 24,6 °C 25,8 °C 50 % 54 % 1022,4 hPa 0,0 l/m² 15,7 km/h (3 Bft) O 82 ° 1 min 689 W/m² 15,8 °C 24,2 °C 19,3 km/h (3 Bft)
05.09.2022 12:35 24,6 °C 25,9 °C 50 % 54 % 1022,4 hPa 0,0 l/m² 17,7 km/h (3 Bft) O 94 ° 2 min 689 W/m² 15,9 °C 24,1 °C 22,5 km/h (4 Bft)
05.09.2022 12:37 24,6 °C 25,9 °C 50 % 54 % 1022,3 hPa 0,0 l/m² 12,6 km/h (3 Bft) O 93 ° 2 min 684 W/m² 15,9 °C 24,7 °C 16,1 km/h (3 Bft)
05.09.2022 12:39 24,7 °C 25,9 °C 50 % 55 % 1022,3 hPa 0,0 l/m² 17,2 km/h (3 Bft) O 88 ° 2 min 698 W/m² 16,2 °C 24,1 °C 24,1 km/h (4 Bft)
05.09.2022 12:41 24,6 °C 25,9 °C 50 % 54 % 1022,4 hPa 0,0 l/m² 15,6 km/h (3 Bft) O 88 ° 2 min 701 W/m² 15,9 °C 24,3 °C 20,9 km/h (4 Bft)
05.09.2022 12:42 24,7 °C 25,9 °C 50 % 54 % 1022,3 hPa 0,0 l/m² 14,5 km/h (3 Bft) O 90 ° 1 min 696 W/m² 15,9 °C 24,5 °C 16,1 km/h (3 Bft)
05.09.2022 12:43 24,7 °C 26,0 °C 50 % 54 % 1022,3 hPa 0,0 l/m² 14,0 km/h (3 Bft) O 84 ° 1 min 714 W/m² 16,0 °C 24,7 °C 17,7 km/h (3 Bft)
05.09.2022 12:45 24,7 °C 26,1 °C 50 % 54 % 1022,3 hPa 0,0 l/m² 17,0 km/h (3 Bft) O 95 ° 2 min 687 W/m² 16,0 °C 24,4 °C 22,5 km/h (4 Bft)
05.09.2022 12:47 24,7 °C 26,1 °C 50 % 54 % 1022,4 hPa 0,0 l/m² 16,6 km/h (3 Bft) O-SO 107 ° 2 min 621 W/m² 16,0 °C 24,4 °C 20,9 km/h (4 Bft)
05.09.2022 12:48 24,7 °C 26,2 °C 50 % 54 % 1022,2 hPa 0,0 l/m² 13,9 km/h (3 Bft) O-SO 117 ° 1 min 652 W/m² 16,1 °C 24,9 °C 17,7 km/h (3 Bft)
05.09.2022 12:49 24,7 °C 26,2 °C 50 % 54 % 1022,3 hPa 0,0 l/m² 17,7 km/h (3 Bft) O 96 ° 1 min 680 W/m² 16,1 °C 24,4 °C 20,9 km/h (4 Bft)
05.09.2022 12:50 24,7 °C 26,2 °C 50 % 54 % 1022,4 hPa 0,0 l/m² 16,7 km/h (3 Bft) O-NO 74 ° 1 min 684 W/m² 16,1 °C 24,6 °C 19,3 km/h (3 Bft)
05.09.2022 12:52 24,7 °C 26,2 °C 50 % 54 % 1022,2 hPa 0,0 l/m² 15,5 km/h (3 Bft) O 90 ° 2 min 763 W/m² 16,1 °C 24,7 °C 20,9 km/h (4 Bft)
05.09.2022 12:53 24,7 °C 26,2 °C 50 % 54 % 1022,3 hPa 0,0 l/m² 16,1 km/h (3 Bft) O-SO 111 ° 1 min 751 W/m² 16,1 °C 24,6 °C 20,9 km/h (4 Bft)
05.09.2022 12:54 24,6 °C 26,2 °C 50 % 54 % 1022,2 hPa 0,0 l/m² 11,9 km/h (2 Bft) O 94 ° 1 min 751 W/m² 16,1 °C 25,2 °C 14,5 km/h (3 Bft)
05.09.2022 12:56 24,6 °C 26,3 °C 50 % 54 % 1022,2 hPa 0,0 l/m² 8,4 km/h (2 Bft) NO 35 ° 2 min 749 W/m² 16,2 °C 25,9 °C 14,5 km/h (3 Bft)
05.09.2022 12:58 24,6 °C 26,4 °C 50 % 54 % 1022,1 hPa 0,0 l/m² 11,6 km/h (2 Bft) O 98 ° 2 min 742 W/m² 16,3 °C 25,5 °C 24,1 km/h (4 Bft)
05.09.2022 13:00 24,6 °C 26,6 °C 50 % 53 % 1022,2 hPa 0,0 l/m² 12,6 km/h (3 Bft) O-SO 107 ° 2 min 740 W/m² 16,2 °C 25,5 °C 16,1 km/h (3 Bft)
05.09.2022 13:02 24,6 °C 26,7 °C 50 % 53 % 1022,1 hPa 0,0 l/m² 13,6 km/h (3 Bft) O 85 ° 2 min 738 W/m² 16,3 °C 25,5 °C 22,5 km/h (4 Bft)
05.09.2022 13:03 24,5 °C 26,8 °C 50 % 53 % 1022,1 hPa 0,0 l/m² 13,3 km/h (3 Bft) O 80 ° 1 min 719 W/m² 16,4 °C 25,7 °C 16,1 km/h (3 Bft)
05.09.2022 13:04 24,5 °C 26,8 °C 50 % 53 % 1022,1 hPa 0,0 l/m² 12,8 km/h (3 Bft) O-NO 74 ° 1 min 745 W/m² 16,4 °C 25,8 °C 16,1 km/h (3 Bft)
05.09.2022 13:06 24,5 °C 26,9 °C 50 % 52 % 1022,1 hPa 0,0 l/m² 11,9 km/h (2 Bft) O 85 ° 2 min 754 W/m² 16,2 °C 26,0 °C 24,1 km/h (4 Bft)
05.09.2022 13:08 24,4 °C 27,0 °C 50 % 52 % 1022,0 hPa 0,0 l/m² 17,4 km/h (3 Bft) O-SO 108 ° 2 min 759 W/m² 16,3 °C 25,5 °C 22,5 km/h (4 Bft)
05.09.2022 13:10 24,4 °C 26,9 °C 50 % 51 % 1022,1 hPa 0,0 l/m² 13,5 km/h (3 Bft) O-SO 123 ° 2 min 756 W/m² 15,9 °C 25,8 °C 20,9 km/h (4 Bft)
05.09.2022 13:12 24,4 °C 26,9 °C 50 % 52 % 1021,9 hPa 0,0 l/m² 15,4 km/h (3 Bft) O 96 ° 2 min 749 W/m² 16,2 °C 25,6 °C 24,1 km/h (4 Bft)
05.09.2022 13:13 24,4 °C 26,9 °C 50 % 52 % 1022,0 hPa 0,0 l/m² 16,8 km/h (3 Bft) O-NO 72 ° 1 min 749 W/m² 16,2 °C 25,4 °C 19,3 km/h (3 Bft)
05.09.2022 13:15 24,4 °C 26,9 °C 51 % 51 % 1022,0 hPa 0,0 l/m² 12,6 km/h (3 Bft) O 90 ° 2 min 735 W/m² 15,9 °C 25,9 °C 17,7 km/h (3 Bft)
05.09.2022 13:16 24,4 °C 26,9 °C 51 % 51 % 1022,0 hPa 0,0 l/m² 9,7 km/h (2 Bft) O-SO 105 ° 1 min 731 W/m² 15,9 °C 26,3 °C 14,5 km/h (3 Bft)
05.09.2022 13:17 24,4 °C 26,9 °C 51 % 51 % 1022,0 hPa 0,0 l/m² 16,0 km/h (3 Bft) O 92 ° 1 min 722 W/m² 15,9 °C 25,5 °C 25,7 km/h (4 Bft)
05.09.2022 13:18 24,4 °C 26,9 °C 51 % 51 % 1022,0 hPa 0,0 l/m² 19,8 km/h (3 Bft) O 90 ° 1 min 719 W/m² 15,9 °C 25,1 °C 25,7 km/h (4 Bft)
05.09.2022 13:20 24,3 °C 26,9 °C 51 % 51 % 1021,9 hPa 0,0 l/m² 16,5 km/h (3 Bft) O 96 ° 2 min 735 W/m² 15,9 °C 25,4 °C 25,7 km/h (4 Bft)
05.09.2022 13:22 24,3 °C 26,9 °C 51 % 52 % 1021,9 hPa 0,0 l/m² 15,9 km/h (3 Bft) O 90 ° 2 min 708 W/m² 16,2 °C 25,5 °C 24,1 km/h (4 Bft)
05.09.2022 13:23 24,3 °C 26,9 °C 51 % 52 % 1021,9 hPa 0,0 l/m² 11,5 km/h (2 Bft) O-SO 103 ° 1 min 680 W/m² 16,2 °C 26,0 °C 20,9 km/h (4 Bft)
05.09.2022 13:24 24,3 °C 26,9 °C 51 % 52 % 1021,9 hPa 0,0 l/m² 13,7 km/h (3 Bft) O-SO 105 ° 1 min 691 W/m² 16,2 °C 25,8 °C 17,7 km/h (3 Bft)
05.09.2022 13:26 24,3 °C 27,0 °C 51 % 52 % 1021,8 hPa 0,0 l/m² 15,9 km/h (3 Bft) O 90 ° 2 min 671 W/m² 16,3 °C 25,6 °C 25,7 km/h (4 Bft)
05.09.2022 13:28 24,3 °C 27,0 °C 51 % 52 % 1021,9 hPa 0,0 l/m² 17,1 km/h (3 Bft) O 86 ° 2 min 642 W/m² 16,3 °C 25,5 °C 24,1 km/h (4 Bft)
05.09.2022 13:30 24,3 °C 27,0 °C 51 % 51 % 1021,8 hPa 0,0 l/m² 11,6 km/h (2 Bft) O 98 ° 2 min 679 W/m² 16,0 °C 26,1 °C 17,7 km/h (3 Bft)
05.09.2022 13:32 24,3 °C 27,0 °C 51 % 52 % 1021,8 hPa 0,0 l/m² 8,9 km/h (2 Bft) O 91 ° 2 min 663 W/m² 16,3 °C 26,5 °C 16,1 km/h (3 Bft)
05.09.2022 13:33 24,3 °C 27,0 °C 51 % 51 % 1021,8 hPa 0,0 l/m² 17,3 km/h (3 Bft) O-SO 105 ° 1 min 652 W/m² 16,0 °C 25,5 °C 19,3 km/h (3 Bft)
05.09.2022 13:34 24,3 °C 27,1 °C 51 % 51 % 1021,8 hPa 0,0 l/m² 14,9 km/h (3 Bft) O 86 ° 1 min 526 W/m² 16,1 °C 25,9 °C 19,3 km/h (3 Bft)
05.09.2022 13:36 24,3 °C 27,1 °C 51 % 52 % 1021,8 hPa 0,0 l/m² 12,4 km/h (2 Bft) NO 55 ° 2 min 545 W/m² 16,4 °C 26,2 °C 17,7 km/h (3 Bft)
05.09.2022 13:38 24,2 °C 27,2 °C 51 % 51 % 1021,7 hPa 0,0 l/m² 8,9 km/h (2 Bft) O-NO 69 ° 2 min 534 W/m² 16,2 °C 26,8 °C 14,5 km/h (3 Bft)
05.09.2022 13:40 24,2 °C 27,2 °C 51 % 51 % 1021,8 hPa 0,0 l/m² 10,5 km/h (2 Bft) O 91 ° 2 min 703 W/m² 16,2 °C 26,5 °C 14,5 km/h (3 Bft)
05.09.2022 13:42 24,2 °C 27,3 °C 51 % 52 % 1021,7 hPa 0,0 l/m² 12,4 km/h (2 Bft) SO 127 ° 2 min 756 W/m² 16,6 °C 26,4 °C 22,5 km/h (4 Bft)
05.09.2022 13:43 24,2 °C 27,4 °C 51 % 51 % 1021,8 hPa 0,0 l/m² 12,2 km/h (2 Bft) O-SO 113 ° 1 min 758 W/m² 16,3 °C 26,5 °C 16,1 km/h (3 Bft)
05.09.2022 13:44 24,2 °C 27,4 °C 51 % 50 % 1021,8 hPa 0,0 l/m² 11,1 km/h (2 Bft) SO 128 ° 1 min 745 W/m² 16,0 °C 26,7 °C 16,1 km/h (3 Bft)
05.09.2022 13:46 24,2 °C 27,6 °C 51 % 50 % 1021,8 hPa 0,0 l/m² 11,4 km/h (2 Bft) SO 139 ° 2 min 754 W/m² 16,2 °C 26,9 °C 17,7 km/h (3 Bft)
05.09.2022 13:48 24,2 °C 27,7 °C 51 % 49 % 1021,8 hPa 0,0 l/m² 13,6 km/h (3 Bft) O-NO 76 ° 2 min 710 W/m² 16,0 °C 26,7 °C 24,1 km/h (4 Bft)
05.09.2022 13:50 24,2 °C 27,7 °C 51 % 49 % 1021,8 hPa 0,0 l/m² 15,4 km/h (3 Bft) O 92 ° 2 min 703 W/m² 16,0 °C 26,5 °C 20,9 km/h (4 Bft)
05.09.2022 13:52 24,2 °C 27,6 °C 51 % 49 % 1021,8 hPa 0,0 l/m² 17,1 km/h (3 Bft) O 100 ° 2 min 744 W/m² 15,9 °C 26,3 °C 24,1 km/h (4 Bft)
05.09.2022 13:53 24,2 °C 27,6 °C 51 % 49 % 1021,8 hPa 0,0 l/m² 11,9 km/h (2 Bft) O-SO 113 ° 1 min 735 W/m² 15,9 °C 26,8 °C 14,5 km/h (3 Bft)
05.09.2022 13:54 24,2 °C 27,6 °C 51 % 49 % 1021,7 hPa 0,0 l/m² 8,1 km/h (2 Bft) O-SO 117 ° 1 min 664 W/m² 15,9 °C 27,3 °C 11,3 km/h (2 Bft)
05.09.2022 13:56 24,2 °C 27,6 °C 51 % 50 % 1021,7 hPa 0,0 l/m² 5,1 km/h (1 Bft) O-SO 115 ° 2 min 726 W/m² 16,2 °C 27,6 °C 14,5 km/h (3 Bft)
05.09.2022 13:58 24,2 °C 27,6 °C 51 % 50 % 1021,8 hPa 0,0 l/m² 10,2 km/h (2 Bft) NO 55 ° 2 min 710 W/m² 16,2 °C 27,0 °C 16,1 km/h (3 Bft)
05.09.2022 14:00 24,2 °C 27,7 °C 51 % 50 % 1021,7 hPa 0,0 l/m² 14,7 km/h (3 Bft) O-NO 63 ° 2 min 712 W/m² 16,3 °C 26,6 °C 20,9 km/h (4 Bft)
05.09.2022 14:02 24,2 °C 27,9 °C 51 % 50 % 1021,7 hPa 0,0 l/m² 6,0 km/h (2 Bft) O-NO 74 ° 2 min 728 W/m² 16,5 °C 27,9 °C 9,7 km/h (2 Bft)
05.09.2022 14:03 24,2 °C 27,9 °C 51 % 50 % 1021,7 hPa 0,0 l/m² 6,9 km/h (2 Bft) O 81 ° 1 min 717 W/m² 16,5 °C 27,8 °C 11,3 km/h (2 Bft)
05.09.2022 14:04 24,2 °C 28,0 °C 51 % 49 % 1021,7 hPa 0,0 l/m² 4,7 km/h (1 Bft) O 82 ° 1 min 703 W/m² 16,3 °C 28,0 °C 12,9 km/h (3 Bft)
05.09.2022 14:06 24,2 °C 28,2 °C 51 % 49 % 1021,7 hPa 0,0 l/m² 8,6 km/h (2 Bft) NO 46 ° 2 min 715 W/m² 16,5 °C 27,9 °C 14,5 km/h (3 Bft)
05.09.2022 14:08 24,2 °C 28,3 °C 51 % 49 % 1021,7 hPa 0,0 l/m² 9,3 km/h (2 Bft) O 82 ° 2 min 747 W/m² 16,5 °C 27,9 °C 16,1 km/h (3 Bft)
05.09.2022 14:10 24,2 °C 28,4 °C 51 % 48 % 1021,6 hPa 0,0 l/m² 14,0 km/h (3 Bft) NO 46 ° 2 min 707 W/m² 16,3 °C 27,5 °C 20,9 km/h (4 Bft)
05.09.2022 14:12 24,2 °C 28,5 °C 51 % 47 % 1021,6 hPa 0,0 l/m² 16,3 km/h (3 Bft) O 84 ° 2 min 710 W/m² 16,1 °C 27,4 °C 22,5 km/h (4 Bft)
05.09.2022 14:13 24,2 °C 28,5 °C 51 % 48 % 1021,6 hPa 0,0 l/m² 13,3 km/h (3 Bft) O-SO 107 ° 1 min 698 W/m² 16,4 °C 27,7 °C 16,1 km/h (3 Bft)
05.09.2022 14:14 24,2 °C 28,4 °C 51 % 48 % 1021,6 hPa 0,0 l/m² 14,7 km/h (3 Bft) O 80 ° 1 min 714 W/m² 16,3 °C 27,5 °C 17,7 km/h (3 Bft)
05.09.2022 14:16 24,2 °C 28,4 °C 51 % 48 % 1021,6 hPa 0,0 l/m² 12,1 km/h (2 Bft) O 88 ° 2 min 737 W/m² 16,3 °C 27,7 °C 19,3 km/h (3 Bft)
05.09.2022 14:18 24,2 °C 28,6 °C 51 % 48 % 1021,5 hPa 0,0 l/m² 8,6 km/h (2 Bft) O-SO 103 ° 2 min 738 W/m² 16,5 °C 28,3 °C 22,5 km/h (4 Bft)
05.09.2022 14:20 24,2 °C 28,5 °C 51 % 47 % 1021,5 hPa 0,0 l/m² 19,6 km/h (3 Bft) O-NO 72 ° 2 min 738 W/m² 16,1 °C 27,2 °C 29,0 km/h (5 Bft)
05.09.2022 14:22 24,2 °C 28,4 °C 51 % 48 % 1021,5 hPa 0,0 l/m² 15,5 km/h (3 Bft) O-SO 102 ° 2 min 731 W/m² 16,3 °C 27,4 °C 19,3 km/h (3 Bft)
05.09.2022 14:23 24,1 °C 28,4 °C 51 % 47 % 1021,5 hPa 0,0 l/m² 13,2 km/h (3 Bft) O-SO 119 ° 1 min 728 W/m² 16,0 °C 27,6 °C 16,1 km/h (3 Bft)
05.09.2022 14:24 24,1 °C 28,4 °C 51 % 47 % 1021,4 hPa 0,0 l/m² 19,6 km/h (3 Bft) O-SO 110 ° 1 min 717 W/m² 16,0 °C 27,1 °C 24,1 km/h (4 Bft)
05.09.2022 14:26 24,1 °C 28,4 °C 51 % 47 % 1021,4 hPa 0,0 l/m² 17,1 km/h (3 Bft) O-SO 109 ° 2 min 722 W/m² 16,0 °C 27,3 °C 24,1 km/h (4 Bft)
05.09.2022 14:28 24,1 °C 28,3 °C 51 % 48 % 1021,4 hPa 0,0 l/m² 13,8 km/h (3 Bft) O 79 ° 2 min 726 W/m² 16,2 °C 27,4 °C 20,9 km/h (4 Bft)
05.09.2022 14:30 24,1 °C 28,3 °C 51 % 48 % 1021,4 hPa 0,0 l/m² 16,8 km/h (3 Bft) O 86 ° 2 min 728 W/m² 16,2 °C 27,2 °C 25,7 km/h (4 Bft)
05.09.2022 14:32 24,1 °C 28,3 °C 51 % 47 % 1021,4 hPa 0,0 l/m² 16,6 km/h (3 Bft) O 86 ° 2 min 721 W/m² 15,9 °C 27,2 °C 22,5 km/h (4 Bft)
05.09.2022 14:33 24,1 °C 28,3 °C 51 % 47 % 1021,3 hPa 0,0 l/m² 15,1 km/h (3 Bft) O 82 ° 1 min 722 W/m² 15,9 °C 27,3 °C 17,7 km/h (3 Bft)
05.09.2022 14:34 24,1 °C 28,3 °C 51 % 48 % 1021,4 hPa 0,0 l/m² 19,2 km/h (3 Bft) O 90 ° 1 min 715 W/m² 16,2 °C 27,0 °C 24,1 km/h (4 Bft)
05.09.2022 14:36 24,1 °C 28,3 °C 51 % 47 % 1021,4 hPa 0,0 l/m² 14,7 km/h (3 Bft) O-NO 75 ° 2 min 686 W/m² 15,9 °C 27,3 °C 19,3 km/h (3 Bft)
05.09.2022 14:38 24,1 °C 28,3 °C 51 % 48 % 1021,3 hPa 0,0 l/m² 8,9 km/h (2 Bft) O-NO 61 ° 2 min 680 W/m² 16,2 °C 27,9 °C 20,9 km/h (4 Bft)
05.09.2022 14:40 24,1 °C 28,3 °C 51 % 47 % 1021,4 hPa 0,0 l/m² 12,2 km/h (2 Bft) O 96 ° 2 min 694 W/m² 15,9 °C 27,6 °C 19,3 km/h (3 Bft)
05.09.2022 14:42 24,1 °C 28,3 °C 51 % 47 % 1021,3 hPa 0,0 l/m² 14,4 km/h (3 Bft) O-SO 121 ° 2 min 691 W/m² 15,9 °C 27,4 °C 20,9 km/h (4 Bft)
05.09.2022 14:43 24,1 °C 28,2 °C 51 % 47 % 1021,4 hPa 0,0 l/m² 7,8 km/h (2 Bft) O-NO 78 ° 1 min 694 W/m² 15,8 °C 28,0 °C 11,3 km/h (2 Bft)
05.09.2022 14:44 24,1 °C 28,3 °C 51 % 48 % 1021,3 hPa 0,0 l/m² 12,0 km/h (2 Bft) O 85 ° 1 min 686 W/m² 16,2 °C 27,6 °C 16,1 km/h (3 Bft)
05.09.2022 14:46 24,1 °C 28,3 °C 51 % 47 % 1021,4 hPa 0,0 l/m² 9,9 km/h (2 Bft) O 94 ° 2 min 686 W/m² 15,9 °C 27,8 °C 16,1 km/h (3 Bft)
05.09.2022 14:48 24,1 °C 28,3 °C 52 % 47 % 1021,3 hPa 0,0 l/m² 15,7 km/h (3 Bft) NO 54 ° 2 min 629 W/m² 15,9 °C 27,2 °C 20,9 km/h (4 Bft)
05.09.2022 14:50 24,1 °C 28,3 °C 52 % 47 % 1021,3 hPa 0,0 l/m² 12,3 km/h (2 Bft) O 82 ° 2 min 696 W/m² 15,9 °C 27,6 °C 19,3 km/h (3 Bft)
05.09.2022 14:52 24,1 °C 28,3 °C 52 % 47 % 1021,3 hPa 0,0 l/m² 7,5 km/h (2 Bft) O 85 ° 2 min 694 W/m² 15,9 °C 28,1 °C 11,3 km/h (2 Bft)
05.09.2022 14:53 24,1 °C 28,3 °C 52 % 47 % 1021,3 hPa 0,0 l/m² 11,2 km/h (2 Bft) O 82 ° 1 min 700 W/m² 15,9 °C 27,7 °C 19,3 km/h (3 Bft)
05.09.2022 14:54 24,1 °C 28,3 °C 52 % 47 % 1021,4 hPa 0,0 l/m² 10,0 km/h (2 Bft) O-SO 109 ° 1 min 710 W/m² 15,9 °C 27,8 °C 16,1 km/h (3 Bft)
05.09.2022 14:56 24,1 °C 28,3 °C 52 % 47 % 1021,3 hPa 0,0 l/m² 9,2 km/h (2 Bft) O-NO 65 ° 2 min 708 W/m² 15,9 °C 27,9 °C 14,5 km/h (3 Bft)
05.09.2022 14:58 24,1 °C 28,4 °C 52 % 47 % 1021,4 hPa 0,0 l/m² 12,0 km/h (2 Bft) O-NO 63 ° 2 min 698 W/m² 16,0 °C 27,7 °C 22,5 km/h (4 Bft)
05.09.2022 15:00 24,1 °C 28,6 °C 52 % 47 % 1021,4 hPa 0,0 l/m² 7,8 km/h (2 Bft) N-NO 32 ° 2 min 693 W/m² 16,2 °C 28,4 °C 16,1 km/h (3 Bft)
05.09.2022 15:02 24,1 °C 28,7 °C 52 % 46 % 1021,3 hPa 0,0 l/m² 3,8 km/h (1 Bft) NO 49 ° 2 min 680 W/m² 15,9 °C 28,7 °C 11,3 km/h (2 Bft)
05.09.2022 15:03 24,1 °C 28,8 °C 52 % 46 % 1021,3 hPa 0,0 l/m² 3,8 km/h (1 Bft) O 96 ° 1 min 680 W/m² 16,0 °C 28,8 °C 6,4 km/h (2 Bft)
05.09.2022 15:04 24,1 °C 28,8 °C 52 % 46 % 1021,3 hPa 0,0 l/m² 5,5 km/h (2 Bft) O-NO 78 ° 1 min 684 W/m² 16,0 °C 28,8 °C 6,4 km/h (2 Bft)
05.09.2022 15:06 24,1 °C 28,9 °C 52 % 46 % 1021,3 hPa 0,0 l/m² 9,5 km/h (2 Bft) O-NO 72 ° 2 min 675 W/m² 16,1 °C 28,5 °C 16,1 km/h (3 Bft)
05.09.2022 15:08 24,1 °C 28,9 °C 52 % 46 % 1021,3 hPa 0,0 l/m² 9,1 km/h (2 Bft) O 94 ° 2 min 657 W/m² 16,1 °C 28,6 °C 19,3 km/h (3 Bft)
05.09.2022 15:10 24,1 °C 29,0 °C 52 % 45 % 1021,3 hPa 0,0 l/m² 10,6 km/h (2 Bft) O 79 ° 2 min 661 W/m² 15,8 °C 28,5 °C 17,7 km/h (3 Bft)
05.09.2022 15:12 24,2 °C 28,9 °C 52 % 45 % 1021,3 hPa 0,0 l/m² 11,0 km/h (2 Bft) O-NO 76 ° 2 min 661 W/m² 15,8 °C 28,4 °C 17,7 km/h (3 Bft)
05.09.2022 15:13 24,1 °C 28,9 °C 52 % 45 % 1021,3 hPa 0,0 l/m² 7,5 km/h (2 Bft) O-SO 117 ° 1 min 139 W/m² 15,8 °C 28,8 °C 9,7 km/h (2 Bft)
05.09.2022 15:14 24,2 °C 28,9 °C 52 % 45 % 1021,2 hPa 0,0 l/m² 6,2 km/h (2 Bft) O 86 ° 1 min 130 W/m² 15,8 °C 28,9 °C 9,7 km/h (2 Bft)
05.09.2022 15:16 24,2 °C 28,8 °C 52 % 45 % 1021,2 hPa 0,0 l/m² 8,0 km/h (2 Bft) O-NO 69 ° 2 min 123 W/m² 15,7 °C 28,6 °C 14,5 km/h (3 Bft)
05.09.2022 15:18 24,2 °C 28,6 °C 52 % 45 % 1021,2 hPa 0,0 l/m² 11,6 km/h (2 Bft) O 87 ° 2 min 134 W/m² 15,5 °C 28,0 °C 14,5 km/h (3 Bft)
05.09.2022 15:20 24,1 °C 28,4 °C 52 % 46 % 1021,2 hPa 0,0 l/m² 7,7 km/h (2 Bft) O-NO 68 ° 2 min 675 W/m² 15,6 °C 28,2 °C 16,1 km/h (3 Bft)
05.09.2022 15:22 24,2 °C 28,4 °C 52 % 46 % 1021,1 hPa 0,0 l/m² 8,3 km/h (2 Bft) SO 132 ° 2 min 691 W/m² 15,6 °C 28,1 °C 17,7 km/h (3 Bft)
05.09.2022 15:23 24,2 °C 28,4 °C 52 % 46 % 1021,1 hPa 0,0 l/m² 16,5 km/h (3 Bft) SO 140 ° 1 min 693 W/m² 15,6 °C 27,3 °C 19,3 km/h (3 Bft)
05.09.2022 15:24 24,2 °C 28,4 °C 52 % 46 % 1021,1 hPa 0,0 l/m² 13,1 km/h (3 Bft) O 89 ° 1 min 694 W/m² 15,6 °C 27,6 °C 17,7 km/h (3 Bft)
05.09.2022 15:26 24,2 °C 28,5 °C 53 % 46 % 1021,1 hPa 0,0 l/m² 9,8 km/h (2 Bft) O-NO 59 ° 2 min 668 W/m² 15,7 °C 28,1 °C 16,1 km/h (3 Bft)
05.09.2022 15:28 24,2 °C 28,7 °C 53 % 46 % 1021,1 hPa 0,0 l/m² 9,1 km/h (2 Bft) O 95 ° 2 min 656 W/m² 15,9 °C 28,4 °C 14,5 km/h (3 Bft)
05.09.2022 15:30 24,2 °C 28,6 °C 53 % 45 % 1021,2 hPa 0,0 l/m² 12,8 km/h (3 Bft) O 101 ° 2 min 654 W/m² 15,5 °C 27,9 °C 19,3 km/h (3 Bft)
05.09.2022 15:32 24,2 °C 28,7 °C 53 % 45 % 1021,2 hPa 0,0 l/m² 14,0 km/h (3 Bft) O-SO 107 ° 2 min 668 W/m² 15,6 °C 27,9 °C 17,7 km/h (3 Bft)
05.09.2022 15:33 24,2 °C 28,7 °C 52 % 45 % 1021,1 hPa 0,0 l/m² 12,7 km/h (3 Bft) O-SO 121 ° 1 min 670 W/m² 15,6 °C 28,0 °C 16,1 km/h (3 Bft)
05.09.2022 15:34 24,2 °C 28,7 °C 52 % 45 % 1021,1 hPa 0,0 l/m² 6,5 km/h (2 Bft) O 96 ° 1 min 664 W/m² 15,6 °C 28,7 °C 11,3 km/h (2 Bft)
05.09.2022 15:36 24,2 °C 28,7 °C 52 % 45 % 1021,1 hPa 0,0 l/m² 8,4 km/h (2 Bft) SO 128 ° 2 min 656 W/m² 15,6 °C 28,4 °C 14,5 km/h (3 Bft)
05.09.2022 15:38 24,2 °C 28,8 °C 52 % 45 % 1021,1 hPa 0,0 l/m² 15,1 km/h (3 Bft) O 85 ° 2 min 645 W/m² 15,7 °C 27,9 °C 19,3 km/h (3 Bft)
05.09.2022 15:40 24,2 °C 28,8 °C 52 % 44 % 1021,0 hPa 0,0 l/m² 5,4 km/h (2 Bft) O 87 ° 2 min 642 W/m² 15,3 °C 28,8 °C 12,9 km/h (3 Bft)
05.09.2022 15:42 24,2 °C 28,8 °C 52 % 44 % 1021,1 hPa 0,0 l/m² 8,5 km/h (2 Bft) O 93 ° 2 min 642 W/m² 15,3 °C 28,5 °C 14,5 km/h (3 Bft)
05.09.2022 15:43 24,2 °C 28,8 °C 52 % 44 % 1021,1 hPa 0,0 l/m² 8,7 km/h (2 Bft) O 98 ° 1 min 642 W/m² 15,3 °C 28,5 °C 14,5 km/h (3 Bft)
05.09.2022 15:44 24,2 °C 28,8 °C 52 % 45 % 1021,1 hPa 0,0 l/m² 12,3 km/h (2 Bft) O 87 ° 1 min 213 W/m² 15,7 °C 28,1 °C 16,1 km/h (3 Bft)
05.09.2022 15:46 24,2 °C 28,7 °C 52 % 45 % 1020,9 hPa 0,0 l/m² 10,0 km/h (2 Bft) O 84 ° 2 min 213 W/m² 15,6 °C 28,3 °C 16,1 km/h (3 Bft)
05.09.2022 15:47 24,2 °C 28,7 °C 52 % 45 % 1021,1 hPa 0,0 l/m² 17,8 km/h (3 Bft) O 86 ° 1 min 213 W/m² 15,6 °C 27,6 °C 22,5 km/h (4 Bft)
05.09.2022 15:49 24,2 °C 28,7 °C 52 % 45 % 1021,0 hPa 0,0 l/m² 15,1 km/h (3 Bft) NO 45 ° 2 min 606 W/m² 15,6 °C 27,8 °C 22,5 km/h (4 Bft)
05.09.2022 15:51 24,2 °C 28,7 °C 52 % 46 % 1021,0 hPa 0,0 l/m² 7,6 km/h (2 Bft) O-NO 62 ° 2 min 596 W/m² 15,9 °C 28,5 °C 19,3 km/h (3 Bft)
05.09.2022 15:52 24,2 °C 28,8 °C 52 % 46 % 1021,0 hPa 0,0 l/m² 8,0 km/h (2 Bft) NO 39 ° 1 min 589 W/m² 16,0 °C 28,6 °C 19,3 km/h (3 Bft)
05.09.2022 15:53 24,2 °C 28,8 °C 52 % 45 % 1020,9 hPa 0,0 l/m² 12,4 km/h (2 Bft) O-NO 77 ° 1 min 575 W/m² 15,7 °C 28,1 °C 14,5 km/h (3 Bft)
05.09.2022 15:55 24,2 °C 28,8 °C 52 % 45 % 1020,9 hPa 0,0 l/m² 8,8 km/h (2 Bft) SO 126 ° 2 min 563 W/m² 15,7 °C 28,5 °C 16,1 km/h (3 Bft)
05.09.2022 15:57 24,2 °C 28,8 °C 52 % 45 % 1020,9 hPa 0,0 l/m² 9,0 km/h (2 Bft) O 86 ° 2 min 531 W/m² 15,7 °C 28,5 °C 16,1 km/h (3 Bft)
05.09.2022 15:59 24,2 °C 28,8 °C 52 % 45 % 1020,9 hPa 0,0 l/m² 19,2 km/h (3 Bft) O-NO 72 ° 2 min 441 W/m² 15,7 °C 27,6 °C 24,1 km/h (4 Bft)
05.09.2022 16:01 24,2 °C 28,8 °C 52 % 45 % 1020,8 hPa 0,0 l/m² 13,6 km/h (3 Bft) NO 34 ° 2 min 592 W/m² 15,7 °C 28,0 °C 20,9 km/h (4 Bft)
05.09.2022 16:02 24,2 °C 28,8 °C 52 % 45 % 1020,8 hPa 0,0 l/m² 10,1 km/h (2 Bft) O-NO 76 ° 1 min 591 W/m² 15,7 °C 28,4 °C 16,1 km/h (3 Bft)
05.09.2022 16:03 24,1 °C 28,8 °C 52 % 45 % 1020,8 hPa 0,0 l/m² 6,1 km/h (2 Bft) O 80 ° 1 min 592 W/m² 15,7 °C 28,8 °C 11,3 km/h (2 Bft)
05.09.2022 16:05 24,2 °C 28,9 °C 52 % 45 % 1020,8 hPa 0,0 l/m² 5,8 km/h (2 Bft) O-NO 57 ° 2 min 582 W/m² 15,8 °C 28,9 °C 11,3 km/h (2 Bft)
05.09.2022 16:07 24,2 °C 29,1 °C 52 % 45 % 1020,7 hPa 0,0 l/m² 10,1 km/h (2 Bft) N-NO 27 ° 2 min 573 W/m² 15,9 °C 28,7 °C 17,7 km/h (3 Bft)
05.09.2022 16:09 24,1 °C 29,1 °C 52 % 44 % 1020,7 hPa 0,0 l/m² 14,4 km/h (3 Bft) O-SO 105 ° 2 min 573 W/m² 15,6 °C 28,3 °C 22,5 km/h (4 Bft)
05.09.2022 16:11 24,2 °C 29,1 °C 52 % 44 % 1020,7 hPa 0,0 l/m² 12,7 km/h (3 Bft) O-NO 59 ° 2 min 541 W/m² 15,6 °C 28,5 °C 19,3 km/h (3 Bft)
05.09.2022 16:12 24,2 °C 29,2 °C 52 % 44 % 1020,8 hPa 0,0 l/m² 10,3 km/h (2 Bft) O-NO 74 ° 1 min 527 W/m² 15,7 °C 28,8 °C 17,7 km/h (3 Bft)
05.09.2022 16:13 24,1 °C 29,2 °C 52 % 44 % 1020,8 hPa 0,0 l/m² 5,7 km/h (2 Bft) O-NO 57 ° 1 min 527 W/m² 15,7 °C 29,2 °C 9,7 km/h (2 Bft)
05.09.2022 16:15 24,1 °C 29,2 °C 52 % 44 % 1020,8 hPa 0,0 l/m² 7,1 km/h (2 Bft) O-NO 76 ° 2 min 109 W/m² 15,7 °C 29,1 °C 12,9 km/h (3 Bft)
05.09.2022 16:17 24,2 °C 29,0 °C 52 % 43 % 1020,6 hPa 0,0 l/m² 11,2 km/h (2 Bft) O 81 ° 2 min 111 W/m² 15,1 °C 28,5 °C 19,3 km/h (3 Bft)
05.09.2022 16:19 24,1 °C 28,8 °C 52 % 44 % 1020,7 hPa 0,0 l/m² 11,9 km/h (2 Bft) O-NO 78 ° 2 min 156 W/m² 15,3 °C 28,2 °C 17,7 km/h (3 Bft)
05.09.2022 16:21 24,1 °C 28,7 °C 53 % 44 % 1020,6 hPa 0,0 l/m² 8,1 km/h (2 Bft) O-NO 62 ° 2 min 503 W/m² 15,2 °C 28,5 °C 14,5 km/h (3 Bft)
05.09.2022 16:22 24,1 °C 28,7 °C 52 % 45 % 1020,7 hPa 0,0 l/m² 8,3 km/h (2 Bft) N-NO 22 ° 1 min 480 W/m² 15,6 °C 28,4 °C 14,5 km/h (3 Bft)
05.09.2022 16:23 24,1 °C 28,6 °C 52 % 45 % 1020,6 hPa 0,0 l/m² 10,1 km/h (2 Bft) O-NO 68 ° 1 min 490 W/m² 15,5 °C 28,1 °C 19,3 km/h (3 Bft)
05.09.2022 16:25 24,1 °C 28,6 °C 52 % 44 % 1020,6 hPa 0,0 l/m² 13,5 km/h (3 Bft) O-NO 61 ° 2 min 459 W/m² 15,1 °C 27,8 °C 20,9 km/h (4 Bft)
05.09.2022 16:27 24,1 °C 28,7 °C 52 % 45 % 1020,5 hPa 0,0 l/m² 9,1 km/h (2 Bft) O 80 ° 2 min 461 W/m² 15,6 °C 28,4 °C 16,1 km/h (3 Bft)
05.09.2022 16:29 24,1 °C 28,7 °C 52 % 45 % 1020,6 hPa 0,0 l/m² 10,3 km/h (2 Bft) O 91 ° 2 min 462 W/m² 15,6 °C 28,2 °C 19,3 km/h (3 Bft)
05.09.2022 16:31 24,1 °C 28,7 °C 52 % 44 % 1020,5 hPa 0,0 l/m² 12,3 km/h (2 Bft) O 88 ° 2 min 469 W/m² 15,2 °C 28,0 °C 20,9 km/h (4 Bft)
05.09.2022 16:32 24,1 °C 28,7 °C 52 % 45 % 1020,6 hPa 0,0 l/m² 13,3 km/h (3 Bft) O 90 ° 1 min 490 W/m² 15,6 °C 27,9 °C 17,7 km/h (3 Bft)
05.09.2022 16:33 24,1 °C 28,7 °C 52 % 45 % 1020,6 hPa 0,0 l/m² 5,5 km/h (2 Bft) NO 46 ° 1 min 489 W/m² 15,6 °C 28,7 °C 9,7 km/h (2 Bft)
05.09.2022 16:35 24,1 °C 28,7 °C 52 % 44 % 1020,5 hPa 0,0 l/m² 6,5 km/h (2 Bft) O 80 ° 2 min 476 W/m² 15,2 °C 28,7 °C 17,7 km/h (3 Bft)
05.09.2022 16:37 24,1 °C 28,7 °C 52 % 44 % 1020,5 hPa 0,0 l/m² 10,6 km/h (2 Bft) O 90 ° 2 min 448 W/m² 15,2 °C 28,2 °C 19,3 km/h (3 Bft)
05.09.2022 16:39 24,1 °C 28,7 °C 52 % 44 % 1020,5 hPa 0,0 l/m² 11,9 km/h (2 Bft) O 92 ° 2 min 427 W/m² 15,2 °C 28,1 °C 17,7 km/h (3 Bft)
05.09.2022 16:41 24,2 °C 28,7 °C 52 % 44 % 1020,5 hPa 0,0 l/m² 10,4 km/h (2 Bft) NO 36 ° 2 min 432 W/m² 15,2 °C 28,2 °C 16,1 km/h (3 Bft)
05.09.2022 16:42 24,1 °C 28,7 °C 52 % 44 % 1020,5 hPa 0,0 l/m² 10,0 km/h (2 Bft) NO 51 ° 1 min 392 W/m² 15,2 °C 28,3 °C 16,1 km/h (3 Bft)
05.09.2022 16:43 24,1 °C 28,7 °C 52 % 44 % 1020,5 hPa 0,0 l/m² 7,8 km/h (2 Bft) O 91 ° 1 min 424 W/m² 15,2 °C 28,5 °C 12,9 km/h (3 Bft)
05.09.2022 16:45 24,1 °C 28,7 °C 52 % 44 % 1020,5 hPa 0,0 l/m² 8,6 km/h (2 Bft) O-SO 108 ° 2 min 436 W/m² 15,2 °C 28,4 °C 12,9 km/h (3 Bft)
05.09.2022 16:47 24,1 °C 28,7 °C 52 % 44 % 1020,5 hPa 0,0 l/m² 10,0 km/h (2 Bft) O-SO 109 ° 2 min 441 W/m² 15,2 °C 28,3 °C 16,1 km/h (3 Bft)
05.09.2022 16:49 24,1 °C 28,7 °C 52 % 44 % 1020,4 hPa 0,0 l/m² 14,2 km/h (3 Bft) O-NO 75 ° 2 min 378 W/m² 15,2 °C 27,9 °C 19,3 km/h (3 Bft)
05.09.2022 16:51 24,1 °C 28,7 °C 52 % 45 % 1020,5 hPa 0,0 l/m² 10,0 km/h (2 Bft) N-NO 14 ° 2 min 408 W/m² 15,6 °C 28,3 °C 19,3 km/h (3 Bft)
05.09.2022 16:53 24,1 °C 28,7 °C 52 % 45 % 1020,4 hPa 0,0 l/m² 8,6 km/h (2 Bft) NO 36 ° 2 min 127 W/m² 15,6 °C 28,4 °C 19,3 km/h (3 Bft)
05.09.2022 16:54 24,1 °C 28,7 °C 52 % 45 % 1020,5 hPa 0,0 l/m² 11,4 km/h (2 Bft) NO 56 ° 1 min 128 W/m² 15,6 °C 28,1 °C 17,7 km/h (3 Bft)
05.09.2022 16:55 24,1 °C 28,7 °C 52 % 44 % 1020,4 hPa 0,0 l/m² 10,8 km/h (2 Bft) NO 47 ° 1 min 134 W/m² 15,2 °C 28,2 °C 17,7 km/h (3 Bft)
05.09.2022 16:57 24,1 °C 28,6 °C 52 % 45 % 1020,4 hPa 0,0 l/m² 12,1 km/h (2 Bft) N-NO 33 ° 2 min 218 W/m² 15,5 °C 27,9 °C 20,9 km/h (4 Bft)
05.09.2022 16:59 24,1 °C 28,6 °C 52 % 45 % 1020,4 hPa 0,0 l/m² 9,5 km/h (2 Bft) NO 39 ° 2 min 327 W/m² 15,5 °C 28,2 °C 19,3 km/h (3 Bft)
05.09.2022 17:01 24,1 °C 28,4 °C 52 % 45 % 1020,5 hPa 0,0 l/m² 10,9 km/h (2 Bft) O-NO 75 ° 2 min 304 W/m² 15,3 °C 27,8 °C 19,3 km/h (3 Bft)
05.09.2022 17:02 24,1 °C 28,4 °C 52 % 45 % 1020,4 hPa 0,0 l/m² 16,4 km/h (3 Bft) NO 51 ° 1 min 381 W/m² 15,3 °C 27,3 °C 22,5 km/h (4 Bft)
05.09.2022 17:03 24,1 °C 28,4 °C 52 % 45 % 1020,4 hPa 0,0 l/m² 9,6 km/h (2 Bft) O-NO 66 ° 1 min 381 W/m² 15,3 °C 28,0 °C 16,1 km/h (3 Bft)
05.09.2022 17:05 24,1 °C 28,4 °C 52 % 45 % 1020,4 hPa 0,0 l/m² 10,7 km/h (2 Bft) NO 50 ° 2 min 100 W/m² 15,3 °C 27,8 °C 20,9 km/h (4 Bft)
05.09.2022 17:07 24,1 °C 28,3 °C 52 % 45 % 1020,4 hPa 0,0 l/m² 7,5 km/h (2 Bft) O 83 ° 2 min 84 W/m² 15,2 °C 28,1 °C 14,5 km/h (3 Bft)
05.09.2022 17:09 24,1 °C 28,2 °C 52 % 45 % 1020,5 hPa 0,0 l/m² 13,2 km/h (3 Bft) O 82 ° 2 min 121 W/m² 15,1 °C 27,4 °C 20,9 km/h (4 Bft)
05.09.2022 17:11 24,1 °C 28,0 °C 52 % 46 % 1020,5 hPa 0,0 l/m² 13,8 km/h (3 Bft) O-NO 75 ° 2 min 188 W/m² 15,3 °C 27,1 °C 22,5 km/h (4 Bft)
05.09.2022 17:12 24,1 °C 27,9 °C 52 % 45 % 1020,4 hPa 0,0 l/m² 6,4 km/h (2 Bft) O 80 ° 1 min 91 W/m² 14,8 °C 27,9 °C 12,9 km/h (3 Bft)
05.09.2022 17:13 24,1 °C 27,9 °C 52 % 46 % 1020,4 hPa 0,0 l/m² 5,9 km/h (2 Bft) N-NO 33 ° 1 min 93 W/m² 15,2 °C 27,9 °C 8,0 km/h (2 Bft)
05.09.2022 17:15 24,1 °C 27,8 °C 52 % 46 % 1020,5 hPa 0,0 l/m² 7,6 km/h (2 Bft) O-NO 59 ° 2 min 155 W/m² 15,1 °C 27,6 °C 14,5 km/h (3 Bft)
05.09.2022 17:17 24,1 °C 27,8 °C 52 % 46 % 1020,4 hPa 0,0 l/m² 4,2 km/h (1 Bft) O-SO 103 ° 2 min 244 W/m² 15,1 °C 27,8 °C 9,7 km/h (2 Bft)
05.09.2022 17:19 24,1 °C 27,7 °C 52 % 46 % 1020,4 hPa 0,0 l/m² 11,4 km/h (2 Bft) NO 53 ° 2 min 330 W/m² 15,0 °C 27,0 °C 16,1 km/h (3 Bft)
05.09.2022 17:21 24,1 °C 27,7 °C 52 % 46 % 1020,4 hPa 0,0 l/m² 11,2 km/h (2 Bft) O-NO 65 ° 2 min 325 W/m² 15,0 °C 27,0 °C 19,3 km/h (3 Bft)
05.09.2022 17:22 24,1 °C 27,7 °C 52 % 46 % 1020,4 hPa 0,0 l/m² 11,9 km/h (2 Bft) NO 52 ° 1 min 334 W/m² 15,0 °C 26,9 °C 16,1 km/h (3 Bft)
05.09.2022 17:23 24,1 °C 27,6 °C 52 % 46 % 1020,5 hPa 0,0 l/m² 10,6 km/h (2 Bft) O-NO 71 ° 1 min 336 W/m² 14,9 °C 27,0 °C 16,1 km/h (3 Bft)
05.09.2022 17:25 24,1 °C 27,7 °C 52 % 46 % 1020,4 hPa 0,0 l/m² 8,7 km/h (2 Bft) O-NO 67 ° 2 min 279 W/m² 15,0 °C 27,3 °C 14,5 km/h (3 Bft)
05.09.2022 17:27 24,1 °C 27,7 °C 52 % 47 % 1020,4 hPa 0,0 l/m² 11,2 km/h (2 Bft) O 80 ° 2 min 322 W/m² 15,3 °C 27,0 °C 17,7 km/h (3 Bft)
05.09.2022 17:29 24,1 °C 27,7 °C 52 % 47 % 1020,5 hPa 0,0 l/m² 11,2 km/h (2 Bft) O 86 ° 2 min 325 W/m² 15,3 °C 27,0 °C 19,3 km/h (3 Bft)
05.09.2022 17:31 24,1 °C 27,7 °C 52 % 46 % 1020,5 hPa 0,0 l/m² 12,3 km/h (2 Bft) O 90 ° 2 min 248 W/m² 15,0 °C 26,9 °C 17,7 km/h (3 Bft)
05.09.2022 17:32 24,1 °C 27,7 °C 52 % 46 % 1020,4 hPa 0,0 l/m² 14,8 km/h (3 Bft) O 86 ° 1 min 318 W/m² 15,0 °C 26,6 °C 17,7 km/h (3 Bft)
05.09.2022 17:33 24,1 °C 27,7 °C 52 % 46 % 1020,4 hPa 0,0 l/m² 12,5 km/h (2 Bft) O 88 ° 1 min 311 W/m² 15,0 °C 26,8 °C 14,5 km/h (3 Bft)
05.09.2022 17:35 24,1 °C 27,7 °C 52 % 46 % 1020,4 hPa 0,0 l/m² 13,8 km/h (3 Bft) O 86 ° 2 min 111 W/m² 15,0 °C 26,7 °C 20,9 km/h (4 Bft)
05.09.2022 17:37 24,1 °C 27,6 °C 52 % 46 % 1020,5 hPa 0,0 l/m² 13,0 km/h (3 Bft) O 80 ° 2 min 172 W/m² 14,9 °C 26,7 °C 20,9 km/h (4 Bft)
05.09.2022 17:39 24,1 °C 27,5 °C 52 % 46 % 1020,3 hPa 0,0 l/m² 11,7 km/h (2 Bft) O-NO 65 ° 2 min 267 W/m² 14,8 °C 26,7 °C 16,1 km/h (3 Bft)
05.09.2022 17:41 24,1 °C 27,5 °C 52 % 46 % 1020,3 hPa 0,0 l/m² 9,0 km/h (2 Bft) N-NO 21 ° 2 min 105 W/m² 14,8 °C 27,1 °C 14,5 km/h (3 Bft)
05.09.2022 17:43 24,1 °C 27,4 °C 52 % 46 % 1020,4 hPa 0,0 l/m² 6,9 km/h (2 Bft) O 82 ° 2 min 100 W/m² 14,7 °C 27,3 °C 14,5 km/h (3 Bft)
05.09.2022 17:44 24,1 °C 27,4 °C 52 % 46 % 1020,4 hPa 0,0 l/m² 6,3 km/h (2 Bft) O 82 ° 1 min 104 W/m² 14,7 °C 27,4 °C 12,9 km/h (3 Bft)
05.09.2022 17:45 24,1 °C 27,4 °C 52 % 46 % 1020,4 hPa 0,0 l/m² 9,9 km/h (2 Bft) O 84 ° 1 min 107 W/m² 14,7 °C 26,8 °C 16,1 km/h (3 Bft)
05.09.2022 17:47 24,1 °C 27,4 °C 52 % 46 % 1020,4 hPa 0,0 l/m² 9,1 km/h (2 Bft) NO 52 ° 2 min 123 W/m² 14,7 °C 26,9 °C 17,7 km/h (3 Bft)
05.09.2022 17:49 24,1 °C 27,3 °C 52 % 46 % 1020,4 hPa 0,0 l/m² 11,8 km/h (2 Bft) NO 47 ° 2 min 125 W/m² 14,6 °C 26,5 °C 17,7 km/h (3 Bft)
05.09.2022 17:51 24,1 °C 27,3 °C 52 % 47 % 1020,4 hPa 0,0 l/m² 14,2 km/h (3 Bft) O-NO 77 ° 2 min 114 W/m² 15,0 °C 26,2 °C 22,5 km/h (4 Bft)
05.09.2022 17:53 24,1 °C 27,2 °C 52 % 47 % 1020,4 hPa 0,0 l/m² 10,3 km/h (2 Bft) O 82 ° 2 min 113 W/m² 14,9 °C 26,6 °C 17,7 km/h (3 Bft)
05.09.2022 17:54 24,1 °C 27,2 °C 52 % 47 % 1020,4 hPa 0,0 l/m² 13,3 km/h (3 Bft) O 84 ° 1 min 123 W/m² 14,9 °C 26,2 °C 19,3 km/h (3 Bft)
05.09.2022 17:55 24,1 °C 27,1 °C 52 % 47 % 1020,4 hPa 0,0 l/m² 12,3 km/h (2 Bft) O 84 ° 1 min 111 W/m² 14,8 °C 26,2 °C 19,3 km/h (3 Bft)
05.09.2022 17:57 24,1 °C 27,0 °C 52 % 47 % 1020,4 hPa 0,0 l/m² 11,3 km/h (2 Bft) O 98 ° 2 min 111 W/m² 14,7 °C 26,2 °C 19,3 km/h (3 Bft)
05.09.2022 17:59 24,1 °C 26,9 °C 52 % 47 % 1020,4 hPa 0,0 l/m² 9,5 km/h (2 Bft) O 82 ° 2 min 114 W/m² 14,6 °C 26,3 °C 17,7 km/h (3 Bft)
05.09.2022 18:01 24,1 °C 26,9 °C 52 % 47 % 1020,4 hPa 0,0 l/m² 10,9 km/h (2 Bft) O 92 ° 2 min 114 W/m² 14,6 °C 26,1 °C 17,7 km/h (3 Bft)
05.09.2022 18:02 24,1 °C 26,9 °C 52 % 47 % 1020,4 hPa 0,0 l/m² 13,1 km/h (3 Bft) O-NO 76 ° 1 min 113 W/m² 14,6 °C 25,8 °C 19,3 km/h (3 Bft)
05.09.2022 18:03 24,1 °C 26,8 °C 53 % 47 % 1020,4 hPa 0,0 l/m² 10,3 km/h (2 Bft) O 86 ° 1 min 109 W/m² 14,5 °C 26,1 °C 17,7 km/h (3 Bft)
05.09.2022 18:05 24,1 °C 26,8 °C 52 % 47 % 1020,4 hPa 0,0 l/m² 8,2 km/h (2 Bft) NO 55 ° 2 min 105 W/m² 14,5 °C 26,5 °C 14,5 km/h (3 Bft)
05.09.2022 18:07 24,1 °C 26,8 °C 53 % 47 % 1020,4 hPa 0,0 l/m² 7,1 km/h (2 Bft) O-NO 67 ° 2 min 107 W/m² 14,5 °C 26,7 °C 11,3 km/h (2 Bft)
05.09.2022 18:09 24,1 °C 26,8 °C 53 % 47 % 1020,4 hPa 0,0 l/m² 10,1 km/h (2 Bft) O-NO 76 ° 2 min 114 W/m² 14,5 °C 26,1 °C 17,7 km/h (3 Bft)
05.09.2022 18:11 24,1 °C 26,7 °C 53 % 47 % 1020,4 hPa 0,0 l/m² 13,4 km/h (3 Bft) O-NO 76 ° 2 min 132 W/m² 14,4 °C 25,6 °C 20,9 km/h (4 Bft)
05.09.2022 18:12 24,1 °C 26,7 °C 53 % 47 % 1020,2 hPa 0,0 l/m² 13,6 km/h (3 Bft) O-NO 65 ° 1 min 109 W/m² 14,4 °C 25,5 °C 19,3 km/h (3 Bft)
05.09.2022 18:13 24,1 °C 26,7 °C 53 % 47 % 1020,4 hPa 0,0 l/m² 11,8 km/h (2 Bft) O-NO 73 ° 1 min 160 W/m² 14,4 °C 25,8 °C 16,1 km/h (3 Bft)
05.09.2022 18:15 24,1 °C 26,7 °C 53 % 47 % 1020,4 hPa 0,0 l/m² 13,3 km/h (3 Bft) O 92 ° 2 min 179 W/m² 14,4 °C 25,6 °C 22,5 km/h (4 Bft)
05.09.2022 18:17 24,1 °C 26,6 °C 53 % 47 % 1020,4 hPa 0,0 l/m² 12,3 km/h (2 Bft) O-NO 59 ° 2 min 160 W/m² 14,3 °C 25,6 °C 19,3 km/h (3 Bft)
05.09.2022 18:19 24,1 °C 26,7 °C 53 % 47 % 1020,4 hPa 0,0 l/m² 10,5 km/h (2 Bft) O 79 ° 2 min 105 W/m² 14,4 °C 26,0 °C 17,7 km/h (3 Bft)
05.09.2022 18:21 24,1 °C 26,6 °C 52 % 47 % 1020,4 hPa 0,0 l/m² 14,2 km/h (3 Bft) O-NO 57 ° 2 min 86 W/m² 14,3 °C 25,3 °C 22,5 km/h (4 Bft)
05.09.2022 18:22 24,1 °C 26,6 °C 52 % 47 % 1020,3 hPa 0,0 l/m² 10,1 km/h (2 Bft) O-NO 57 ° 1 min 125 W/m² 14,3 °C 25,9 °C 17,7 km/h (3 Bft)
05.09.2022 18:23 24,1 °C 26,6 °C 53 % 47 % 1020,4 hPa 0,0 l/m² 13,2 km/h (3 Bft) O-NO 65 ° 1 min 163 W/m² 14,3 °C 25,5 °C 19,3 km/h (3 Bft)
05.09.2022 18:25 24,1 °C 26,6 °C 53 % 48 % 1020,4 hPa 0,0 l/m² 11,9 km/h (2 Bft) NO 38 ° 2 min 160 W/m² 14,7 °C 25,6 °C 20,9 km/h (4 Bft)
05.09.2022 18:27 24,1 °C 26,6 °C 52 % 48 % 1020,5 hPa 0,0 l/m² 10,1 km/h (2 Bft) NO 55 ° 2 min 167 W/m² 14,7 °C 25,9 °C 17,7 km/h (3 Bft)
05.09.2022 18:29 24,1 °C 26,6 °C 52 % 48 % 1020,4 hPa 0,0 l/m² 8,5 km/h (2 Bft) O-NO 64 ° 2 min 163 W/m² 14,7 °C 26,2 °C 14,5 km/h (3 Bft)
05.09.2022 18:31 24,1 °C 26,6 °C 52 % 48 % 1020,5 hPa 0,0 l/m² 7,1 km/h (2 Bft) O-NO 61 ° 2 min 155 W/m² 14,7 °C 26,5 °C 12,9 km/h (3 Bft)
05.09.2022 18:33 24,1 °C 26,6 °C 52 % 48 % 1020,4 hPa 0,0 l/m² 12,4 km/h (2 Bft) O-NO 62 ° 2 min 104 W/m² 14,7 °C 25,6 °C 20,9 km/h (4 Bft)
05.09.2022 18:34 24,1 °C 26,6 °C 52 % 48 % 1020,4 hPa 0,0 l/m² 7,3 km/h (2 Bft) O-NO 78 ° 1 min 98 W/m² 14,7 °C 26,4 °C 11,3 km/h (2 Bft)
05.09.2022 18:35 24,1 °C 26,6 °C 52 % 48 % 1020,4 hPa 0,0 l/m² 11,3 km/h (2 Bft) O-NO 62 ° 1 min 84 W/m² 14,7 °C 25,7 °C 17,7 km/h (3 Bft)
05.09.2022 18:37 24,1 °C 26,7 °C 52 % 48 % 1020,3 hPa 0,0 l/m² 6,2 km/h (2 Bft) NO 47 ° 2 min 77 W/m² 14,8 °C 26,7 °C 14,5 km/h (3 Bft)
05.09.2022 18:39 24,1 °C 26,6 °C 52 % 48 % 1020,3 hPa 0,0 l/m² 11,4 km/h (2 Bft) O-NO 63 ° 2 min 65 W/m² 14,7 °C 25,7 °C 20,9 km/h (4 Bft)
05.09.2022 18:41 24,1 °C 26,6 °C 52 % 48 % 1020,3 hPa 0,0 l/m² 8,1 km/h (2 Bft) O-NO 77 ° 2 min 65 W/m² 14,7 °C 26,3 °C 17,7 km/h (3 Bft)
05.09.2022 18:42 24,1 °C 26,6 °C 52 % 48 % 1020,3 hPa 0,0 l/m² 9,2 km/h (2 Bft) NO 53 ° 1 min 69 W/m² 14,7 °C 26,1 °C 16,1 km/h (3 Bft)
05.09.2022 18:43 24,1 °C 26,6 °C 52 % 48 % 1020,4 hPa 0,0 l/m² 8,6 km/h (2 Bft) NO 50 ° 1 min 60 W/m² 14,7 °C 26,2 °C 16,1 km/h (3 Bft)
05.09.2022 18:45 24,1 °C 26,5 °C 52 % 48 % 1020,4 hPa 0,0 l/m² 9,6 km/h (2 Bft) O-NO 76 ° 2 min 56 W/m² 14,6 °C 25,9 °C 16,1 km/h (3 Bft)
05.09.2022 18:47 24,1 °C 26,4 °C 52 % 48 % 1020,3 hPa 0,0 l/m² 9,5 km/h (2 Bft) O 92 ° 2 min 53 W/m² 14,5 °C 25,8 °C 14,5 km/h (3 Bft)
05.09.2022 18:48 24,1 °C 26,4 °C 52 % 48 % 1020,4 hPa 0,0 l/m² 13,2 km/h (3 Bft) O 80 ° 0 min 49 W/m² 14,5 °C 25,2 °C 19,3 km/h (3 Bft)
05.09.2022 18:50 24,1 °C 26,3 °C 52 % 48 % 1020,3 hPa 0,0 l/m² 8,7 km/h (2 Bft) O-NO 74 ° 0 min 46 W/m² 14,4 °C 25,8 °C 17,7 km/h (3 Bft)
05.09.2022 18:52 24,1 °C 26,3 °C 52 % 48 % 1020,3 hPa 0,0 l/m² 14,1 km/h (3 Bft) NO 56 ° 0 min 44 W/m² 14,4 °C 25,0 °C 22,5 km/h (4 Bft)
05.09.2022 18:53 24,1 °C 26,3 °C 52 % 48 % 1020,4 hPa 0,0 l/m² 12,3 km/h (2 Bft) O 88 ° 0 min 42 W/m² 14,4 °C 25,2 °C 19,3 km/h (3 Bft)
05.09.2022 18:54 24,1 °C 26,2 °C 52 % 49 % 1020,2 hPa 0,0 l/m² 10,4 km/h (2 Bft) O 84 ° 0 min 40 W/m² 14,6 °C 25,4 °C 22,5 km/h (4 Bft)
05.09.2022 18:56 24,1 °C 26,1 °C 52 % 49 % 1020,3 hPa 0,0 l/m² 11,2 km/h (2 Bft) O 94 ° 0 min 39 W/m² 14,5 °C 25,2 °C 19,3 km/h (3 Bft)
05.09.2022 18:58 24,1 °C 26,0 °C 52 % 49 % 1020,3 hPa 0,0 l/m² 12,3 km/h (2 Bft) NO 53 ° 0 min 44 W/m² 14,4 °C 24,9 °C 24,1 km/h (4 Bft)
05.09.2022 19:00 24,1 °C 25,9 °C 52 % 50 % 1020,3 hPa 0,0 l/m² 10,2 km/h (2 Bft) O-NO 71 ° 0 min 40 W/m² 14,7 °C 25,1 °C 16,1 km/h (3 Bft)
05.09.2022 19:02 24,1 °C 25,9 °C 52 % 50 % 1020,2 hPa 0,0 l/m² 8,6 km/h (2 Bft) NO 55 ° 0 min 37 W/m² 14,7 °C 25,4 °C 16,1 km/h (3 Bft)
05.09.2022 19:03 24,1 °C 25,8 °C 52 % 50 % 1020,2 hPa 0,0 l/m² 8,6 km/h (2 Bft) O-NO 74 ° 0 min 35 W/m² 14,6 °C 25,3 °C 20,9 km/h (4 Bft)
05.09.2022 19:04 24,1 °C 25,8 °C 52 % 50 % 1020,2 hPa 0,0 l/m² 14,1 km/h (3 Bft) O 86 ° 0 min 33 W/m² 14,6 °C 24,4 °C 19,3 km/h (3 Bft)
05.09.2022 19:06 24,1 °C 25,7 °C 52 % 50 % 1020,3 hPa 0,0 l/m² 12,9 km/h (3 Bft) O-NO 59 ° 0 min 32 W/m² 14,5 °C 24,5 °C 24,1 km/h (4 Bft)
05.09.2022 19:08 24,1 °C 25,6 °C 52 % 51 % 1020,2 hPa 0,0 l/m² 12,8 km/h (3 Bft) NO 54 ° 0 min 30 W/m² 14,7 °C 24,4 °C 25,7 km/h (4 Bft)
05.09.2022 19:10 24,1 °C 25,6 °C 52 % 51 % 1020,2 hPa 0,0 l/m² 10,6 km/h (2 Bft) NO 46 ° 0 min 32 W/m² 14,7 °C 24,7 °C 16,1 km/h (3 Bft)
05.09.2022 19:12 24,1 °C 25,6 °C 52 % 51 % 1020,3 hPa 0,0 l/m² 13,6 km/h (3 Bft) NO 36 ° 0 min 30 W/m² 14,7 °C 24,2 °C 20,9 km/h (4 Bft)
05.09.2022 19:13 24,1 °C 25,5 °C 52 % 51 % 1020,2 hPa 0,0 l/m² 11,7 km/h (2 Bft) NO 47 ° 0 min 30 W/m² 14,6 °C 24,4 °C 17,7 km/h (3 Bft)
05.09.2022 19:14 24,1 °C 25,4 °C 53 % 51 % 1020,3 hPa 0,0 l/m² 7,3 km/h (2 Bft) NO 47 ° 0 min 25 W/m² 14,5 °C 25,2 °C 14,5 km/h (3 Bft)
05.09.2022 19:16 24,1 °C 25,4 °C 53 % 51 % 1020,3 hPa 0,0 l/m² 8,2 km/h (2 Bft) NO 51 ° 0 min 23 W/m² 14,5 °C 25,0 °C 20,9 km/h (4 Bft)
05.09.2022 19:18 24,1 °C 25,3 °C 53 % 51 % 1020,3 hPa 0,0 l/m² 12,4 km/h (2 Bft) O-NO 57 ° 0 min 21 W/m² 14,4 °C 24,1 °C 19,3 km/h (3 Bft)
05.09.2022 19:20 24,1 °C 25,3 °C 53 % 51 % 1020,3 hPa 0,0 l/m² 9,8 km/h (2 Bft) O-NO 64 ° 0 min 18 W/m² 14,4 °C 24,5 °C 24,1 km/h (4 Bft)
05.09.2022 19:22 24,1 °C 25,2 °C 53 % 52 % 1020,3 hPa 0,0 l/m² 10,7 km/h (2 Bft) NO 51 ° 0 min 14 W/m² 14,6 °C 24,3 °C 16,1 km/h (3 Bft)
05.09.2022 19:23 24,1 °C 25,2 °C 53 % 52 % 1020,3 hPa 0,0 l/m² 11,6 km/h (2 Bft) O-NO 59 ° 0 min 12 W/m² 14,6 °C 24,1 °C 20,9 km/h (4 Bft)
05.09.2022 19:24 24,1 °C 25,2 °C 53 % 52 % 1020,3 hPa 0,0 l/m² 8,0 km/h (2 Bft) O 80 ° 0 min 11 W/m² 14,6 °C 24,8 °C 17,7 km/h (3 Bft)
05.09.2022 19:26 24,1 °C 25,1 °C 53 % 52 % 1020,2 hPa 0,0 l/m² 8,6 km/h (2 Bft) NO 54 ° 0 min 9 W/m² 14,5 °C 24,6 °C 17,7 km/h (3 Bft)
05.09.2022 19:28 24,1 °C 25,1 °C 53 % 52 % 1020,3 hPa 0,0 l/m² 8,2 km/h (2 Bft) N-NO 28 ° 0 min 9 W/m² 14,5 °C 24,7 °C 19,3 km/h (3 Bft)
05.09.2022 19:30 24,1 °C 25,0 °C 53 % 52 % 1020,3 hPa 0,0 l/m² 10,6 km/h (2 Bft) O-NO 60 ° 0 min 9 W/m² 14,4 °C 24,0 °C 17,7 km/h (3 Bft)
05.09.2022 19:32 24,1 °C 24,9 °C 53 % 52 % 1020,3 hPa 0,0 l/m² 11,4 km/h (2 Bft) O 95 ° 0 min 7 W/m² 14,4 °C 23,8 °C 19,3 km/h (3 Bft)
05.09.2022 19:33 24,1 °C 24,9 °C 53 % 52 % 1020,2 hPa 0,0 l/m² 12,8 km/h (3 Bft) O-NO 65 ° 0 min 7 W/m² 14,4 °C 23,5 °C 20,9 km/h (4 Bft)
05.09.2022 19:34 24,1 °C 24,9 °C 53 % 53 % 1020,2 hPa 0,0 l/m² 8,1 km/h (2 Bft) N 360 ° 0 min 7 W/m² 14,6 °C 24,5 °C 11,3 km/h (2 Bft)
05.09.2022 19:36 24,1 °C 24,8 °C 53 % 53 % 1020,2 hPa 0,0 l/m² 11,5 km/h (2 Bft) NO 49 ° 0 min 7 W/m² 14,6 °C 23,6 °C 17,7 km/h (3 Bft)
05.09.2022 19:38 24,1 °C 24,7 °C 53 % 53 % 1020,3 hPa 0,0 l/m² 10,2 km/h (2 Bft) O-NO 76 ° 0 min 5 W/m² 14,5 °C 23,8 °C 16,1 km/h (3 Bft)
05.09.2022 19:40 24,1 °C 24,7 °C 53 % 53 % 1020,3 hPa 0,0 l/m² 10,8 km/h (2 Bft) NO 47 ° 0 min 5 W/m² 14,5 °C 23,7 °C 20,9 km/h (4 Bft)
05.09.2022 19:42 24,1 °C 24,6 °C 53 % 53 % 1020,2 hPa 0,0 l/m² 8,5 km/h (2 Bft) NO 40 ° 0 min 5 W/m² 14,4 °C 24,1 °C 20,9 km/h (4 Bft)
05.09.2022 19:43 24,1 °C 24,6 °C 52 % 53 % 1020,3 hPa 0,0 l/m² 10,0 km/h (2 Bft) O-NO 70 ° 0 min 5 W/m² 14,4 °C 23,7 °C 16,1 km/h (3 Bft)
05.09.2022 19:44 24,1 °C 24,6 °C 53 % 53 % 1020,2 hPa 0,0 l/m² 9,8 km/h (2 Bft) O-NO 63 ° 0 min 5 W/m² 14,4 °C 23,8 °C 17,7 km/h (3 Bft)
05.09.2022 19:46 24,1 °C 24,5 °C 53 % 53 % 1020,2 hPa 0,0 l/m² 9,3 km/h (2 Bft) NO 49 ° 0 min 5 W/m² 14,3 °C 23,8 °C 17,7 km/h (3 Bft)
05.09.2022 19:48 24,1 °C 24,4 °C 53 % 54 % 1020,2 hPa 0,0 l/m² 8,6 km/h (2 Bft) O-NO 65 ° 0 min 0 W/m² 14,5 °C 23,8 °C 16,1 km/h (3 Bft)
05.09.2022 19:50 24,1 °C 24,4 °C 53 % 54 % 1020,3 hPa 0,0 l/m² 5,4 km/h (2 Bft) O-NO 77 ° 0 min 0 W/m² 14,5 °C 24,4 °C 12,9 km/h (3 Bft)
05.09.2022 19:52 24,1 °C 24,3 °C 53 % 54 % 1020,3 hPa 0,0 l/m² 9,2 km/h (2 Bft) O-NO 58 ° 0 min 0 W/m² 14,4 °C 23,6 °C 17,7 km/h (3 Bft)
05.09.2022 19:53 24,1 °C 24,3 °C 53 % 54 % 1020,3 hPa 0,0 l/m² 3,1 km/h (1 Bft) O-NO 60 ° 0 min 0 W/m² 14,4 °C 24,3 °C 6,4 km/h (2 Bft)
05.09.2022 19:54 24,1 °C 24,3 °C 53 % 54 % 1020,3 hPa 0,0 l/m² 8,7 km/h (2 Bft) O-NO 67 ° 0 min 0 W/m² 14,4 °C 23,7 °C 14,5 km/h (3 Bft)
05.09.2022 19:56 24,1 °C 24,3 °C 53 % 54 % 1020,4 hPa 0,0 l/m² 10,8 km/h (2 Bft) NO 40 ° 0 min 0 W/m² 14,4 °C 23,2 °C 17,7 km/h (3 Bft)
05.09.2022 19:58 24,1 °C 24,2 °C 53 % 54 % 1020,4 hPa 0,0 l/m² 5,1 km/h (1 Bft) NO 53 ° 0 min 0 W/m² 14,3 °C 24,2 °C 11,3 km/h (2 Bft)
05.09.2022 20:00 24,1 °C 24,2 °C 53 % 54 % 1020,4 hPa 0,0 l/m² 7,1 km/h (2 Bft) O-NO 64 ° 0 min 0 W/m² 14,3 °C 24,0 °C 14,5 km/h (3 Bft)
05.09.2022 20:02 24,1 °C 24,1 °C 53 % 54 % 1020,4 hPa 0,0 l/m² 7,3 km/h (2 Bft) O 85 ° 0 min 0 W/m² 14,2 °C 23,8 °C 14,5 km/h (3 Bft)
05.09.2022 20:03 24,1 °C 24,1 °C 53 % 54 % 1020,5 hPa 0,0 l/m² 3,4 km/h (1 Bft) NO 50 ° 0 min 0 W/m² 14,2 °C 24,1 °C 6,4 km/h (2 Bft)
05.09.2022 20:04 24,1 °C 24,1 °C 53 % 54 % 1020,4 hPa 0,0 l/m² 13,3 km/h (3 Bft) NO 41 ° 0 min 0 W/m² 14,2 °C 22,5 °C 19,3 km/h (3 Bft)
05.09.2022 20:06 24,1 °C 24,0 °C 53 % 55 % 1020,5 hPa 0,0 l/m² 8,4 km/h (2 Bft) NO 41 ° 0 min 0 W/m² 14,4 °C 23,4 °C 14,5 km/h (3 Bft)
05.09.2022 20:08 24,1 °C 23,9 °C 53 % 55 % 1020,4 hPa 0,0 l/m² 5,2 km/h (1 Bft) O-NO 64 ° 0 min 0 W/m² 14,3 °C 23,9 °C 12,9 km/h (3 Bft)
05.09.2022 20:10 24,1 °C 23,9 °C 53 % 55 % 1020,4 hPa 0,0 l/m² 8,8 km/h (2 Bft) O-NO 63 ° 0 min 0 W/m² 14,3 °C 23,2 °C 16,1 km/h (3 Bft)
05.09.2022 20:12 24,1 °C 23,8 °C 53 % 55 % 1020,4 hPa 0,0 l/m² 7,2 km/h (2 Bft) NO 44 ° 0 min 0 W/m² 14,2 °C 23,6 °C 16,1 km/h (3 Bft)
05.09.2022 20:13 24,0 °C 23,8 °C 53 % 55 % 1020,4 hPa 0,0 l/m² 10,5 km/h (2 Bft) NO 46 ° 0 min 0 W/m² 14,2 °C 22,7 °C 16,1 km/h (3 Bft)
05.09.2022 20:14 24,1 °C 23,8 °C 53 % 55 % 1020,5 hPa 0,0 l/m² 8,6 km/h (2 Bft) O-NO 60 ° 0 min 0 W/m² 14,2 °C 23,2 °C 16,1 km/h (3 Bft)
05.09.2022 20:16 24,1 °C 23,7 °C 53 % 56 % 1020,5 hPa 0,0 l/m² 8,2 km/h (2 Bft) O-NO 61 ° 0 min 0 W/m² 14,4 °C 23,2 °C 16,1 km/h (3 Bft)
05.09.2022 20:18 24,1 °C 23,7 °C 53 % 56 % 1020,5 hPa 0,0 l/m² 5,4 km/h (2 Bft) NO 46 ° 0 min 0 W/m² 14,4 °C 23,7 °C 9,7 km/h (2 Bft)
05.09.2022 20:20 24,0 °C 23,6 °C 53 % 56 % 1020,5 hPa 0,0 l/m² 9,0 km/h (2 Bft) NO 44 ° 0 min 0 W/m² 14,3 °C 22,9 °C 16,1 km/h (3 Bft)
05.09.2022 20:22 24,0 °C 23,5 °C 53 % 56 % 1020,5 hPa 0,0 l/m² 10,8 km/h (2 Bft) NO 51 ° 0 min 0 W/m² 14,2 °C 22,3 °C 20,9 km/h (4 Bft)
05.09.2022 20:23 24,0 °C 23,4 °C 53 % 56 % 1020,5 hPa 0,0 l/m² 14,2 km/h (3 Bft) NO 47 ° 0 min 0 W/m² 14,1 °C 21,5 °C 19,3 km/h (3 Bft)
05.09.2022 20:24 24,1 °C 23,4 °C 53 % 56 % 1020,5 hPa 0,0 l/m² 10,4 km/h (2 Bft) NO 51 ° 0 min 0 W/m² 14,1 °C 22,3 °C 17,7 km/h (3 Bft)
05.09.2022 20:26 24,0 °C 23,4 °C 53 % 57 % 1020,5 hPa 0,0 l/m² 7,9 km/h (2 Bft) NO 49 ° 0 min 0 W/m² 14,4 °C 22,9 °C 19,3 km/h (3 Bft)
05.09.2022 20:28 24,0 °C 23,3 °C 53 % 57 % 1020,5 hPa 0,0 l/m² 9,6 km/h (2 Bft) NO 47 ° 0 min 0 W/m² 14,3 °C 22,4 °C 20,9 km/h (4 Bft)
05.09.2022 20:30 24,0 °C 23,3 °C 53 % 57 % 1020,6 hPa 0,0 l/m² 9,4 km/h (2 Bft) O-NO 74 ° 0 min 0 W/m² 14,3 °C 22,4 °C 16,1 km/h (3 Bft)
05.09.2022 20:32 24,0 °C 23,2 °C 53 % 57 % 1020,5 hPa 0,0 l/m² 9,2 km/h (2 Bft) NO 49 ° 0 min 0 W/m² 14,2 °C 22,4 °C 17,7 km/h (3 Bft)
05.09.2022 20:33 24,1 °C 23,2 °C 53 % 57 % 1020,5 hPa 0,0 l/m² 8,4 km/h (2 Bft) NO 46 ° 0 min 0 W/m² 14,2 °C 22,6 °C 16,1 km/h (3 Bft)
05.09.2022 20:34 24,0 °C 23,2 °C 53 % 58 % 1020,5 hPa 0,0 l/m² 7,4 km/h (2 Bft) NO 42 ° 0 min 0 W/m² 14,5 °C 22,9 °C 9,7 km/h (2 Bft)
05.09.2022 20:36 24,0 °C 23,2 °C 53 % 58 % 1020,5 hPa 0,0 l/m² 8,0 km/h (2 Bft) NO 37 ° 0 min 0 W/m² 14,5 °C 22,7 °C 16,1 km/h (3 Bft)
05.09.2022 20:38 24,0 °C 23,1 °C 53 % 58 % 1020,6 hPa 0,0 l/m² 6,4 km/h (2 Bft) O-NO 61 ° 0 min 0 W/m² 14,4 °C 23,1 °C 11,3 km/h (2 Bft)
05.09.2022 20:40 24,0 °C 23,1 °C 53 % 58 % 1020,6 hPa 0,0 l/m² 8,3 km/h (2 Bft) NO 35 ° 0 min 0 W/m² 14,4 °C 22,5 °C 16,1 km/h (3 Bft)
05.09.2022 20:42 24,1 °C 23,0 °C 53 % 58 % 1020,5 hPa 0,0 l/m² 8,2 km/h (2 Bft) O-NO 63 ° 0 min 0 W/m² 14,3 °C 22,4 °C 16,1 km/h (3 Bft)
05.09.2022 20:43 24,0 °C 22,9 °C 53 % 58 % 1020,5 hPa 0,0 l/m² 7,1 km/h (2 Bft) NO 51 ° 0 min 0 W/m² 14,2 °C 22,7 °C 14,5 km/h (3 Bft)
05.09.2022 20:44 24,0 °C 22,9 °C 53 % 59 % 1020,6 hPa 0,0 l/m² 8,4 km/h (2 Bft) NO 42 ° 0 min 0 W/m² 14,5 °C 22,3 °C 12,9 km/h (3 Bft)
05.09.2022 20:46 24,0 °C 22,9 °C 53 % 59 % 1020,6 hPa 0,0 l/m² 5,6 km/h (2 Bft) O 83 ° 0 min 0 W/m² 14,5 °C 22,9 °C 14,5 km/h (3 Bft)
05.09.2022 20:48 24,0 °C 22,8 °C 53 % 59 % 1020,6 hPa 0,0 l/m² 7,2 km/h (2 Bft) NO 47 ° 0 min 0 W/m² 14,4 °C 22,5 °C 14,5 km/h (3 Bft)
05.09.2022 20:50 24,0 °C 22,8 °C 53 % 59 % 1020,5 hPa 0,0 l/m² 10,3 km/h (2 Bft) O-NO 67 ° 0 min 0 W/m² 14,4 °C 21,7 °C 16,1 km/h (3 Bft)
05.09.2022 20:52 24,0 °C 22,7 °C 53 % 59 % 1020,5 hPa 0,0 l/m² 11,7 km/h (2 Bft) O-NO 57 ° 0 min 0 W/m² 14,3 °C 21,2 °C 19,3 km/h (3 Bft)
05.09.2022 20:53 24,0 °C 22,7 °C 53 % 60 % 1020,5 hPa 0,0 l/m² 9,9 km/h (2 Bft) N-NO 28 ° 0 min 0 W/m² 14,5 °C 21,6 °C 16,1 km/h (3 Bft)
05.09.2022 20:54 24,0 °C 22,7 °C 53 % 60 % 1020,6 hPa 0,0 l/m² 7,8 km/h (2 Bft) N-NO 31 ° 0 min 0 W/m² 14,5 °C 22,2 °C 14,5 km/h (3 Bft)
05.09.2022 20:56 24,0 °C 22,6 °C 53 % 60 % 1020,6 hPa 0,0 l/m² 9,4 km/h (2 Bft) NO 49 ° 0 min 0 W/m² 14,4 °C 21,7 °C 17,7 km/h (3 Bft)
05.09.2022 20:58 24,0 °C 22,6 °C 53 % 60 % 1020,5 hPa 0,0 l/m² 9,6 km/h (2 Bft) O-NO 74 ° 0 min 0 W/m² 14,4 °C 21,6 °C 19,3 km/h (3 Bft)
05.09.2022 21:00 24,0 °C 22,6 °C 53 % 61 % 1020,6 hPa 0,0 l/m² 5,3 km/h (1 Bft) O-NO 78 ° 0 min 0 W/m² 14,7 °C 22,6 °C 11,3 km/h (2 Bft)
05.09.2022 21:02 24,0 °C 22,5 °C 53 % 61 % 1020,5 hPa 0,0 l/m² 6,9 km/h (2 Bft) O-NO 69 ° 0 min 0 W/m² 14,6 °C 22,3 °C 16,1 km/h (3 Bft)
05.09.2022 21:03 24,0 °C 22,5 °C 53 % 61 % 1020,6 hPa 0,0 l/m² 7,9 km/h (2 Bft) O 79 ° 0 min 0 W/m² 14,6 °C 22,0 °C 14,5 km/h (3 Bft)
05.09.2022 21:04 24,0 °C 22,4 °C 53 % 61 % 1020,6 hPa 0,0 l/m² 8,4 km/h (2 Bft) O-NO 64 ° 0 min 0 W/m² 14,5 °C 21,7 °C 14,5 km/h (3 Bft)
05.09.2022 21:06 24,1 °C 22,4 °C 53 % 61 % 1020,6 hPa 0,0 l/m² 5,7 km/h (2 Bft) O-NO 58 ° 0 min 0 W/m² 14,5 °C 22,4 °C 11,3 km/h (2 Bft)
05.09.2022 21:08 24,0 °C 22,3 °C 53 % 61 % 1020,6 hPa 0,0 l/m² 7,4 km/h (2 Bft) O-NO 62 ° 0 min 0 W/m² 14,4 °C 22,0 °C 17,7 km/h (3 Bft)
05.09.2022 21:10 24,1 °C 22,3 °C 53 % 61 % 1020,7 hPa 0,0 l/m² 9,8 km/h (2 Bft) NO 39 ° 0 min 0 W/m² 14,4 °C 21,2 °C 19,3 km/h (3 Bft)
05.09.2022 21:12 24,1 °C 22,3 °C 53 % 62 % 1020,6 hPa 0,0 l/m² 9,5 km/h (2 Bft) NO 43 ° 0 min 0 W/m² 14,7 °C 21,3 °C 16,1 km/h (3 Bft)
05.09.2022 21:13 24,1 °C 22,3 °C 53 % 62 % 1020,6 hPa 0,0 l/m² 7,7 km/h (2 Bft) O-NO 59 ° 0 min 0 W/m² 14,7 °C 21,9 °C 11,3 km/h (2 Bft)
05.09.2022 21:14 24,1 °C 22,3 °C 53 % 62 % 1020,6 hPa 0,0 l/m² 10,1 km/h (2 Bft) O-NO 78 ° 0 min 0 W/m² 14,7 °C 21,2 °C 12,9 km/h (3 Bft)
05.09.2022 21:16 24,1 °C 22,2 °C 53 % 62 % 1020,6 hPa 0,0 l/m² 8,4 km/h (2 Bft) O-NO 67 ° 0 min 0 W/m² 14,6 °C 21,5 °C 16,1 km/h (3 Bft)
05.09.2022 21:18 24,1 °C 22,2 °C 53 % 62 % 1020,6 hPa 0,0 l/m² 8,1 km/h (2 Bft) O-NO 75 ° 0 min 0 W/m² 14,6 °C 21,6 °C 14,5 km/h (3 Bft)
05.09.2022 21:20 24,1 °C 22,1 °C 53 % 63 % 1020,6 hPa 0,0 l/m² 9,4 km/h (2 Bft) O-NO 57 ° 0 min 0 W/m² 14,7 °C 21,1 °C 16,1 km/h (3 Bft)
05.09.2022 21:22 24,1 °C 22,0 °C 53 % 63 % 1020,6 hPa 0,0 l/m² 8,8 km/h (2 Bft) O 89 ° 0 min 0 W/m² 14,6 °C 21,2 °C 14,5 km/h (3 Bft)
05.09.2022 21:23 24,1 °C 22,0 °C 53 % 63 % 1020,6 hPa 0,0 l/m² 8,4 km/h (2 Bft) O-NO 71 ° 0 min 0 W/m² 14,6 °C 21,3 °C 14,5 km/h (3 Bft)
05.09.2022 21:24 24,1 °C 21,9 °C 53 % 63 % 1020,6 hPa 0,0 l/m² 9,0 km/h (2 Bft) O-NO 78 ° 0 min 0 W/m² 14,5 °C 21,0 °C 14,5 km/h (3 Bft)
05.09.2022 21:26 24,1 °C 21,9 °C 53 % 63 % 1020,6 hPa 0,0 l/m² 7,8 km/h (2 Bft) O-NO 59 ° 0 min 0 W/m² 14,5 °C 21,4 °C 16,1 km/h (3 Bft)
05.09.2022 21:28 24,1 °C 21,9 °C 53 % 63 % 1020,7 hPa 0,0 l/m² 8,8 km/h (2 Bft) O-NO 69 ° 0 min 0 W/m² 14,5 °C 21,1 °C 14,5 km/h (3 Bft)
05.09.2022 21:30 24,1 °C 21,8 °C 53 % 63 % 1020,6 hPa 0,0 l/m² 9,1 km/h (2 Bft) O-NO 63 ° 0 min 0 W/m² 14,4 °C 20,9 °C 17,7 km/h (3 Bft)
05.09.2022 21:32 24,1 °C 21,8 °C 53 % 64 % 1020,7 hPa 0,0 l/m² 6,5 km/h (2 Bft) O-NO 77 ° 0 min 0 W/m² 14,7 °C 21,8 °C 12,9 km/h (3 Bft)
05.09.2022 21:33 24,1 °C 21,8 °C 53 % 64 % 1020,7 hPa 0,0 l/m² 3,9 km/h (1 Bft) O 88 ° 0 min 0 W/m² 14,7 °C 21,8 °C 8,0 km/h (2 Bft)
05.09.2022 21:34 24,1 °C 21,8 °C 53 % 64 % 1020,6 hPa 0,0 l/m² 6,3 km/h (2 Bft) O 82 ° 0 min 0 W/m² 14,7 °C 21,8 °C 12,9 km/h (3 Bft)
05.09.2022 21:36 24,1 °C 21,8 °C 53 % 64 % 1020,7 hPa 0,0 l/m² 10,5 km/h (2 Bft) O 92 ° 0 min 0 W/m² 14,7 °C 20,5 °C 17,7 km/h (3 Bft)
05.09.2022 21:38 24,1 °C 21,7 °C 53 % 64 % 1020,7 hPa 0,0 l/m² 8,4 km/h (2 Bft) O-NO 71 ° 0 min 0 W/m² 14,6 °C 21,0 °C 14,5 km/h (3 Bft)
05.09.2022 21:40 24,1 °C 21,7 °C 53 % 65 % 1020,6 hPa 0,0 l/m² 8,7 km/h (2 Bft) O 82 ° 0 min 0 W/m² 14,8 °C 20,9 °C 14,5 km/h (3 Bft)
05.09.2022 21:42 24,1 °C 21,7 °C 53 % 65 % 1020,6 hPa 0,0 l/m² 11,5 km/h (2 Bft) O-NO 78 ° 0 min 0 W/m² 14,8 °C 20,1 °C 17,7 km/h (3 Bft)
05.09.2022 21:43 24,1 °C 21,7 °C 53 % 65 % 1020,7 hPa 0,0 l/m² 11,5 km/h (2 Bft) O-NO 62 ° 0 min 0 W/m² 14,8 °C 20,1 °C 17,7 km/h (3 Bft)
05.09.2022 21:44 24,1 °C 21,6 °C 53 % 65 % 1020,6 hPa 0,0 l/m² 11,3 km/h (2 Bft) O 89 ° 0 min 0 W/m² 14,7 °C 20,1 °C 14,5 km/h (3 Bft)
05.09.2022 21:46 24,2 °C 21,6 °C 53 % 65 % 1020,7 hPa 0,0 l/m² 6,4 km/h (2 Bft) O-NO 74 ° 0 min 0 W/m² 14,7 °C 21,6 °C 12,9 km/h (3 Bft)
05.09.2022 21:47 24,1 °C 21,6 °C 53 % 65 % 1020,7 hPa 0,0 l/m² 4,8 km/h (1 Bft) O-NO 76 ° 0 min 0 W/m² 14,7 °C 21,6 °C 6,4 km/h (2 Bft)
05.09.2022 21:49 24,1 °C 21,6 °C 53 % 65 % 1020,7 hPa 0,0 l/m² 7,2 km/h (2 Bft) O-NO 74 ° 0 min 0 W/m² 14,7 °C 21,3 °C 12,9 km/h (3 Bft)
05.09.2022 21:51 24,1 °C 21,6 °C 53 % 66 % 1020,7 hPa 0,0 l/m² 7,4 km/h (2 Bft) NO 55 ° 0 min 0 W/m² 15,0 °C 21,2 °C 12,9 km/h (3 Bft)
05.09.2022 21:52 24,1 °C 21,5 °C 53 % 65 % 1020,7 hPa 0,0 l/m² 10,3 km/h (2 Bft) O 87 ° 0 min 0 W/m² 14,6 °C 20,2 °C 14,5 km/h (3 Bft)
05.09.2022 21:53 24,1 °C 21,5 °C 53 % 66 % 1020,7 hPa 0,0 l/m² 6,2 km/h (2 Bft) O 84 ° 0 min 0 W/m² 14,9 °C 21,5 °C 8,0 km/h (2 Bft)
05.09.2022 21:55 24,1 °C 21,5 °C 53 % 66 % 1020,8 hPa 0,0 l/m² 9,0 km/h (2 Bft) O-NO 63 ° 0 min 0 W/m² 14,9 °C 20,6 °C 17,7 km/h (3 Bft)
05.09.2022 21:57 24,1 °C 21,4 °C 53 % 66 % 1020,7 hPa 0,0 l/m² 10,2 km/h (2 Bft) O-NO 59 ° 0 min 0 W/m² 14,8 °C 20,1 °C 17,7 km/h (3 Bft)
05.09.2022 21:59 24,1 °C 21,4 °C 53 % 66 % 1020,7 hPa 0,0 l/m² 9,5 km/h (2 Bft) O-NO 71 ° 0 min 0 W/m² 14,8 °C 20,3 °C 17,7 km/h (3 Bft)
05.09.2022 22:01 24,1 °C 21,4 °C 53 % 66 % 1020,7 hPa 0,0 l/m² 8,6 km/h (2 Bft) O-NO 72 ° 0 min 0 W/m² 14,8 °C 20,6 °C 14,5 km/h (3 Bft)
05.09.2022 22:02 24,1 °C 21,4 °C 53 % 66 % 1020,7 hPa 0,0 l/m² 7,1 km/h (2 Bft) O-NO 61 ° 0 min 0 W/m² 14,8 °C 21,1 °C 11,3 km/h (2 Bft)
05.09.2022 22:03 24,1 °C 21,4 °C 53 % 66 % 1020,7 hPa 0,0 l/m² 12,5 km/h (2 Bft) O 88 ° 0 min 0 W/m² 14,8 °C 19,5 °C 19,3 km/h (3 Bft)
05.09.2022 22:05 24,1 °C 21,4 °C 53 % 66 % 1020,7 hPa 0,0 l/m² 12,4 km/h (2 Bft) O-NO 65 ° 0 min 0 W/m² 14,8 °C 19,5 °C 17,7 km/h (3 Bft)
05.09.2022 22:07 24,1 °C 21,3 °C 53 % 66 % 1020,7 hPa 0,0 l/m² 11,4 km/h (2 Bft) O-NO 62 ° 0 min 0 W/m² 14,7 °C 19,7 °C 16,1 km/h (3 Bft)
05.09.2022 22:09 24,1 °C 21,3 °C 53 % 66 % 1020,7 hPa 0,0 l/m² 8,7 km/h (2 Bft) O-NO 61 ° 0 min 0 W/m² 14,7 °C 20,5 °C 14,5 km/h (3 Bft)
05.09.2022 22:11 24,1 °C 21,3 °C 53 % 66 % 1020,6 hPa 0,0 l/m² 10,1 km/h (2 Bft) O-NO 76 ° 0 min 0 W/m² 14,7 °C 20,0 °C 16,1 km/h (3 Bft)
05.09.2022 22:12 24,1 °C 21,3 °C 53 % 66 % 1020,7 hPa 0,0 l/m² 12,9 km/h (3 Bft) O-NO 73 ° 0 min 0 W/m² 14,7 °C 19,3 °C 19,3 km/h (3 Bft)
05.09.2022 22:13 24,1 °C 21,3 °C 53 % 66 % 1020,7 hPa 0,0 l/m² 11,9 km/h (2 Bft) O 82 ° 0 min 0 W/m² 14,7 °C 19,6 °C 17,7 km/h (3 Bft)
05.09.2022 22:15 24,1 °C 21,3 °C 53 % 66 % 1020,7 hPa 0,0 l/m² 11,3 km/h (2 Bft) O-NO 78 ° 0 min 0 W/m² 14,7 °C 19,7 °C 16,1 km/h (3 Bft)
05.09.2022 22:17 24,1 °C 21,2 °C 53 % 66 % 1020,7 hPa 0,0 l/m² 9,4 km/h (2 Bft) O 85 ° 0 min 0 W/m² 14,6 °C 20,1 °C 16,1 km/h (3 Bft)
05.09.2022 22:19 24,1 °C 21,2 °C 53 % 67 % 1020,7 hPa 0,0 l/m² 8,8 km/h (2 Bft) O-NO 74 ° 0 min 0 W/m² 14,8 °C 20,3 °C 12,9 km/h (3 Bft)
05.09.2022 22:21 24,1 °C 21,2 °C 53 % 67 % 1020,7 hPa 0,0 l/m² 10,3 km/h (2 Bft) O 83 ° 0 min 0 W/m² 14,8 °C 19,9 °C 16,1 km/h (3 Bft)
05.09.2022 22:22 24,1 °C 21,2 °C 53 % 67 % 1020,7 hPa 0,0 l/m² 7,6 km/h (2 Bft) O-NO 58 ° 0 min 0 W/m² 14,8 °C 20,8 °C 11,3 km/h (2 Bft)
05.09.2022 22:23 24,1 °C 21,2 °C 53 % 67 % 1020,7 hPa 0,0 l/m² 11,4 km/h (2 Bft) NO 41 ° 0 min 0 W/m² 14,8 °C 19,6 °C 16,1 km/h (3 Bft)
05.09.2022 22:25 24,1 °C 21,1 °C 53 % 67 % 1020,7 hPa 0,0 l/m² 10,4 km/h (2 Bft) O-NO 74 ° 0 min 0 W/m² 14,7 °C 19,7 °C 16,1 km/h (3 Bft)
05.09.2022 22:27 24,1 °C 21,1 °C 53 % 67 % 1020,6 hPa 0,0 l/m² 6,8 km/h (2 Bft) O-NO 78 ° 0 min 0 W/m² 14,7 °C 21,0 °C 12,9 km/h (3 Bft)
05.09.2022 22:29 24,1 °C 21,0 °C 53 % 67 % 1020,7 hPa 0,0 l/m² 7,9 km/h (2 Bft) O-NO 61 ° 0 min 0 W/m² 14,6 °C 20,4 °C 12,9 km/h (3 Bft)
05.09.2022 22:31 24,1 °C 20,9 °C 53 % 67 % 1020,6 hPa 0,0 l/m² 7,3 km/h (2 Bft) O-NO 68 ° 0 min 0 W/m² 14,5 °C 20,6 °C 12,9 km/h (3 Bft)
05.09.2022 22:32 24,1 °C 20,9 °C 53 % 67 % 1020,7 hPa 0,0 l/m² 8,4 km/h (2 Bft) O 80 ° 0 min 0 W/m² 14,5 °C 20,2 °C 14,5 km/h (3 Bft)
05.09.2022 22:33 24,1 °C 20,9 °C 53 % 67 % 1020,6 hPa 0,0 l/m² 10,9 km/h (2 Bft) O 80 ° 0 min 0 W/m² 14,5 °C 19,4 °C 16,1 km/h (3 Bft)
05.09.2022 22:35 24,1 °C 20,8 °C 53 % 67 % 1020,7 hPa 0,0 l/m² 7,1 km/h (2 Bft) O-NO 61 ° 0 min 0 W/m² 14,4 °C 20,5 °C 12,9 km/h (3 Bft)
05.09.2022 22:37 24,1 °C 20,8 °C 53 % 68 % 1020,6 hPa 0,0 l/m² 8,9 km/h (2 Bft) O-NO 65 ° 0 min 0 W/m² 14,7 °C 19,9 °C 12,9 km/h (3 Bft)
05.09.2022 22:39 24,1 °C 20,8 °C 53 % 68 % 1020,7 hPa 0,0 l/m² 9,7 km/h (2 Bft) O-NO 78 ° 0 min 0 W/m² 14,7 °C 19,6 °C 14,5 km/h (3 Bft)
05.09.2022 22:41 24,1 °C 20,7 °C 53 % 68 % 1020,6 hPa 0,0 l/m² 5,5 km/h (2 Bft) O 96 ° 0 min 0 W/m² 14,6 °C 20,7 °C 11,3 km/h (2 Bft)
05.09.2022 22:42 24,0 °C 20,7 °C 53 % 68 % 1020,7 hPa 0,0 l/m² 6,5 km/h (2 Bft) O 87 ° 0 min 0 W/m² 14,6 °C 20,7 °C 11,3 km/h (2 Bft)
05.09.2022 22:43 24,1 °C 20,7 °C 53 % 68 % 1020,6 hPa 0,0 l/m² 11,0 km/h (2 Bft) O-NO 61 ° 0 min 0 W/m² 14,6 °C 19,1 °C 14,5 km/h (3 Bft)
05.09.2022 22:45 24,0 °C 20,7 °C 53 % 68 % 1020,6 hPa 0,0 l/m² 7,6 km/h (2 Bft) O 81 ° 0 min 0 W/m² 14,6 °C 20,2 °C 12,9 km/h (3 Bft)
05.09.2022 22:47 24,0 °C 20,6 °C 53 % 68 % 1020,6 hPa 0,0 l/m² 9,6 km/h (2 Bft) O-NO 77 ° 0 min 0 W/m² 14,5 °C 19,4 °C 14,5 km/h (3 Bft)
05.09.2022 22:49 24,1 °C 20,6 °C 53 % 68 % 1020,6 hPa 0,0 l/m² 7,4 km/h (2 Bft) O 84 ° 0 min 0 W/m² 14,5 °C 20,2 °C 12,9 km/h (3 Bft)
05.09.2022 22:51 24,1 °C 20,6 °C 53 % 68 % 1020,6 hPa 0,0 l/m² 9,4 km/h (2 Bft) O-NO 76 ° 0 min 0 W/m² 14,5 °C 19,5 °C 16,1 km/h (3 Bft)
05.09.2022 22:52 24,0 °C 20,5 °C 53 % 68 % 1020,6 hPa 0,0 l/m² 9,8 km/h (2 Bft) NO 50 ° 0 min 0 W/m² 14,4 °C 19,3 °C 17,7 km/h (3 Bft)
05.09.2022 22:53 24,0 °C 20,6 °C 53 % 68 % 1020,6 hPa 0,0 l/m² 10,0 km/h (2 Bft) O-NO 76 ° 0 min 0 W/m² 14,5 °C 19,3 °C 16,1 km/h (3 Bft)
05.09.2022 22:55 24,0 °C 20,5 °C 53 % 68 % 1020,6 hPa 0,0 l/m² 7,3 km/h (2 Bft) O-NO 61 ° 0 min 0 W/m² 14,4 °C 20,1 °C 12,9 km/h (3 Bft)
05.09.2022 22:57 24,0 °C 20,4 °C 53 % 68 % 1020,6 hPa 0,0 l/m² 10,0 km/h (2 Bft) O 94 ° 0 min 0 W/m² 14,3 °C 19,1 °C 14,5 km/h (3 Bft)
05.09.2022 22:59 24,0 °C 20,4 °C 53 % 68 % 1020,6 hPa 0,0 l/m² 9,7 km/h (2 Bft) O 79 ° 0 min 0 W/m² 14,3 °C 19,2 °C 16,1 km/h (3 Bft)
05.09.2022 23:01 24,0 °C 20,4 °C 53 % 68 % 1020,6 hPa 0,0 l/m² 10,0 km/h (2 Bft) O-NO 64 ° 0 min 0 W/m² 14,3 °C 19,1 °C 16,1 km/h (3 Bft)
05.09.2022 23:02 24,0 °C 20,4 °C 53 % 68 % 1020,6 hPa 0,0 l/m² 6,8 km/h (2 Bft) O 81 ° 0 min 0 W/m² 14,3 °C 20,2 °C 11,3 km/h (2 Bft)
05.09.2022 23:03 24,0 °C 20,4 °C 53 % 68 % 1020,6 hPa 0,0 l/m² 7,8 km/h (2 Bft) O 88 ° 0 min 0 W/m² 14,3 °C 19,8 °C 11,3 km/h (2 Bft)
05.09.2022 23:05 24,0 °C 20,3 °C 53 % 68 % 1020,6 hPa 0,0 l/m² 7,3 km/h (2 Bft) O-NO 76 ° 0 min 0 W/m² 14,2 °C 19,9 °C 14,5 km/h (3 Bft)
05.09.2022 23:07 24,0 °C 20,3 °C 53 % 68 % 1020,6 hPa 0,0 l/m² 8,9 km/h (2 Bft) O 87 ° 0 min 0 W/m² 14,2 °C 19,3 °C 16,1 km/h (3 Bft)
05.09.2022 23:09 24,0 °C 20,3 °C 53 % 68 % 1020,6 hPa 0,0 l/m² 9,1 km/h (2 Bft) O-NO 67 ° 0 min 0 W/m² 14,2 °C 19,3 °C 16,1 km/h (3 Bft)
05.09.2022 23:11 24,0 °C 20,3 °C 53 % 69 % 1020,6 hPa 0,0 l/m² 11,7 km/h (2 Bft) O-NO 77 ° 0 min 0 W/m² 14,4 °C 18,5 °C 17,7 km/h (3 Bft)
05.09.2022 23:12 24,0 °C 20,2 °C 53 % 69 % 1020,6 hPa 0,0 l/m² 10,4 km/h (2 Bft) NO 52 ° 0 min 0 W/m² 14,3 °C 18,7 °C 14,5 km/h (3 Bft)
05.09.2022 23:14 24,0 °C 20,2 °C 53 % 69 % 1020,5 hPa 0,0 l/m² 8,5 km/h (2 Bft) O-NO 67 ° 0 min 0 W/m² 14,3 °C 19,4 °C 12,9 km/h (3 Bft)
05.09.2022 23:15 24,0 °C 20,2 °C 53 % 69 % 1020,6 hPa 0,0 l/m² 6,4 km/h (2 Bft) O-NO 67 ° 0 min 0 W/m² 14,3 °C 20,2 °C 11,3 km/h (2 Bft)
05.09.2022 23:22 24,0 °C 20,1 °C 53 % 69 % 1020,5 hPa 0,0 l/m² 7,8 km/h (2 Bft) O-NO 74 ° 0 min 0 W/m² 14,2 °C 19,5 °C 12,9 km/h (3 Bft)
05.09.2022 23:24 23,9 °C 20,1 °C 53 % 69 % 1020,5 hPa 0,0 l/m² 8,4 km/h (2 Bft) NO 55 ° 0 min 0 W/m² 14,2 °C 19,3 °C 16,1 km/h (3 Bft)
05.09.2022 23:25 24,0 °C 20,1 °C 53 % 69 % 1020,5 hPa 0,0 l/m² 8,7 km/h (2 Bft) O-NO 68 ° 0 min 0 W/m² 14,2 °C 19,2 °C 12,9 km/h (3 Bft)
05.09.2022 23:26 23,9 °C 20,1 °C 53 % 69 % 1020,4 hPa 0,0 l/m² 8,4 km/h (2 Bft) O-NO 59 ° 0 min 0 W/m² 14,2 °C 19,3 °C 16,1 km/h (3 Bft)
05.09.2022 23:28 24,0 °C 20,1 °C 53 % 69 % 1020,5 hPa 0,0 l/m² 8,8 km/h (2 Bft) O-NO 76 ° 0 min 0 W/m² 14,2 °C 19,2 °C 16,1 km/h (3 Bft)
05.09.2022 23:30 23,9 °C 20,0 °C 53 % 69 % 1020,5 hPa 0,0 l/m² 8,7 km/h (2 Bft) O 96 ° 0 min 0 W/m² 14,1 °C 19,1 °C 14,5 km/h (3 Bft)
05.09.2022 23:32 24,0 °C 20,0 °C 53 % 69 % 1020,4 hPa 0,0 l/m² 10,7 km/h (2 Bft) O 95 ° 0 min 0 W/m² 14,1 °C 18,4 °C 19,3 km/h (3 Bft)
05.09.2022 23:33 24,0 °C 19,9 °C 53 % 69 % 1020,5 hPa 0,0 l/m² 7,3 km/h (2 Bft) O-NO 75 ° 0 min 0 W/m² 14,0 °C 19,5 °C 11,3 km/h (2 Bft)
05.09.2022 23:34 23,9 °C 19,9 °C 53 % 69 % 1020,5 hPa 0,0 l/m² 6,3 km/h (2 Bft) NO 51 ° 0 min 0 W/m² 14,0 °C 19,9 °C 11,3 km/h (2 Bft)
05.09.2022 23:36 24,0 °C 19,9 °C 53 % 69 % 1020,4 hPa 0,0 l/m² 5,6 km/h (2 Bft) O-NO 60 ° 0 min 0 W/m² 14,0 °C 19,9 °C 11,3 km/h (2 Bft)
05.09.2022 23:38 23,9 °C 19,9 °C 53 % 69 % 1020,5 hPa 0,0 l/m² 7,3 km/h (2 Bft) NO 36 ° 0 min 0 W/m² 14,0 °C 19,5 °C 12,9 km/h (3 Bft)
05.09.2022 23:40 24,0 °C 19,9 °C 53 % 69 % 1020,6 hPa 0,0 l/m² 10,0 km/h (2 Bft) O-NO 75 ° 0 min 0 W/m² 14,0 °C 18,5 °C 16,1 km/h (3 Bft)
05.09.2022 23:41 24,0 °C 19,9 °C 53 % 69 % 1020,6 hPa 0,0 l/m² 6,0 km/h (2 Bft) O 79 ° 0 min 0 W/m² 14,0 °C 19,9 °C 9,7 km/h (2 Bft)
05.09.2022 23:42 24,0 °C 19,8 °C 53 % 69 % 1020,6 hPa 0,0 l/m² 6,8 km/h (2 Bft) O-NO 66 ° 0 min 0 W/m² 13,9 °C 19,6 °C 11,3 km/h (2 Bft)
05.09.2022 23:43 23,9 °C 19,8 °C 53 % 69 % 1020,5 hPa 0,0 l/m² 11,6 km/h (2 Bft) O-NO 66 ° 0 min 0 W/m² 13,9 °C 17,9 °C 17,7 km/h (3 Bft)
05.09.2022 23:45 23,9 °C 19,8 °C 53 % 69 % 1020,5 hPa 0,0 l/m² 8,9 km/h (2 Bft) NO 46 ° 0 min 0 W/m² 13,9 °C 18,8 °C 16,1 km/h (3 Bft)
05.09.2022 23:46 24,0 °C 19,8 °C 53 % 69 % 1020,5 hPa 0,0 l/m² 8,3 km/h (2 Bft) NO 53 ° 0 min 0 W/m² 13,9 °C 19,0 °C 14,5 km/h (3 Bft)
05.09.2022 23:48 23,9 °C 19,8 °C 53 % 69 % 1020,4 hPa 0,0 l/m² 7,5 km/h (2 Bft) O-NO 64 ° 0 min 0 W/m² 13,9 °C 19,3 °C 14,5 km/h (3 Bft)
05.09.2022 23:50 23,9 °C 19,7 °C 53 % 69 % 1020,4 hPa 0,0 l/m² 7,2 km/h (2 Bft) O-NO 62 ° 0 min 0 W/m² 13,8 °C 19,4 °C 12,9 km/h (3 Bft)
05.09.2022 23:51 24,0 °C 19,7 °C 53 % 69 % 1020,4 hPa 0,0 l/m² 6,4 km/h (2 Bft) O-NO 69 ° 0 min 0 W/m² 13,8 °C 19,7 °C 11,3 km/h (2 Bft)
05.09.2022 23:52 23,9 °C 19,7 °C 53 % 69 % 1020,4 hPa 0,0 l/m² 7,3 km/h (2 Bft) NO 55 ° 0 min 0 W/m² 13,8 °C 19,3 °C 14,5 km/h (3 Bft)
05.09.2022 23:53 23,9 °C 19,7 °C 53 % 69 % 1020,3 hPa 0,0 l/m² 7,9 km/h (2 Bft) NO 54 ° 0 min 0 W/m² 13,8 °C 19,1 °C 14,5 km/h (3 Bft)
05.09.2022 23:55 23,9 °C 19,7 °C 53 % 69 % 1020,3 hPa 0,0 l/m² 4,9 km/h (1 Bft) O 95 ° 0 min 0 W/m² 13,8 °C 19,7 °C 11,3 km/h (2 Bft)
05.09.2022 23:56 23,9 °C 19,7 °C 53 % 69 % 1020,4 hPa 0,0 l/m² 6,1 km/h (2 Bft) NO 44 ° 0 min 0 W/m² 13,8 °C 19,7 °C 12,9 km/h (3 Bft)
05.09.2022 23:58 23,9 °C 19,6 °C 53 % 69 % 1020,4 hPa 0,0 l/m² 9,3 km/h (2 Bft) O-NO 69 ° 0 min 0 W/m² 13,8 °C 18,4 °C 17,7 km/h (3 Bft)
05.09.2022 23:59 23,9 °C 19,6 °C 53 % 70 % 1020,3 hPa 0,0 l/m² 8,1 km/h (2 Bft) O-NO 69 ° 0 min 0 W/m² 14,0 °C 18,9 °C 12,9 km/h (3 Bft)
_ Min-Zeit 07:28 07:11 07:35 16:17 19:48 - 07:19 - - - - 06:51 07:11 07:19
Minimum _ 23,2 °C 11,3 °C 49 % 43 % 1020,2 hPa - 0,0 km/h (0 Bft) - - - - 8,4 °C 11,3 °C 0,0 km/h (0 Bft)
_ Max-Zeit 12:53 16:15 08:01 07:35 09:54 23:59 13:18 - - 08:26 12:52 13:42 16:13 14:20
Maximum _ 24,7 °C 29,2 °C 54 % 90 % 1023,6 hPa 0,0 l/m² 19,8 km/h
O (3 Bft)
- - 3 min 763 W/m² 16,6 °C 29,2 °C 29,0 km/h
O-NO (5 Bft)
Durchschnitt _ 23,9 °C 20,7 °C 51 % 64 % 1021,8 hPa #0,0 l/m² 7,5 km/h (2 Bft) O - #11:28 h 216 W/m² 13,2 °C 20,1 °C 11,9 km/h (2 Bft)
© 2009 Mathias Hoßbach